<?xml version="1.0" encoding="UTF-8" standalone="no" ?>
<gpx xmlns="http://www.topografix.com/GPX/1/1" xmlns:xsi="http://www.w3.org/2001/XMLSchema-instance" xsi:schemaLocation="http://www.topografix.com/GPX/1/1 http://www.topografix.com/GPX/1/1/gpx.xsd" version="1.1" creator="VisuGPX - https://www.visugpx.com">
  <metadata>
    <name>Parcours gorges de la sioule</name>
    <desc><![CDATA[beau parcours vers les gorges de la sioule]]></desc>
  </metadata>
  <trk>
    <name><![CDATA[Parcours gorges de la sioule]]></name>
    <trkseg>
      <trkpt lat="45.86361" lon="3.29561">
        <ele>314.76699829102</ele>
        <time>2020-07-18T18:51:02.000Z</time>
      </trkpt>
      <trkpt lat="45.8642" lon="3.29619">
        <ele>314</ele>
        <time>2020-07-18T18:51:02.011Z</time>
      </trkpt>
      <trkpt lat="45.86642" lon="3.29852">
        <ele>314</ele>
        <time>2020-07-18T18:51:02.066Z</time>
      </trkpt>
      <trkpt lat="45.8668" lon="3.2973">
        <ele>314.49108886719</ele>
        <time>2020-07-18T18:51:02.136Z</time>
      </trkpt>
      <trkpt lat="45.86778" lon="3.2952">
        <ele>315.49816894531</ele>
        <time>2020-07-18T18:51:02.235Z</time>
      </trkpt>
      <trkpt lat="45.86848" lon="3.29371">
        <ele>317.41412353516</ele>
        <time>2020-07-18T18:51:02.354Z</time>
      </trkpt>
      <trkpt lat="45.86956" lon="3.29041">
        <ele>320.54425048828</ele>
        <time>2020-07-18T18:51:02.513Z</time>
      </trkpt>
      <trkpt lat="45.8703" lon="3.28902">
        <ele>324.62475585938</ele>
        <time>2020-07-18T18:51:02.692Z</time>
      </trkpt>
      <trkpt lat="45.8703" lon="3.28902">
        <ele>324.62496948242</ele>
        <time>2020-07-18T18:51:02.871Z</time>
      </trkpt>
      <trkpt lat="45.87194" lon="3.28654">
        <ele>321.69412231445</ele>
        <time>2020-07-18T18:51:03.088Z</time>
      </trkpt>
      <trkpt lat="45.87239" lon="3.2852">
        <ele>320</ele>
        <time>2020-07-18T18:51:03.322Z</time>
      </trkpt>
      <trkpt lat="45.87286" lon="3.28386">
        <ele>320.27523803711</ele>
        <time>2020-07-18T18:51:03.572Z</time>
      </trkpt>
      <trkpt lat="45.87286" lon="3.28386">
        <ele>320.27514648438</ele>
        <time>2020-07-18T18:51:03.822Z</time>
      </trkpt>
      <trkpt lat="45.87346" lon="3.28209">
        <ele>319.82385253906</ele>
        <time>2020-07-18T18:51:04.095Z</time>
      </trkpt>
      <trkpt lat="45.87398" lon="3.28081">
        <ele>319.25665283203</ele>
        <time>2020-07-18T18:51:04.384Z</time>
      </trkpt>
      <trkpt lat="45.87451" lon="3.27954">
        <ele>318.97796630859</ele>
        <time>2020-07-18T18:51:04.690Z</time>
      </trkpt>
      <trkpt lat="45.87467" lon="3.27909">
        <ele>319.39901733398</ele>
        <time>2020-07-18T18:51:05.001Z</time>
      </trkpt>
      <trkpt lat="45.87477" lon="3.27849">
        <ele>319.93063354492</ele>
        <time>2020-07-18T18:51:05.319Z</time>
      </trkpt>
      <trkpt lat="45.87481" lon="3.27657">
        <ele>320.18319702148</ele>
        <time>2020-07-18T18:51:05.659Z</time>
      </trkpt>
      <trkpt lat="45.87486" lon="3.2757">
        <ele>321.79815673828</ele>
        <time>2020-07-18T18:51:06.008Z</time>
      </trkpt>
      <trkpt lat="45.87544" lon="3.27368">
        <ele>320.85342407227</ele>
        <time>2020-07-18T18:51:06.382Z</time>
      </trkpt>
      <trkpt lat="45.87563" lon="3.27221">
        <ele>319.82260131836</ele>
        <time>2020-07-18T18:51:06.773Z</time>
      </trkpt>
      <trkpt lat="45.87593" lon="3.26941">
        <ele>317.30883789062</ele>
        <time>2020-07-18T18:51:07.195Z</time>
      </trkpt>
      <trkpt lat="45.87603" lon="3.26866">
        <ele>316.79724121094</ele>
        <time>2020-07-18T18:51:07.626Z</time>
      </trkpt>
      <trkpt lat="45.87607" lon="3.26826">
        <ele>316.37246704102</ele>
        <time>2020-07-18T18:51:08.061Z</time>
      </trkpt>
      <trkpt lat="45.87611" lon="3.26815">
        <ele>316.28234863281</ele>
        <time>2020-07-18T18:51:08.498Z</time>
      </trkpt>
      <trkpt lat="45.87624" lon="3.26791">
        <ele>316.14074707031</ele>
        <time>2020-07-18T18:51:08.938Z</time>
      </trkpt>
      <trkpt lat="45.87634" lon="3.26776">
        <ele>316.08917236328</ele>
        <time>2020-07-18T18:51:09.380Z</time>
      </trkpt>
      <trkpt lat="45.87957" lon="3.26549">
        <ele>314.06732177734</ele>
        <time>2020-07-18T18:51:09.880Z</time>
      </trkpt>
      <trkpt lat="45.87996" lon="3.26523">
        <ele>313.11654663086</ele>
        <time>2020-07-18T18:51:10.387Z</time>
      </trkpt>
      <trkpt lat="45.8822" lon="3.26374">
        <ele>309.0368347168</ele>
        <time>2020-07-18T18:51:10.933Z</time>
      </trkpt>
      <trkpt lat="45.8844" lon="3.26231">
        <ele>308.39797973633</ele>
        <time>2020-07-18T18:51:11.518Z</time>
      </trkpt>
      <trkpt lat="45.88474" lon="3.26208">
        <ele>307.34494018555</ele>
        <time>2020-07-18T18:51:12.109Z</time>
      </trkpt>
      <trkpt lat="45.88657" lon="3.26088">
        <ele>310.38714599609</ele>
        <time>2020-07-18T18:51:12.732Z</time>
      </trkpt>
      <trkpt lat="45.88716" lon="3.26069">
        <ele>309.8821105957</ele>
        <time>2020-07-18T18:51:13.365Z</time>
      </trkpt>
      <trkpt lat="45.88768" lon="3.26065">
        <ele>304.9377746582</ele>
        <time>2020-07-18T18:51:14.006Z</time>
      </trkpt>
      <trkpt lat="45.88768" lon="3.26065">
        <ele>304.93856811523</ele>
        <time>2020-07-18T18:51:14.647Z</time>
      </trkpt>
      <trkpt lat="45.8878" lon="3.26068">
        <ele>303.92837524414</ele>
        <time>2020-07-18T18:51:15.290Z</time>
      </trkpt>
      <trkpt lat="45.88826" lon="3.26073">
        <ele>302.74923706055</ele>
        <time>2020-07-18T18:51:15.941Z</time>
      </trkpt>
      <trkpt lat="45.88848" lon="3.26076">
        <ele>303.22549438477</ele>
        <time>2020-07-18T18:51:16.595Z</time>
      </trkpt>
      <trkpt lat="45.88898" lon="3.26082">
        <ele>304.56829833984</ele>
        <time>2020-07-18T18:51:17.257Z</time>
      </trkpt>
      <trkpt lat="45.88981" lon="3.2607">
        <ele>308.4052734375</ele>
        <time>2020-07-18T18:51:17.932Z</time>
      </trkpt>
      <trkpt lat="45.88971" lon="3.25976">
        <ele>308.07675170898</ele>
        <time>2020-07-18T18:51:18.618Z</time>
      </trkpt>
      <trkpt lat="45.88976" lon="3.25961">
        <ele>307.76852416992</ele>
        <time>2020-07-18T18:51:19.306Z</time>
      </trkpt>
      <trkpt lat="45.89048" lon="3.25935">
        <ele>307.9631652832</ele>
        <time>2020-07-18T18:51:20.006Z</time>
      </trkpt>
      <trkpt lat="45.89124" lon="3.25929">
        <ele>304.73754882812</ele>
        <time>2020-07-18T18:51:20.718Z</time>
      </trkpt>
      <trkpt lat="45.89157" lon="3.25915">
        <ele>304.57092285156</ele>
        <time>2020-07-18T18:51:21.435Z</time>
      </trkpt>
      <trkpt lat="45.89172" lon="3.25909">
        <ele>305.00857543945</ele>
        <time>2020-07-18T18:51:22.155Z</time>
      </trkpt>
      <trkpt lat="45.8921" lon="3.25891">
        <ele>306.77337646484</ele>
        <time>2020-07-18T18:51:22.881Z</time>
      </trkpt>
      <trkpt lat="45.89234" lon="3.2589">
        <ele>307.94476318359</ele>
        <time>2020-07-18T18:51:23.611Z</time>
      </trkpt>
      <trkpt lat="45.89262" lon="3.25909">
        <ele>308.58837890625</ele>
        <time>2020-07-18T18:51:24.346Z</time>
      </trkpt>
      <trkpt lat="45.89271" lon="3.25894">
        <ele>309.57809448242</ele>
        <time>2020-07-18T18:51:25.083Z</time>
      </trkpt>
      <trkpt lat="45.8927" lon="3.25885">
        <ele>309.56530761719</ele>
        <time>2020-07-18T18:51:25.821Z</time>
      </trkpt>
      <trkpt lat="45.89268" lon="3.25859">
        <ele>309.53945922852</ele>
        <time>2020-07-18T18:51:26.562Z</time>
      </trkpt>
      <trkpt lat="45.89268" lon="3.25859">
        <ele>309.53955078125</ele>
        <time>2020-07-18T18:51:27.303Z</time>
      </trkpt>
      <trkpt lat="45.89175" lon="3.24659">
        <ele>309.48580932617</ele>
        <time>2020-07-18T18:51:28.179Z</time>
      </trkpt>
      <trkpt lat="45.89149" lon="3.24248">
        <ele>314.49508666992</ele>
        <time>2020-07-18T18:51:29.101Z</time>
      </trkpt>
      <trkpt lat="45.89162" lon="3.24161">
        <ele>313.20471191406</ele>
        <time>2020-07-18T18:51:30.033Z</time>
      </trkpt>
      <trkpt lat="45.89162" lon="3.24161">
        <ele>313.20443725586</ele>
        <time>2020-07-18T18:51:30.965Z</time>
      </trkpt>
      <trkpt lat="45.89177" lon="3.24111">
        <ele>312.93011474609</ele>
        <time>2020-07-18T18:51:31.903Z</time>
      </trkpt>
      <trkpt lat="45.89203" lon="3.24053">
        <ele>312.49151611328</ele>
        <time>2020-07-18T18:51:32.849Z</time>
      </trkpt>
      <trkpt lat="45.89362" lon="3.23782">
        <ele>313.7200012207</ele>
        <time>2020-07-18T18:51:33.835Z</time>
      </trkpt>
      <trkpt lat="45.89362" lon="3.23782">
        <ele>313.71939086914</ele>
        <time>2020-07-18T18:51:34.821Z</time>
      </trkpt>
      <trkpt lat="45.89378" lon="3.23754">
        <ele>314.85244750977</ele>
        <time>2020-07-18T18:51:35.811Z</time>
      </trkpt>
      <trkpt lat="45.89432" lon="3.23592">
        <ele>316.94396972656</ele>
        <time>2020-07-18T18:51:36.821Z</time>
      </trkpt>
      <trkpt lat="45.89456" lon="3.23547">
        <ele>316.57876586914</ele>
        <time>2020-07-18T18:51:37.837Z</time>
      </trkpt>
      <trkpt lat="45.89475" lon="3.23537">
        <ele>316.75518798828</ele>
        <time>2020-07-18T18:51:38.856Z</time>
      </trkpt>
      <trkpt lat="45.89482" lon="3.23522">
        <ele>317.09008789062</ele>
        <time>2020-07-18T18:51:39.877Z</time>
      </trkpt>
      <trkpt lat="45.89481" lon="3.23494">
        <ele>317.44479370117</ele>
        <time>2020-07-18T18:51:40.901Z</time>
      </trkpt>
      <trkpt lat="45.89475" lon="3.23483">
        <ele>317.70223999023</ele>
        <time>2020-07-18T18:51:41.927Z</time>
      </trkpt>
      <trkpt lat="45.89477" lon="3.23429">
        <ele>318.98947143555</ele>
        <time>2020-07-18T18:51:42.959Z</time>
      </trkpt>
      <trkpt lat="45.8951" lon="3.2331">
        <ele>319</ele>
        <time>2020-07-18T18:51:44.005Z</time>
      </trkpt>
      <trkpt lat="45.8951" lon="3.2331">
        <ele>319</ele>
        <time>2020-07-18T18:51:45.051Z</time>
      </trkpt>
      <trkpt lat="45.89558" lon="3.23138">
        <ele>320.51116943359</ele>
        <time>2020-07-18T18:51:46.118Z</time>
      </trkpt>
      <trkpt lat="45.89573" lon="3.2309">
        <ele>320.80465698242</ele>
        <time>2020-07-18T18:51:47.191Z</time>
      </trkpt>
      <trkpt lat="45.89707" lon="3.22848">
        <ele>320.41958618164</ele>
        <time>2020-07-18T18:51:48.298Z</time>
      </trkpt>
      <trkpt lat="45.8973" lon="3.2281">
        <ele>320.49685668945</ele>
        <time>2020-07-18T18:51:49.411Z</time>
      </trkpt>
      <trkpt lat="45.89768" lon="3.22742">
        <ele>321.24597167969</ele>
        <time>2020-07-18T18:51:50.534Z</time>
      </trkpt>
      <trkpt lat="45.89777" lon="3.2272">
        <ele>321.35888671875</ele>
        <time>2020-07-18T18:51:51.660Z</time>
      </trkpt>
      <trkpt lat="45.89781" lon="3.22712">
        <ele>321.30740356445</ele>
        <time>2020-07-18T18:51:52.787Z</time>
      </trkpt>
      <trkpt lat="45.89783" lon="3.22626">
        <ele>321.28176879883</ele>
        <time>2020-07-18T18:51:53.923Z</time>
      </trkpt>
      <trkpt lat="45.89783" lon="3.22572">
        <ele>321.00183105469</ele>
        <time>2020-07-18T18:51:55.065Z</time>
      </trkpt>
      <trkpt lat="45.89783" lon="3.22534">
        <ele>320.53851318359</ele>
        <time>2020-07-18T18:51:56.212Z</time>
      </trkpt>
      <trkpt lat="45.89783" lon="3.22534">
        <ele>320.53842163086</ele>
        <time>2020-07-18T18:51:57.359Z</time>
      </trkpt>
      <trkpt lat="45.89778" lon="3.22432">
        <ele>317.79385375977</ele>
        <time>2020-07-18T18:51:58.517Z</time>
      </trkpt>
      <trkpt lat="45.89878" lon="3.22454">
        <ele>317.85101318359</ele>
        <time>2020-07-18T18:51:59.691Z</time>
      </trkpt>
      <trkpt lat="45.89878" lon="3.22454">
        <ele>317.85113525391</ele>
        <time>2020-07-18T18:52:00.865Z</time>
      </trkpt>
      <trkpt lat="45.89944" lon="3.22454">
        <ele>317.69580078125</ele>
        <time>2020-07-18T18:52:02.050Z</time>
      </trkpt>
      <trkpt lat="45.89952" lon="3.22454">
        <ele>317.69580078125</ele>
        <time>2020-07-18T18:52:03.236Z</time>
      </trkpt>
      <trkpt lat="45.89968" lon="3.22466">
        <ele>317.55419921875</ele>
        <time>2020-07-18T18:52:04.425Z</time>
      </trkpt>
      <trkpt lat="45.89977" lon="3.22462">
        <ele>317.65396118164</ele>
        <time>2020-07-18T18:52:05.616Z</time>
      </trkpt>
      <trkpt lat="45.89987" lon="3.22449">
        <ele>317.92416381836</ele>
        <time>2020-07-18T18:52:06.809Z</time>
      </trkpt>
      <trkpt lat="45.90156" lon="3.22408">
        <ele>316.5657043457</ele>
        <time>2020-07-18T18:52:08.029Z</time>
      </trkpt>
      <trkpt lat="45.90156" lon="3.22408">
        <ele>316.56558227539</ele>
        <time>2020-07-18T18:52:09.249Z</time>
      </trkpt>
      <trkpt lat="45.90236" lon="3.2237">
        <ele>315.60098266602</ele>
        <time>2020-07-18T18:52:10.483Z</time>
      </trkpt>
      <trkpt lat="45.90305" lon="3.22328">
        <ele>316.77182006836</ele>
        <time>2020-07-18T18:52:11.729Z</time>
      </trkpt>
      <trkpt lat="45.90447" lon="3.22241">
        <ele>319.48815917969</ele>
        <time>2020-07-18T18:52:12.999Z</time>
      </trkpt>
      <trkpt lat="45.90497" lon="3.22211">
        <ele>319.98202514648</ele>
        <time>2020-07-18T18:52:14.278Z</time>
      </trkpt>
      <trkpt lat="45.90565" lon="3.22168">
        <ele>323.67456054688</ele>
        <time>2020-07-18T18:52:15.569Z</time>
      </trkpt>
      <trkpt lat="45.90565" lon="3.22168">
        <ele>323.67495727539</ele>
        <time>2020-07-18T18:52:16.860Z</time>
      </trkpt>
      <trkpt lat="45.90721" lon="3.2209">
        <ele>326.02307128906</ele>
        <time>2020-07-18T18:52:18.177Z</time>
      </trkpt>
      <trkpt lat="45.90746" lon="3.22075">
        <ele>327.2490234375</ele>
        <time>2020-07-18T18:52:19.499Z</time>
      </trkpt>
      <trkpt lat="45.90758" lon="3.22065">
        <ele>327.94412231445</ele>
        <time>2020-07-18T18:52:20.823Z</time>
      </trkpt>
      <trkpt lat="45.90802" lon="3.22071">
        <ele>328.52963256836</ele>
        <time>2020-07-18T18:52:22.154Z</time>
      </trkpt>
      <trkpt lat="45.90809" lon="3.22042">
        <ele>329.22882080078</ele>
        <time>2020-07-18T18:52:23.488Z</time>
      </trkpt>
      <trkpt lat="45.90818" lon="3.22004">
        <ele>329.84744262695</ele>
        <time>2020-07-18T18:52:24.827Z</time>
      </trkpt>
      <trkpt lat="45.9086" lon="3.21842">
        <ele>329.90805053711</ele>
        <time>2020-07-18T18:52:26.185Z</time>
      </trkpt>
      <trkpt lat="45.90934" lon="3.21643">
        <ele>331.0185546875</ele>
        <time>2020-07-18T18:52:27.568Z</time>
      </trkpt>
      <trkpt lat="45.90934" lon="3.21643">
        <ele>331.01885986328</ele>
        <time>2020-07-18T18:52:28.952Z</time>
      </trkpt>
      <trkpt lat="45.91004" lon="3.21469">
        <ele>329.50616455078</ele>
        <time>2020-07-18T18:52:30.358Z</time>
      </trkpt>
      <trkpt lat="45.91004" lon="3.21469">
        <ele>329.50573730469</ele>
        <time>2020-07-18T18:52:31.764Z</time>
      </trkpt>
      <trkpt lat="45.91084" lon="3.2129">
        <ele>329.65734863281</ele>
        <time>2020-07-18T18:52:33.194Z</time>
      </trkpt>
      <trkpt lat="45.91137" lon="3.21194">
        <ele>330.03219604492</ele>
        <time>2020-07-18T18:52:34.637Z</time>
      </trkpt>
      <trkpt lat="45.91231" lon="3.21068">
        <ele>324.32702636719</ele>
        <time>2020-07-18T18:52:36.101Z</time>
      </trkpt>
      <trkpt lat="45.91261" lon="3.21037">
        <ele>324.70031738281</ele>
        <time>2020-07-18T18:52:37.571Z</time>
      </trkpt>
      <trkpt lat="45.91272" lon="3.21024">
        <ele>324.85479736328</ele>
        <time>2020-07-18T18:52:39.043Z</time>
      </trkpt>
      <trkpt lat="45.91272" lon="3.21024">
        <ele>324.85479736328</ele>
        <time>2020-07-18T18:52:40.515Z</time>
      </trkpt>
      <trkpt lat="45.9132" lon="3.2096">
        <ele>325.79946899414</ele>
        <time>2020-07-18T18:52:41.998Z</time>
      </trkpt>
      <trkpt lat="45.9137" lon="3.2083">
        <ele>325.73016357422</ele>
        <time>2020-07-18T18:52:43.497Z</time>
      </trkpt>
      <trkpt lat="45.91466" lon="3.20587">
        <ele>326.19528198242</ele>
        <time>2020-07-18T18:52:45.027Z</time>
      </trkpt>
      <trkpt lat="45.91549" lon="3.20393">
        <ele>330.56652832031</ele>
        <time>2020-07-18T18:52:46.583Z</time>
      </trkpt>
      <trkpt lat="45.91625" lon="3.20191">
        <ele>332.68762207031</ele>
        <time>2020-07-18T18:52:48.164Z</time>
      </trkpt>
      <trkpt lat="45.91667" lon="3.2012">
        <ele>332.73944091797</ele>
        <time>2020-07-18T18:52:49.756Z</time>
      </trkpt>
      <trkpt lat="45.91737" lon="3.20035">
        <ele>333.32858276367</ele>
        <time>2020-07-18T18:52:51.363Z</time>
      </trkpt>
      <trkpt lat="45.91737" lon="3.20035">
        <ele>333.32867431641</ele>
        <time>2020-07-18T18:52:52.970Z</time>
      </trkpt>
      <trkpt lat="45.91769" lon="3.19979">
        <ele>334</ele>
        <time>2020-07-18T18:52:54.585Z</time>
      </trkpt>
      <trkpt lat="45.91793" lon="3.1992">
        <ele>334</ele>
        <time>2020-07-18T18:52:56.207Z</time>
      </trkpt>
      <trkpt lat="45.91826" lon="3.19828">
        <ele>333.77249145508</ele>
        <time>2020-07-18T18:52:57.841Z</time>
      </trkpt>
      <trkpt lat="45.91845" lon="3.19754">
        <ele>333.54089355469</ele>
        <time>2020-07-18T18:52:59.484Z</time>
      </trkpt>
      <trkpt lat="45.91852" lon="3.19694">
        <ele>334.16970825195</ele>
        <time>2020-07-18T18:53:01.133Z</time>
      </trkpt>
      <trkpt lat="45.91856" lon="3.19561">
        <ele>336.23544311523</ele>
        <time>2020-07-18T18:53:02.797Z</time>
      </trkpt>
      <trkpt lat="45.91856" lon="3.19541">
        <ele>336.00372314453</ele>
        <time>2020-07-18T18:53:04.463Z</time>
      </trkpt>
      <trkpt lat="45.91859" lon="3.19465">
        <ele>335.30535888672</ele>
        <time>2020-07-18T18:53:06.138Z</time>
      </trkpt>
      <trkpt lat="45.91887" lon="3.19295">
        <ele>332.75085449219</ele>
        <time>2020-07-18T18:53:07.833Z</time>
      </trkpt>
      <trkpt lat="45.91874" lon="3.1918">
        <ele>327.47393798828</ele>
        <time>2020-07-18T18:53:09.541Z</time>
      </trkpt>
      <trkpt lat="45.91902" lon="3.19021">
        <ele>331.54013061523</ele>
        <time>2020-07-18T18:53:11.267Z</time>
      </trkpt>
      <trkpt lat="45.91908" lon="3.18988">
        <ele>331.29312133789</ele>
        <time>2020-07-18T18:53:12.997Z</time>
      </trkpt>
      <trkpt lat="45.91908" lon="3.18988">
        <ele>331.29382324219</ele>
        <time>2020-07-18T18:53:14.727Z</time>
      </trkpt>
      <trkpt lat="45.9194" lon="3.18801">
        <ele>323.19607543945</ele>
        <time>2020-07-18T18:53:16.478Z</time>
      </trkpt>
      <trkpt lat="45.91963" lon="3.18719">
        <ele>320.73104858398</ele>
        <time>2020-07-18T18:53:18.239Z</time>
      </trkpt>
      <trkpt lat="45.92023" lon="3.18578">
        <ele>318.59594726562</ele>
        <time>2020-07-18T18:53:20.019Z</time>
      </trkpt>
      <trkpt lat="45.92023" lon="3.18578">
        <ele>318.59603881836</ele>
        <time>2020-07-18T18:53:21.799Z</time>
      </trkpt>
      <trkpt lat="45.92067" lon="3.18491">
        <ele>318.12371826172</ele>
        <time>2020-07-18T18:53:23.591Z</time>
      </trkpt>
      <trkpt lat="45.9212" lon="3.18413">
        <ele>318</ele>
        <time>2020-07-18T18:53:25.395Z</time>
      </trkpt>
      <trkpt lat="45.92344" lon="3.18024">
        <ele>318</ele>
        <time>2020-07-18T18:53:27.255Z</time>
      </trkpt>
      <trkpt lat="45.92519" lon="3.17802">
        <ele>322.05380249023</ele>
        <time>2020-07-18T18:53:29.152Z</time>
      </trkpt>
      <trkpt lat="45.92566" lon="3.17763">
        <ele>323</ele>
        <time>2020-07-18T18:53:31.058Z</time>
      </trkpt>
      <trkpt lat="45.92593" lon="3.1775">
        <ele>322.57540893555</ele>
        <time>2020-07-18T18:53:32.969Z</time>
      </trkpt>
      <trkpt lat="45.92725" lon="3.17723">
        <ele>321.07330322266</ele>
        <time>2020-07-18T18:53:34.901Z</time>
      </trkpt>
      <trkpt lat="45.92773" lon="3.17696">
        <ele>320.80874633789</ele>
        <time>2020-07-18T18:53:36.841Z</time>
      </trkpt>
      <trkpt lat="45.92821" lon="3.17653">
        <ele>320.83981323242</ele>
        <time>2020-07-18T18:53:38.790Z</time>
      </trkpt>
      <trkpt lat="45.929" lon="3.17565">
        <ele>319.22546386719</ele>
        <time>2020-07-18T18:53:40.755Z</time>
      </trkpt>
      <trkpt lat="45.92946" lon="3.17489">
        <ele>318.73046875</ele>
        <time>2020-07-18T18:53:42.732Z</time>
      </trkpt>
      <trkpt lat="45.92971" lon="3.17423">
        <ele>320.05474853516</ele>
        <time>2020-07-18T18:53:44.717Z</time>
      </trkpt>
      <trkpt lat="45.93004" lon="3.17285">
        <ele>321.28469848633</ele>
        <time>2020-07-18T18:53:46.718Z</time>
      </trkpt>
      <trkpt lat="45.93004" lon="3.17285">
        <ele>321.28469848633</ele>
        <time>2020-07-18T18:53:48.719Z</time>
      </trkpt>
      <trkpt lat="45.93018" lon="3.17249">
        <ele>321.15295410156</ele>
        <time>2020-07-18T18:53:50.725Z</time>
      </trkpt>
      <trkpt lat="45.93073" lon="3.17192">
        <ele>323.64999389648</ele>
        <time>2020-07-18T18:53:52.742Z</time>
      </trkpt>
      <trkpt lat="45.93117" lon="3.1717">
        <ele>323.37957763672</ele>
        <time>2020-07-18T18:53:54.766Z</time>
      </trkpt>
      <trkpt lat="45.93117" lon="3.1717">
        <ele>323.37969970703</ele>
        <time>2020-07-18T18:53:56.790Z</time>
      </trkpt>
      <trkpt lat="45.93135" lon="3.17136">
        <ele>323.13638305664</ele>
        <time>2020-07-18T18:53:58.819Z</time>
      </trkpt>
      <trkpt lat="45.93237" lon="3.17047">
        <ele>322.42700195312</ele>
        <time>2020-07-18T18:54:00.867Z</time>
      </trkpt>
      <trkpt lat="45.93295" lon="3.16982">
        <ele>323.34533691406</ele>
        <time>2020-07-18T18:54:02.927Z</time>
      </trkpt>
      <trkpt lat="45.9339" lon="3.16798">
        <ele>324.55484008789</ele>
        <time>2020-07-18T18:54:05.012Z</time>
      </trkpt>
      <trkpt lat="45.93439" lon="3.1672">
        <ele>324.00183105469</ele>
        <time>2020-07-18T18:54:07.109Z</time>
      </trkpt>
      <trkpt lat="45.93473" lon="3.16679">
        <ele>323.02349853516</ele>
        <time>2020-07-18T18:54:09.213Z</time>
      </trkpt>
      <trkpt lat="45.93523" lon="3.16641">
        <ele>323.96948242188</ele>
        <time>2020-07-18T18:54:11.326Z</time>
      </trkpt>
      <trkpt lat="45.93639" lon="3.16555">
        <ele>325.35131835938</ele>
        <time>2020-07-18T18:54:13.460Z</time>
      </trkpt>
      <trkpt lat="45.9381" lon="3.16393">
        <ele>325.08963012695</ele>
        <time>2020-07-18T18:54:15.627Z</time>
      </trkpt>
      <trkpt lat="45.93959" lon="3.16287">
        <ele>324.32260131836</ele>
        <time>2020-07-18T18:54:17.821Z</time>
      </trkpt>
      <trkpt lat="45.93969" lon="3.16281">
        <ele>324.63153076172</ele>
        <time>2020-07-18T18:54:20.016Z</time>
      </trkpt>
      <trkpt lat="45.9404" lon="3.16215">
        <ele>327.14144897461</ele>
        <time>2020-07-18T18:54:22.225Z</time>
      </trkpt>
      <trkpt lat="45.9404" lon="3.16215">
        <ele>327.14166259766</ele>
        <time>2020-07-18T18:54:24.434Z</time>
      </trkpt>
      <trkpt lat="45.94126" lon="3.16118">
        <ele>331.37265014648</ele>
        <time>2020-07-18T18:54:26.660Z</time>
      </trkpt>
      <trkpt lat="45.94145" lon="3.16098">
        <ele>332.22094726562</ele>
        <time>2020-07-18T18:54:28.890Z</time>
      </trkpt>
      <trkpt lat="45.94156" lon="3.16086">
        <ele>332.93240356445</ele>
        <time>2020-07-18T18:54:31.122Z</time>
      </trkpt>
      <trkpt lat="45.94295" lon="3.16022">
        <ele>338.56024169922</ele>
        <time>2020-07-18T18:54:33.378Z</time>
      </trkpt>
      <trkpt lat="45.94316" lon="3.16014">
        <ele>338.58209228516</ele>
        <time>2020-07-18T18:54:35.637Z</time>
      </trkpt>
      <trkpt lat="45.94446" lon="3.15976">
        <ele>329.35220336914</ele>
        <time>2020-07-18T18:54:37.917Z</time>
      </trkpt>
      <trkpt lat="45.94592" lon="3.15913">
        <ele>325.12493896484</ele>
        <time>2020-07-18T18:54:40.222Z</time>
      </trkpt>
      <trkpt lat="45.94616" lon="3.15916">
        <ele>324.72589111328</ele>
        <time>2020-07-18T18:54:42.531Z</time>
      </trkpt>
      <trkpt lat="45.94637" lon="3.15948">
        <ele>323.8010559082</ele>
        <time>2020-07-18T18:54:44.845Z</time>
      </trkpt>
      <trkpt lat="45.94649" lon="3.15954">
        <ele>323.69003295898</ele>
        <time>2020-07-18T18:54:47.161Z</time>
      </trkpt>
      <trkpt lat="45.94688" lon="3.15995">
        <ele>323.18798828125</ele>
        <time>2020-07-18T18:54:49.485Z</time>
      </trkpt>
      <trkpt lat="45.94703" lon="3.16002">
        <ele>323.11077880859</ele>
        <time>2020-07-18T18:54:51.811Z</time>
      </trkpt>
      <trkpt lat="45.94717" lon="3.15996">
        <ele>323.26892089844</ele>
        <time>2020-07-18T18:54:54.139Z</time>
      </trkpt>
      <trkpt lat="45.94735" lon="3.15975">
        <ele>323.98977661133</ele>
        <time>2020-07-18T18:54:56.471Z</time>
      </trkpt>
      <trkpt lat="45.94749" lon="3.15957">
        <ele>324.59478759766</ele>
        <time>2020-07-18T18:54:58.806Z</time>
      </trkpt>
      <trkpt lat="45.94749" lon="3.15945">
        <ele>324.45306396484</ele>
        <time>2020-07-18T18:55:01.142Z</time>
      </trkpt>
      <trkpt lat="45.94757" lon="3.15932">
        <ele>323.57733154297</ele>
        <time>2020-07-18T18:55:03.480Z</time>
      </trkpt>
      <trkpt lat="45.94756" lon="3.15922">
        <ele>323.47164916992</ele>
        <time>2020-07-18T18:55:05.819Z</time>
      </trkpt>
      <trkpt lat="45.94756" lon="3.15914">
        <ele>323.47125244141</ele>
        <time>2020-07-18T18:55:08.159Z</time>
      </trkpt>
      <trkpt lat="45.9474" lon="3.15888">
        <ele>324.24398803711</ele>
        <time>2020-07-18T18:55:10.503Z</time>
      </trkpt>
      <trkpt lat="45.94746" lon="3.15873">
        <ele>323.93505859375</ele>
        <time>2020-07-18T18:55:12.849Z</time>
      </trkpt>
      <trkpt lat="45.94766" lon="3.15869">
        <ele>323.82778930664</ele>
        <time>2020-07-18T18:55:15.198Z</time>
      </trkpt>
      <trkpt lat="45.94766" lon="3.15869">
        <ele>323.82778930664</ele>
        <time>2020-07-18T18:55:17.547Z</time>
      </trkpt>
      <trkpt lat="45.95257" lon="3.15769">
        <ele>326.00997924805</ele>
        <time>2020-07-18T18:55:19.976Z</time>
      </trkpt>
      <trkpt lat="45.95434" lon="3.15736">
        <ele>325.08868408203</ele>
        <time>2020-07-18T18:55:22.433Z</time>
      </trkpt>
      <trkpt lat="45.9555" lon="3.15714">
        <ele>325.58944702148</ele>
        <time>2020-07-18T18:55:24.909Z</time>
      </trkpt>
      <trkpt lat="45.9568" lon="3.15739">
        <ele>325.5290222168</ele>
        <time>2020-07-18T18:55:27.406Z</time>
      </trkpt>
      <trkpt lat="45.95768" lon="3.15741">
        <ele>325.4775390625</ele>
        <time>2020-07-18T18:55:29.917Z</time>
      </trkpt>
      <trkpt lat="45.96005" lon="3.15817">
        <ele>325</ele>
        <time>2020-07-18T18:55:32.467Z</time>
      </trkpt>
      <trkpt lat="45.96005" lon="3.15817">
        <ele>325</ele>
        <time>2020-07-18T18:55:35.017Z</time>
      </trkpt>
      <trkpt lat="45.96164" lon="3.15884">
        <ele>325.74401855469</ele>
        <time>2020-07-18T18:55:37.593Z</time>
      </trkpt>
      <trkpt lat="45.96238" lon="3.15902">
        <ele>326.6921081543</ele>
        <time>2020-07-18T18:55:40.181Z</time>
      </trkpt>
      <trkpt lat="45.96238" lon="3.15902">
        <ele>326.6921081543</ele>
        <time>2020-07-18T18:55:42.769Z</time>
      </trkpt>
      <trkpt lat="45.96262" lon="3.15908">
        <ele>326.76931762695</ele>
        <time>2020-07-18T18:55:45.361Z</time>
      </trkpt>
      <trkpt lat="45.96281" lon="3.15921">
        <ele>326.92379760742</ele>
        <time>2020-07-18T18:55:47.957Z</time>
      </trkpt>
      <trkpt lat="45.96321" lon="3.15973">
        <ele>327.70468139648</ele>
        <time>2020-07-18T18:55:50.561Z</time>
      </trkpt>
      <trkpt lat="45.96448" lon="3.16009">
        <ele>333.09231567383</ele>
        <time>2020-07-18T18:55:53.186Z</time>
      </trkpt>
      <trkpt lat="45.96481" lon="3.15992">
        <ele>335.09777832031</ele>
        <time>2020-07-18T18:55:55.817Z</time>
      </trkpt>
      <trkpt lat="45.96481" lon="3.15992">
        <ele>335.0973815918</ele>
        <time>2020-07-18T18:55:58.448Z</time>
      </trkpt>
      <trkpt lat="45.96499" lon="3.15987">
        <ele>335.90835571289</ele>
        <time>2020-07-18T18:56:01.082Z</time>
      </trkpt>
      <trkpt lat="45.96581" lon="3.15991">
        <ele>339.59521484375</ele>
        <time>2020-07-18T18:56:03.729Z</time>
      </trkpt>
      <trkpt lat="45.9659" lon="3.15992">
        <ele>339.91674804688</ele>
        <time>2020-07-18T18:56:06.377Z</time>
      </trkpt>
      <trkpt lat="45.96635" lon="3.15989">
        <ele>341.50033569336</ele>
        <time>2020-07-18T18:56:09.032Z</time>
      </trkpt>
      <trkpt lat="45.96644" lon="3.15978">
        <ele>341.68127441406</ele>
        <time>2020-07-18T18:56:11.689Z</time>
      </trkpt>
      <trkpt lat="45.96653" lon="3.15946">
        <ele>341.50103759766</ele>
        <time>2020-07-18T18:56:14.350Z</time>
      </trkpt>
      <trkpt lat="45.96659" lon="3.15821">
        <ele>343.15753173828</ele>
        <time>2020-07-18T18:56:17.025Z</time>
      </trkpt>
      <trkpt lat="45.96678" lon="3.15654">
        <ele>342.43710327148</ele>
        <time>2020-07-18T18:56:19.719Z</time>
      </trkpt>
      <trkpt lat="45.96677" lon="3.15472">
        <ele>341.80160522461</ele>
        <time>2020-07-18T18:56:22.433Z</time>
      </trkpt>
      <trkpt lat="45.96671" lon="3.15421">
        <ele>341.1530456543</ele>
        <time>2020-07-18T18:56:25.153Z</time>
      </trkpt>
      <trkpt lat="45.96678" lon="3.15407">
        <ele>341.55239868164</ele>
        <time>2020-07-18T18:56:27.875Z</time>
      </trkpt>
      <trkpt lat="45.96726" lon="3.15401">
        <ele>343.6227722168</ele>
        <time>2020-07-18T18:56:30.605Z</time>
      </trkpt>
      <trkpt lat="45.96763" lon="3.15374">
        <ele>343.92346191406</ele>
        <time>2020-07-18T18:56:33.341Z</time>
      </trkpt>
      <trkpt lat="45.96777" lon="3.15342">
        <ele>345</ele>
        <time>2020-07-18T18:56:36.082Z</time>
      </trkpt>
      <trkpt lat="45.968" lon="3.15222">
        <ele>345.37326049805</ele>
        <time>2020-07-18T18:56:38.837Z</time>
      </trkpt>
      <trkpt lat="45.96871" lon="3.14953">
        <ele>348.15374755859</ele>
        <time>2020-07-18T18:56:41.624Z</time>
      </trkpt>
      <trkpt lat="45.96899" lon="3.14786">
        <ele>345.00271606445</ele>
        <time>2020-07-18T18:56:44.430Z</time>
      </trkpt>
      <trkpt lat="45.96922" lon="3.14688">
        <ele>344.99456787109</ele>
        <time>2020-07-18T18:56:47.247Z</time>
      </trkpt>
      <trkpt lat="45.96922" lon="3.14688">
        <ele>344.99426269531</ele>
        <time>2020-07-18T18:56:50.064Z</time>
      </trkpt>
      <trkpt lat="45.96939" lon="3.14549">
        <ele>344.96783447266</ele>
        <time>2020-07-18T18:56:52.897Z</time>
      </trkpt>
      <trkpt lat="45.96984" lon="3.14325">
        <ele>347.65139770508</ele>
        <time>2020-07-18T18:56:55.756Z</time>
      </trkpt>
      <trkpt lat="45.97011" lon="3.1423">
        <ele>346.19671630859</ele>
        <time>2020-07-18T18:56:58.627Z</time>
      </trkpt>
      <trkpt lat="45.97024" lon="3.14184">
        <ele>346.51126098633</ele>
        <time>2020-07-18T18:57:01.503Z</time>
      </trkpt>
      <trkpt lat="45.97094" lon="3.13928">
        <ele>337.87609863281</ele>
        <time>2020-07-18T18:57:04.410Z</time>
      </trkpt>
      <trkpt lat="45.97169" lon="3.13634">
        <ele>333.47970581055</ele>
        <time>2020-07-18T18:57:07.352Z</time>
      </trkpt>
      <trkpt lat="45.97171" lon="3.1357">
        <ele>333.35800170898</ele>
        <time>2020-07-18T18:57:10.301Z</time>
      </trkpt>
      <trkpt lat="45.97151" lon="3.13444">
        <ele>332.31469726562</ele>
        <time>2020-07-18T18:57:13.264Z</time>
      </trkpt>
      <trkpt lat="45.97129" lon="3.13213">
        <ele>331.56628417969</ele>
        <time>2020-07-18T18:57:16.253Z</time>
      </trkpt>
      <trkpt lat="45.97107" lon="3.1297">
        <ele>332.82852172852</ele>
        <time>2020-07-18T18:57:19.270Z</time>
      </trkpt>
      <trkpt lat="45.97122" lon="3.12808">
        <ele>333.53170776367</ele>
        <time>2020-07-18T18:57:22.305Z</time>
      </trkpt>
      <trkpt lat="45.97119" lon="3.12585">
        <ele>333.83679199219</ele>
        <time>2020-07-18T18:57:25.365Z</time>
      </trkpt>
      <trkpt lat="45.97141" lon="3.12394">
        <ele>337.39596557617</ele>
        <time>2020-07-18T18:57:28.446Z</time>
      </trkpt>
      <trkpt lat="45.97154" lon="3.12171">
        <ele>340.46069335938</ele>
        <time>2020-07-18T18:57:31.552Z</time>
      </trkpt>
      <trkpt lat="45.97164" lon="3.12143">
        <ele>341.36175537109</ele>
        <time>2020-07-18T18:57:34.662Z</time>
      </trkpt>
      <trkpt lat="45.97156" lon="3.12133">
        <ele>341.41345214844</ele>
        <time>2020-07-18T18:57:37.774Z</time>
      </trkpt>
      <trkpt lat="45.97091" lon="3.12033">
        <ele>342.84454345703</ele>
        <time>2020-07-18T18:57:40.901Z</time>
      </trkpt>
      <trkpt lat="45.97053" lon="3.11992">
        <ele>343.09918212891</ele>
        <time>2020-07-18T18:57:44.035Z</time>
      </trkpt>
      <trkpt lat="45.96978" lon="3.11637">
        <ele>350.90368652344</ele>
        <time>2020-07-18T18:57:47.211Z</time>
      </trkpt>
      <trkpt lat="45.96962" lon="3.11564">
        <ele>354.31066894531</ele>
        <time>2020-07-18T18:57:50.395Z</time>
      </trkpt>
      <trkpt lat="45.96953" lon="3.11524">
        <ele>355.7008972168</ele>
        <time>2020-07-18T18:57:53.584Z</time>
      </trkpt>
      <trkpt lat="45.96935" lon="3.11424">
        <ele>359.45941162109</ele>
        <time>2020-07-18T18:57:56.785Z</time>
      </trkpt>
      <trkpt lat="45.96905" lon="3.11348">
        <ele>361.45431518555</ele>
        <time>2020-07-18T18:57:59.995Z</time>
      </trkpt>
      <trkpt lat="45.96902" lon="3.11341">
        <ele>361.64739990234</ele>
        <time>2020-07-18T18:58:03.206Z</time>
      </trkpt>
      <trkpt lat="45.96884" lon="3.11289">
        <ele>362.56774902344</ele>
        <time>2020-07-18T18:58:06.424Z</time>
      </trkpt>
      <trkpt lat="45.96874" lon="3.11258">
        <ele>362.890625</ele>
        <time>2020-07-18T18:58:09.646Z</time>
      </trkpt>
      <trkpt lat="45.96883" lon="3.11205">
        <ele>364.32705688477</ele>
        <time>2020-07-18T18:58:12.874Z</time>
      </trkpt>
      <trkpt lat="45.96922" lon="3.10995">
        <ele>365.44317626953</ele>
        <time>2020-07-18T18:58:16.126Z</time>
      </trkpt>
      <trkpt lat="45.96914" lon="3.10964">
        <ele>366.02243041992</ele>
        <time>2020-07-18T18:58:19.382Z</time>
      </trkpt>
      <trkpt lat="45.96893" lon="3.10878">
        <ele>368.7448425293</ele>
        <time>2020-07-18T18:58:22.648Z</time>
      </trkpt>
      <trkpt lat="45.9691" lon="3.10741">
        <ele>373.44885253906</ele>
        <time>2020-07-18T18:58:25.929Z</time>
      </trkpt>
      <trkpt lat="45.96925" lon="3.10675">
        <ele>374.61233520508</ele>
        <time>2020-07-18T18:58:29.218Z</time>
      </trkpt>
      <trkpt lat="45.96966" lon="3.10585">
        <ele>377.21411132812</ele>
        <time>2020-07-18T18:58:32.519Z</time>
      </trkpt>
      <trkpt lat="45.96968" lon="3.10513">
        <ele>380.71542358398</ele>
        <time>2020-07-18T18:58:35.828Z</time>
      </trkpt>
      <trkpt lat="45.96966" lon="3.1046">
        <ele>381.89205932617</ele>
        <time>2020-07-18T18:58:39.143Z</time>
      </trkpt>
      <trkpt lat="45.96963" lon="3.10441">
        <ele>382.22232055664</ele>
        <time>2020-07-18T18:58:42.460Z</time>
      </trkpt>
      <trkpt lat="45.96961" lon="3.10442">
        <ele>382.14660644531</ele>
        <time>2020-07-18T18:58:45.777Z</time>
      </trkpt>
      <trkpt lat="45.96929" lon="3.1026">
        <ele>387.81686401367</ele>
        <time>2020-07-18T18:58:49.115Z</time>
      </trkpt>
      <trkpt lat="45.96927" lon="3.10254">
        <ele>388.00881958008</ele>
        <time>2020-07-18T18:58:52.454Z</time>
      </trkpt>
      <trkpt lat="45.96925" lon="3.10248">
        <ele>388.20077514648</ele>
        <time>2020-07-18T18:58:55.794Z</time>
      </trkpt>
      <trkpt lat="45.96951" lon="3.10248">
        <ele>389.44857788086</ele>
        <time>2020-07-18T18:58:59.138Z</time>
      </trkpt>
      <trkpt lat="45.97062" lon="3.10252">
        <ele>392.67803955078</ele>
        <time>2020-07-18T18:59:02.500Z</time>
      </trkpt>
      <trkpt lat="45.97083" lon="3.10252">
        <ele>393.18194580078</ele>
        <time>2020-07-18T18:59:05.865Z</time>
      </trkpt>
      <trkpt lat="45.97177" lon="3.10255">
        <ele>396.50909423828</ele>
        <time>2020-07-18T18:59:09.245Z</time>
      </trkpt>
      <trkpt lat="45.97243" lon="3.10254">
        <ele>400.02581787109</ele>
        <time>2020-07-18T18:59:12.636Z</time>
      </trkpt>
      <trkpt lat="45.97256" lon="3.10252">
        <ele>400.61370849609</ele>
        <time>2020-07-18T18:59:16.029Z</time>
      </trkpt>
      <trkpt lat="45.97285" lon="3.10245">
        <ele>402.07748413086</ele>
        <time>2020-07-18T18:59:19.427Z</time>
      </trkpt>
      <trkpt lat="45.97318" lon="3.10233">
        <ele>403.5397644043</ele>
        <time>2020-07-18T18:59:22.830Z</time>
      </trkpt>
      <trkpt lat="45.97337" lon="3.10221">
        <ele>404.57159423828</ele>
        <time>2020-07-18T18:59:26.236Z</time>
      </trkpt>
      <trkpt lat="45.97363" lon="3.10203">
        <ele>406.74981689453</ele>
        <time>2020-07-18T18:59:29.647Z</time>
      </trkpt>
      <trkpt lat="45.97412" lon="3.10155">
        <ele>410.52069091797</ele>
        <time>2020-07-18T18:59:33.067Z</time>
      </trkpt>
      <trkpt lat="45.97469" lon="3.10093">
        <ele>412.96215820312</ele>
        <time>2020-07-18T18:59:36.499Z</time>
      </trkpt>
      <trkpt lat="45.97495" lon="3.10058">
        <ele>414.25741577148</ele>
        <time>2020-07-18T18:59:39.937Z</time>
      </trkpt>
      <trkpt lat="45.97509" lon="3.10035">
        <ele>414.33767700195</ele>
        <time>2020-07-18T18:59:43.378Z</time>
      </trkpt>
      <trkpt lat="45.97535" lon="3.09986">
        <ele>410.6071472168</ele>
        <time>2020-07-18T18:59:46.826Z</time>
      </trkpt>
      <trkpt lat="45.9756" lon="3.09927">
        <ele>408.67468261719</ele>
        <time>2020-07-18T18:59:50.282Z</time>
      </trkpt>
      <trkpt lat="45.97594" lon="3.09836">
        <ele>406.33212280273</ele>
        <time>2020-07-18T18:59:53.749Z</time>
      </trkpt>
      <trkpt lat="45.97625" lon="3.09755">
        <ele>404.0764465332</ele>
        <time>2020-07-18T18:59:57.226Z</time>
      </trkpt>
      <trkpt lat="45.97653" lon="3.09692">
        <ele>403.60501098633</ele>
        <time>2020-07-18T19:00:00.712Z</time>
      </trkpt>
      <trkpt lat="45.97671" lon="3.09658">
        <ele>404.11254882812</ele>
        <time>2020-07-18T19:00:04.203Z</time>
      </trkpt>
      <trkpt lat="45.97706" lon="3.09609">
        <ele>404.3645324707</ele>
        <time>2020-07-18T19:00:07.701Z</time>
      </trkpt>
      <trkpt lat="45.97761" lon="3.09536">
        <ele>402.75827026367</ele>
        <time>2020-07-18T19:00:11.211Z</time>
      </trkpt>
      <trkpt lat="45.97784" lon="3.09504">
        <ele>402.08355712891</ele>
        <time>2020-07-18T19:00:14.726Z</time>
      </trkpt>
      <trkpt lat="45.97794" lon="3.09486">
        <ele>402.08670043945</ele>
        <time>2020-07-18T19:00:18.244Z</time>
      </trkpt>
      <trkpt lat="45.97858" lon="3.09329">
        <ele>400.88439941406</ele>
        <time>2020-07-18T19:00:21.782Z</time>
      </trkpt>
      <trkpt lat="45.97969" lon="3.09046">
        <ele>400.69839477539</ele>
        <time>2020-07-18T19:00:25.357Z</time>
      </trkpt>
      <trkpt lat="45.98004" lon="3.08962">
        <ele>401.39041137695</ele>
        <time>2020-07-18T19:00:28.942Z</time>
      </trkpt>
      <trkpt lat="45.98047" lon="3.089">
        <ele>400.43115234375</ele>
        <time>2020-07-18T19:00:32.537Z</time>
      </trkpt>
      <trkpt lat="45.98098" lon="3.0883">
        <ele>399.87744140625</ele>
        <time>2020-07-18T19:00:36.144Z</time>
      </trkpt>
      <trkpt lat="45.98105" lon="3.08823">
        <ele>399.79345703125</ele>
        <time>2020-07-18T19:00:39.752Z</time>
      </trkpt>
      <trkpt lat="45.98119" lon="3.08818">
        <ele>399.40951538086</ele>
        <time>2020-07-18T19:00:43.362Z</time>
      </trkpt>
      <trkpt lat="45.98145" lon="3.08816">
        <ele>398.73779296875</ele>
        <time>2020-07-18T19:00:46.976Z</time>
      </trkpt>
      <trkpt lat="45.98221" lon="3.08813">
        <ele>400.31674194336</ele>
        <time>2020-07-18T19:00:50.603Z</time>
      </trkpt>
      <trkpt lat="45.98269" lon="3.08811">
        <ele>400.38565063477</ele>
        <time>2020-07-18T19:00:54.237Z</time>
      </trkpt>
      <trkpt lat="45.9828" lon="3.0881">
        <ele>400.33703613281</ele>
        <time>2020-07-18T19:00:57.873Z</time>
      </trkpt>
      <trkpt lat="45.9828" lon="3.088">
        <ele>400.33703613281</ele>
        <time>2020-07-18T19:01:01.510Z</time>
      </trkpt>
      <trkpt lat="45.98279" lon="3.0875">
        <ele>400.70166015625</ele>
        <time>2020-07-18T19:01:05.153Z</time>
      </trkpt>
      <trkpt lat="45.98278" lon="3.08712">
        <ele>401.86901855469</ele>
        <time>2020-07-18T19:01:08.800Z</time>
      </trkpt>
      <trkpt lat="45.9828" lon="3.08653">
        <ele>402.6741027832</ele>
        <time>2020-07-18T19:01:12.454Z</time>
      </trkpt>
      <trkpt lat="45.98281" lon="3.08627">
        <ele>403.18658447266</ele>
        <time>2020-07-18T19:01:16.110Z</time>
      </trkpt>
      <trkpt lat="45.98278" lon="3.08603">
        <ele>403.76248168945</ele>
        <time>2020-07-18T19:01:19.769Z</time>
      </trkpt>
      <trkpt lat="45.98274" lon="3.08586">
        <ele>404.08520507812</ele>
        <time>2020-07-18T19:01:23.430Z</time>
      </trkpt>
      <trkpt lat="45.98271" lon="3.08559">
        <ele>404.40914916992</ele>
        <time>2020-07-18T19:01:27.094Z</time>
      </trkpt>
      <trkpt lat="45.98268" lon="3.08468">
        <ele>406.001953125</ele>
        <time>2020-07-18T19:01:30.768Z</time>
      </trkpt>
      <trkpt lat="45.98263" lon="3.08431">
        <ele>406.88980102539</ele>
        <time>2020-07-18T19:01:34.447Z</time>
      </trkpt>
      <trkpt lat="45.98252" lon="3.08376">
        <ele>408.20959472656</ele>
        <time>2020-07-18T19:01:38.132Z</time>
      </trkpt>
      <trkpt lat="45.98251" lon="3.0836">
        <ele>408.59350585938</ele>
        <time>2020-07-18T19:01:41.819Z</time>
      </trkpt>
      <trkpt lat="45.98254" lon="3.08342">
        <ele>409.02545166016</ele>
        <time>2020-07-18T19:01:45.508Z</time>
      </trkpt>
      <trkpt lat="45.98258" lon="3.08321">
        <ele>409.52935791016</ele>
        <time>2020-07-18T19:01:49.199Z</time>
      </trkpt>
      <trkpt lat="45.98264" lon="3.08305">
        <ele>409.91329956055</ele>
        <time>2020-07-18T19:01:52.892Z</time>
      </trkpt>
      <trkpt lat="45.98295" lon="3.08256">
        <ele>411.13366699219</ele>
        <time>2020-07-18T19:01:56.593Z</time>
      </trkpt>
      <trkpt lat="45.98395" lon="3.08104">
        <ele>416.43026733398</ele>
        <time>2020-07-18T19:02:00.317Z</time>
      </trkpt>
      <trkpt lat="45.98452" lon="3.08018">
        <ele>421.77377319336</ele>
        <time>2020-07-18T19:02:04.054Z</time>
      </trkpt>
      <trkpt lat="45.98471" lon="3.07996">
        <ele>423.31225585938</ele>
        <time>2020-07-18T19:02:07.795Z</time>
      </trkpt>
      <trkpt lat="45.98482" lon="3.07987">
        <ele>424.26266479492</ele>
        <time>2020-07-18T19:02:11.538Z</time>
      </trkpt>
      <trkpt lat="45.98498" lon="3.07979">
        <ele>425.22250366211</ele>
        <time>2020-07-18T19:02:15.284Z</time>
      </trkpt>
      <trkpt lat="45.98556" lon="3.07959">
        <ele>427.83804321289</ele>
        <time>2020-07-18T19:02:19.039Z</time>
      </trkpt>
      <trkpt lat="45.98683" lon="3.07913">
        <ele>435.75482177734</ele>
        <time>2020-07-18T19:02:22.815Z</time>
      </trkpt>
      <trkpt lat="45.98691" lon="3.07911">
        <ele>436.21072387695</ele>
        <time>2020-07-18T19:02:26.593Z</time>
      </trkpt>
      <trkpt lat="45.98707" lon="3.07909">
        <ele>436.85861206055</ele>
        <time>2020-07-18T19:02:30.373Z</time>
      </trkpt>
      <trkpt lat="45.98724" lon="3.07918">
        <ele>435.89886474609</ele>
        <time>2020-07-18T19:02:34.156Z</time>
      </trkpt>
      <trkpt lat="45.9874" lon="3.07931">
        <ele>434.24322509766</ele>
        <time>2020-07-18T19:02:37.942Z</time>
      </trkpt>
      <trkpt lat="45.98768" lon="3.07882">
        <ele>438.70050048828</ele>
        <time>2020-07-18T19:02:41.735Z</time>
      </trkpt>
      <trkpt lat="45.98792" lon="3.07853">
        <ele>440.62017822266</ele>
        <time>2020-07-18T19:02:45.533Z</time>
      </trkpt>
      <trkpt lat="45.98812" lon="3.07824">
        <ele>442.95739746094</ele>
        <time>2020-07-18T19:02:49.336Z</time>
      </trkpt>
      <trkpt lat="45.98819" lon="3.07815">
        <ele>443.76126098633</ele>
        <time>2020-07-18T19:02:53.140Z</time>
      </trkpt>
      <trkpt lat="45.98832" lon="3.07804">
        <ele>444.63711547852</ele>
        <time>2020-07-18T19:02:56.947Z</time>
      </trkpt>
      <trkpt lat="45.98843" lon="3.07799">
        <ele>444.9130859375</ele>
        <time>2020-07-18T19:03:00.756Z</time>
      </trkpt>
      <trkpt lat="45.98864" lon="3.07795">
        <ele>445.08651733398</ele>
        <time>2020-07-18T19:03:04.568Z</time>
      </trkpt>
      <trkpt lat="45.98882" lon="3.07786">
        <ele>445.95034790039</ele>
        <time>2020-07-18T19:03:08.383Z</time>
      </trkpt>
      <trkpt lat="45.98891" lon="3.0778">
        <ele>446.56225585938</ele>
        <time>2020-07-18T19:03:12.200Z</time>
      </trkpt>
      <trkpt lat="45.98906" lon="3.07765">
        <ele>447.59643554688</ele>
        <time>2020-07-18T19:03:16.019Z</time>
      </trkpt>
      <trkpt lat="45.98938" lon="3.07726">
        <ele>452.41833496094</ele>
        <time>2020-07-18T19:03:19.845Z</time>
      </trkpt>
      <trkpt lat="45.98951" lon="3.07713">
        <ele>452.61267089844</ele>
        <time>2020-07-18T19:03:23.674Z</time>
      </trkpt>
      <trkpt lat="45.98973" lon="3.077">
        <ele>451.64083862305</ele>
        <time>2020-07-18T19:03:27.507Z</time>
      </trkpt>
      <trkpt lat="45.9899" lon="3.07688">
        <ele>451.76837158203</ele>
        <time>2020-07-18T19:03:31.343Z</time>
      </trkpt>
      <trkpt lat="45.98999" lon="3.07679">
        <ele>452.74020385742</ele>
        <time>2020-07-18T19:03:35.180Z</time>
      </trkpt>
      <trkpt lat="45.99015" lon="3.07652">
        <ele>456.63433837891</ele>
        <time>2020-07-18T19:03:39.021Z</time>
      </trkpt>
      <trkpt lat="45.99035" lon="3.07614">
        <ele>459.01641845703</ele>
        <time>2020-07-18T19:03:42.868Z</time>
      </trkpt>
      <trkpt lat="45.99042" lon="3.07592">
        <ele>460.06915283203</ele>
        <time>2020-07-18T19:03:46.717Z</time>
      </trkpt>
      <trkpt lat="45.99045" lon="3.0757">
        <ele>461.09689331055</ele>
        <time>2020-07-18T19:03:50.569Z</time>
      </trkpt>
      <trkpt lat="45.99037" lon="3.07505">
        <ele>462.18518066406</ele>
        <time>2020-07-18T19:03:54.428Z</time>
      </trkpt>
      <trkpt lat="45.99037" lon="3.0748">
        <ele>462.37783813477</ele>
        <time>2020-07-18T19:03:58.290Z</time>
      </trkpt>
      <trkpt lat="45.99037" lon="3.07459">
        <ele>459.85827636719</ele>
        <time>2020-07-18T19:04:02.154Z</time>
      </trkpt>
      <trkpt lat="45.99034" lon="3.07425">
        <ele>457.22738647461</ele>
        <time>2020-07-18T19:04:06.022Z</time>
      </trkpt>
      <trkpt lat="45.99025" lon="3.07368">
        <ele>456.65148925781</ele>
        <time>2020-07-18T19:04:09.897Z</time>
      </trkpt>
      <trkpt lat="45.99017" lon="3.07338">
        <ele>457.99270629883</ele>
        <time>2020-07-18T19:04:13.775Z</time>
      </trkpt>
      <trkpt lat="45.99012" lon="3.07329">
        <ele>459.79241943359</ele>
        <time>2020-07-18T19:04:17.655Z</time>
      </trkpt>
      <trkpt lat="45.99" lon="3.07315">
        <ele>464.56762695312</ele>
        <time>2020-07-18T19:04:21.537Z</time>
      </trkpt>
      <trkpt lat="45.98978" lon="3.07292">
        <ele>473.48211669922</ele>
        <time>2020-07-18T19:04:25.423Z</time>
      </trkpt>
      <trkpt lat="45.98955" lon="3.07264">
        <ele>478.27346801758</ele>
        <time>2020-07-18T19:04:29.314Z</time>
      </trkpt>
      <trkpt lat="45.9895" lon="3.0725">
        <ele>480.41149902344</ele>
        <time>2020-07-18T19:04:33.207Z</time>
      </trkpt>
      <trkpt lat="45.98948" lon="3.07226">
        <ele>483.31427001953</ele>
        <time>2020-07-18T19:04:37.103Z</time>
      </trkpt>
      <trkpt lat="45.9895" lon="3.07206">
        <ele>483.62622070312</ele>
        <time>2020-07-18T19:04:41.001Z</time>
      </trkpt>
      <trkpt lat="45.98956" lon="3.07173">
        <ele>483.61175537109</ele>
        <time>2020-07-18T19:04:44.903Z</time>
      </trkpt>
      <trkpt lat="45.9896" lon="3.07098">
        <ele>482.61657714844</ele>
        <time>2020-07-18T19:04:48.813Z</time>
      </trkpt>
      <trkpt lat="45.98962" lon="3.07046">
        <ele>483.88815307617</ele>
        <time>2020-07-18T19:04:52.729Z</time>
      </trkpt>
      <trkpt lat="45.98965" lon="3.06952">
        <ele>490.51766967773</ele>
        <time>2020-07-18T19:04:56.655Z</time>
      </trkpt>
      <trkpt lat="45.98969" lon="3.06924">
        <ele>492.13485717773</ele>
        <time>2020-07-18T19:05:00.585Z</time>
      </trkpt>
      <trkpt lat="45.98997" lon="3.06843">
        <ele>492.60833740234</ele>
        <time>2020-07-18T19:05:04.525Z</time>
      </trkpt>
      <trkpt lat="45.99006" lon="3.06823">
        <ele>489.85952758789</ele>
        <time>2020-07-18T19:05:08.467Z</time>
      </trkpt>
      <trkpt lat="45.99013" lon="3.06799">
        <ele>488.3117980957</ele>
        <time>2020-07-18T19:05:12.412Z</time>
      </trkpt>
      <trkpt lat="45.99016" lon="3.06762">
        <ele>494.20202636719</ele>
        <time>2020-07-18T19:05:16.361Z</time>
      </trkpt>
      <trkpt lat="45.99014" lon="3.06716">
        <ele>499.03521728516</ele>
        <time>2020-07-18T19:05:20.316Z</time>
      </trkpt>
      <trkpt lat="45.99018" lon="3.06692">
        <ele>505.21643066406</ele>
        <time>2020-07-18T19:05:24.273Z</time>
      </trkpt>
      <trkpt lat="45.99027" lon="3.06673">
        <ele>509.35433959961</ele>
        <time>2020-07-18T19:05:28.233Z</time>
      </trkpt>
      <trkpt lat="45.99042" lon="3.06657">
        <ele>511.71432495117</ele>
        <time>2020-07-18T19:05:32.196Z</time>
      </trkpt>
      <trkpt lat="45.99053" lon="3.0665">
        <ele>512.71014404297</ele>
        <time>2020-07-18T19:05:36.161Z</time>
      </trkpt>
      <trkpt lat="45.99068" lon="3.06645">
        <ele>513.11968994141</ele>
        <time>2020-07-18T19:05:40.128Z</time>
      </trkpt>
      <trkpt lat="45.99095" lon="3.06643">
        <ele>512.12384033203</ele>
        <time>2020-07-18T19:05:44.100Z</time>
      </trkpt>
      <trkpt lat="45.99125" lon="3.06645">
        <ele>508.82727050781</ele>
        <time>2020-07-18T19:05:48.076Z</time>
      </trkpt>
      <trkpt lat="45.99161" lon="3.06635">
        <ele>508.65991210938</ele>
        <time>2020-07-18T19:05:52.058Z</time>
      </trkpt>
      <trkpt lat="45.99178" lon="3.06627">
        <ele>509.82562255859</ele>
        <time>2020-07-18T19:05:56.043Z</time>
      </trkpt>
      <trkpt lat="45.99209" lon="3.06607">
        <ele>508.24188232422</ele>
        <time>2020-07-18T19:06:00.034Z</time>
      </trkpt>
      <trkpt lat="45.99225" lon="3.06587">
        <ele>508.12460327148</ele>
        <time>2020-07-18T19:06:04.028Z</time>
      </trkpt>
      <trkpt lat="45.99236" lon="3.06561">
        <ele>507.03277587891</ele>
        <time>2020-07-18T19:06:08.025Z</time>
      </trkpt>
      <trkpt lat="45.99243" lon="3.06527">
        <ele>506.73846435547</ele>
        <time>2020-07-18T19:06:12.026Z</time>
      </trkpt>
      <trkpt lat="45.99242" lon="3.06507">
        <ele>506.6614074707</ele>
        <time>2020-07-18T19:06:16.030Z</time>
      </trkpt>
      <trkpt lat="45.99234" lon="3.06468">
        <ele>507.26132202148</ele>
        <time>2020-07-18T19:06:20.038Z</time>
      </trkpt>
      <trkpt lat="45.99225" lon="3.06431">
        <ele>508.10116577148</ele>
        <time>2020-07-18T19:06:24.050Z</time>
      </trkpt>
      <trkpt lat="45.99227" lon="3.06429">
        <ele>507.66925048828</ele>
        <time>2020-07-18T19:06:28.063Z</time>
      </trkpt>
      <trkpt lat="45.9923" lon="3.06425">
        <ele>506.80130004883</ele>
        <time>2020-07-18T19:06:32.076Z</time>
      </trkpt>
      <trkpt lat="45.99234" lon="3.06407">
        <ele>505.24157714844</ele>
        <time>2020-07-18T19:06:36.092Z</time>
      </trkpt>
      <trkpt lat="45.99233" lon="3.06377">
        <ele>504.38970947266</ele>
        <time>2020-07-18T19:06:40.111Z</time>
      </trkpt>
      <trkpt lat="45.99229" lon="3.06346">
        <ele>504.28359985352</ele>
        <time>2020-07-18T19:06:44.133Z</time>
      </trkpt>
      <trkpt lat="45.99221" lon="3.06295">
        <ele>506.75531005859</ele>
        <time>2020-07-18T19:06:48.161Z</time>
      </trkpt>
      <trkpt lat="45.99221" lon="3.06272">
        <ele>507.30722045898</ele>
        <time>2020-07-18T19:06:52.192Z</time>
      </trkpt>
      <trkpt lat="45.99224" lon="3.06264">
        <ele>507.03128051758</ele>
        <time>2020-07-18T19:06:56.224Z</time>
      </trkpt>
      <trkpt lat="45.99232" lon="3.06249">
        <ele>507.07290649414</ele>
        <time>2020-07-18T19:07:00.258Z</time>
      </trkpt>
      <trkpt lat="45.99252" lon="3.06221">
        <ele>507.21688842773</ele>
        <time>2020-07-18T19:07:04.296Z</time>
      </trkpt>
      <trkpt lat="45.99259" lon="3.06205">
        <ele>507.31903076172</ele>
        <time>2020-07-18T19:07:08.337Z</time>
      </trkpt>
      <trkpt lat="45.99262" lon="3.06188">
        <ele>506.99508666992</ele>
        <time>2020-07-18T19:07:12.379Z</time>
      </trkpt>
      <trkpt lat="45.99264" lon="3.0617">
        <ele>506.48959350586</ele>
        <time>2020-07-18T19:07:16.424Z</time>
      </trkpt>
      <trkpt lat="45.99262" lon="3.06149">
        <ele>505.69775390625</ele>
        <time>2020-07-18T19:07:20.471Z</time>
      </trkpt>
      <trkpt lat="45.99257" lon="3.06133">
        <ele>505.46978759766</ele>
        <time>2020-07-18T19:07:24.520Z</time>
      </trkpt>
      <trkpt lat="45.99227" lon="3.06085">
        <ele>505.71002197266</ele>
        <time>2020-07-18T19:07:28.576Z</time>
      </trkpt>
      <trkpt lat="45.99204" lon="3.06056">
        <ele>505.16906738281</ele>
        <time>2020-07-18T19:07:32.637Z</time>
      </trkpt>
      <trkpt lat="45.99185" lon="3.06035">
        <ele>505.13305664062</ele>
        <time>2020-07-18T19:07:36.702Z</time>
      </trkpt>
      <trkpt lat="45.99165" lon="3.06007">
        <ele>504.4013671875</ele>
        <time>2020-07-18T19:07:40.771Z</time>
      </trkpt>
      <trkpt lat="45.99152" lon="3.05987">
        <ele>504.35336303711</ele>
        <time>2020-07-18T19:07:44.843Z</time>
      </trkpt>
      <trkpt lat="45.9914" lon="3.0597">
        <ele>504.48687744141</ele>
        <time>2020-07-18T19:07:48.918Z</time>
      </trkpt>
      <trkpt lat="45.99112" lon="3.05921">
        <ele>504.60665893555</ele>
        <time>2020-07-18T19:07:53.000Z</time>
      </trkpt>
      <trkpt lat="45.99101" lon="3.059">
        <ele>504.94259643555</ele>
        <time>2020-07-18T19:07:57.085Z</time>
      </trkpt>
      <trkpt lat="45.991" lon="3.05886">
        <ele>504.10272216797</ele>
        <time>2020-07-18T19:08:01.172Z</time>
      </trkpt>
      <trkpt lat="45.99103" lon="3.05869">
        <ele>504.36480712891</ele>
        <time>2020-07-18T19:08:05.261Z</time>
      </trkpt>
      <trkpt lat="45.99106" lon="3.05862">
        <ele>504.43676757812</ele>
        <time>2020-07-18T19:08:09.350Z</time>
      </trkpt>
      <trkpt lat="45.99133" lon="3.05838">
        <ele>503.56948852539</ele>
        <time>2020-07-18T19:08:13.445Z</time>
      </trkpt>
      <trkpt lat="45.99134" lon="3.05832">
        <ele>503.91403198242</ele>
        <time>2020-07-18T19:08:17.540Z</time>
      </trkpt>
      <trkpt lat="45.99133" lon="3.05822">
        <ele>505.06582641602</ele>
        <time>2020-07-18T19:08:21.636Z</time>
      </trkpt>
      <trkpt lat="45.99122" lon="3.05772">
        <ele>510.53692626953</ele>
        <time>2020-07-18T19:08:25.738Z</time>
      </trkpt>
      <trkpt lat="45.99109" lon="3.05724">
        <ele>516.06274414062</ele>
        <time>2020-07-18T19:08:29.846Z</time>
      </trkpt>
      <trkpt lat="45.99092" lon="3.05676">
        <ele>521.20989990234</ele>
        <time>2020-07-18T19:08:33.960Z</time>
      </trkpt>
      <trkpt lat="45.99084" lon="3.0565">
        <ele>524.04144287109</ele>
        <time>2020-07-18T19:08:38.077Z</time>
      </trkpt>
      <trkpt lat="45.99073" lon="3.05606">
        <ele>528.89135742188</ele>
        <time>2020-07-18T19:08:42.199Z</time>
      </trkpt>
      <trkpt lat="45.99061" lon="3.0555">
        <ele>535.14477539062</ele>
        <time>2020-07-18T19:08:46.328Z</time>
      </trkpt>
      <trkpt lat="45.99058" lon="3.05532">
        <ele>537.26843261719</ele>
        <time>2020-07-18T19:08:50.459Z</time>
      </trkpt>
      <trkpt lat="45.99058" lon="3.05516">
        <ele>539.18811035156</ele>
        <time>2020-07-18T19:08:54.592Z</time>
      </trkpt>
      <trkpt lat="45.99065" lon="3.05502">
        <ele>540.62060546875</ele>
        <time>2020-07-18T19:08:58.727Z</time>
      </trkpt>
      <trkpt lat="45.99079" lon="3.05484">
        <ele>542.22833251953</ele>
        <time>2020-07-18T19:09:02.865Z</time>
      </trkpt>
      <trkpt lat="45.99084" lon="3.05473">
        <ele>543.29620361328</ele>
        <time>2020-07-18T19:09:07.004Z</time>
      </trkpt>
      <trkpt lat="45.99088" lon="3.05459">
        <ele>544.7119140625</ele>
        <time>2020-07-18T19:09:11.145Z</time>
      </trkpt>
      <trkpt lat="45.99092" lon="3.0545">
        <ele>545.35528564453</ele>
        <time>2020-07-18T19:09:15.287Z</time>
      </trkpt>
      <trkpt lat="45.99094" lon="3.05437">
        <ele>546.35107421875</ele>
        <time>2020-07-18T19:09:19.430Z</time>
      </trkpt>
      <trkpt lat="45.99096" lon="3.05415">
        <ele>547.97192382812</ele>
        <time>2020-07-18T19:09:23.576Z</time>
      </trkpt>
      <trkpt lat="45.99094" lon="3.0539">
        <ele>549.86761474609</ele>
        <time>2020-07-18T19:09:27.725Z</time>
      </trkpt>
      <trkpt lat="45.99084" lon="3.05339">
        <ele>553.22937011719</ele>
        <time>2020-07-18T19:09:31.880Z</time>
      </trkpt>
      <trkpt lat="45.99077" lon="3.05296">
        <ele>554.76507568359</ele>
        <time>2020-07-18T19:09:36.040Z</time>
      </trkpt>
      <trkpt lat="45.9907" lon="3.05275">
        <ele>555.77294921875</ele>
        <time>2020-07-18T19:09:40.202Z</time>
      </trkpt>
      <trkpt lat="45.99063" lon="3.05274">
        <ele>556.30084228516</ele>
        <time>2020-07-18T19:09:44.365Z</time>
      </trkpt>
      <trkpt lat="45.99058" lon="3.0523">
        <ele>557.73480224609</ele>
        <time>2020-07-18T19:09:48.533Z</time>
      </trkpt>
      <trkpt lat="45.9905" lon="3.05172">
        <ele>560.28161621094</ele>
        <time>2020-07-18T19:09:52.708Z</time>
      </trkpt>
      <trkpt lat="45.99046" lon="3.05137">
        <ele>561.86474609375</ele>
        <time>2020-07-18T19:09:56.887Z</time>
      </trkpt>
      <trkpt lat="45.99046" lon="3.05126">
        <ele>562.26068115234</ele>
        <time>2020-07-18T19:10:01.067Z</time>
      </trkpt>
      <trkpt lat="45.9905" lon="3.05107">
        <ele>562.46459960938</ele>
        <time>2020-07-18T19:10:05.249Z</time>
      </trkpt>
      <trkpt lat="45.99056" lon="3.05092">
        <ele>562.24731445312</ele>
        <time>2020-07-18T19:10:09.433Z</time>
      </trkpt>
      <trkpt lat="45.99067" lon="3.05079">
        <ele>563.337890625</ele>
        <time>2020-07-18T19:10:13.619Z</time>
      </trkpt>
      <trkpt lat="45.9907" lon="3.05077">
        <ele>563.63781738281</ele>
        <time>2020-07-18T19:10:17.806Z</time>
      </trkpt>
      <trkpt lat="45.99077" lon="3.05078">
        <ele>563.99780273438</ele>
        <time>2020-07-18T19:10:21.994Z</time>
      </trkpt>
      <trkpt lat="45.99094" lon="3.05096">
        <ele>563.97955322266</ele>
        <time>2020-07-18T19:10:26.186Z</time>
      </trkpt>
      <trkpt lat="45.99104" lon="3.05101">
        <ele>564.33947753906</ele>
        <time>2020-07-18T19:10:30.379Z</time>
      </trkpt>
      <trkpt lat="45.99119" lon="3.051">
        <ele>565.28735351562</ele>
        <time>2020-07-18T19:10:34.575Z</time>
      </trkpt>
      <trkpt lat="45.99124" lon="3.051">
        <ele>565.58728027344</ele>
        <time>2020-07-18T19:10:38.771Z</time>
      </trkpt>
      <trkpt lat="45.99127" lon="3.05096">
        <ele>565.95922851562</ele>
        <time>2020-07-18T19:10:42.968Z</time>
      </trkpt>
      <trkpt lat="45.99138" lon="3.0508">
        <ele>567.75207519531</ele>
        <time>2020-07-18T19:10:47.168Z</time>
      </trkpt>
      <trkpt lat="45.99148" lon="3.05059">
        <ele>569.89233398438</ele>
        <time>2020-07-18T19:10:51.370Z</time>
      </trkpt>
      <trkpt lat="45.9916" lon="3.05025">
        <ele>572.82928466797</ele>
        <time>2020-07-18T19:10:55.577Z</time>
      </trkpt>
      <trkpt lat="45.99171" lon="3.04989">
        <ele>575.58294677734</ele>
        <time>2020-07-18T19:10:59.788Z</time>
      </trkpt>
      <trkpt lat="45.99183" lon="3.04957">
        <ele>578.26428222656</ele>
        <time>2020-07-18T19:11:04.003Z</time>
      </trkpt>
      <trkpt lat="45.99195" lon="3.04919">
        <ele>580.48602294922</ele>
        <time>2020-07-18T19:11:08.223Z</time>
      </trkpt>
      <trkpt lat="45.99201" lon="3.04895">
        <ele>581.62689208984</ele>
        <time>2020-07-18T19:11:12.446Z</time>
      </trkpt>
      <trkpt lat="45.99211" lon="3.04848">
        <ele>583.40258789062</ele>
        <time>2020-07-18T19:11:16.674Z</time>
      </trkpt>
      <trkpt lat="45.99213" lon="3.0482">
        <ele>584.39685058594</ele>
        <time>2020-07-18T19:11:20.905Z</time>
      </trkpt>
      <trkpt lat="45.99215" lon="3.04752">
        <ele>585.88458251953</ele>
        <time>2020-07-18T19:11:25.144Z</time>
      </trkpt>
      <trkpt lat="45.99225" lon="3.04714">
        <ele>586.61480712891</ele>
        <time>2020-07-18T19:11:29.387Z</time>
      </trkpt>
      <trkpt lat="45.99235" lon="3.04692">
        <ele>586.32690429688</ele>
        <time>2020-07-18T19:11:33.633Z</time>
      </trkpt>
      <trkpt lat="45.99253" lon="3.04664">
        <ele>586.54339599609</ele>
        <time>2020-07-18T19:11:37.884Z</time>
      </trkpt>
      <trkpt lat="45.99266" lon="3.04648">
        <ele>586.37542724609</ele>
        <time>2020-07-18T19:11:42.137Z</time>
      </trkpt>
      <trkpt lat="45.99272" lon="3.04639">
        <ele>586.38800048828</ele>
        <time>2020-07-18T19:11:46.392Z</time>
      </trkpt>
      <trkpt lat="45.99272" lon="3.0463">
        <ele>587.03588867188</ele>
        <time>2020-07-18T19:11:50.648Z</time>
      </trkpt>
      <trkpt lat="45.99258" lon="3.04595">
        <ele>590.22741699219</ele>
        <time>2020-07-18T19:11:54.908Z</time>
      </trkpt>
      <trkpt lat="45.99247" lon="3.04575">
        <ele>591.35827636719</ele>
        <time>2020-07-18T19:11:59.171Z</time>
      </trkpt>
      <trkpt lat="45.99217" lon="3.04539">
        <ele>593.56701660156</ele>
        <time>2020-07-18T19:12:03.440Z</time>
      </trkpt>
      <trkpt lat="45.99211" lon="3.04518">
        <ele>594.28686523438</ele>
        <time>2020-07-18T19:12:07.712Z</time>
      </trkpt>
      <trkpt lat="45.99202" lon="3.04505">
        <ele>594.97180175781</ele>
        <time>2020-07-18T19:12:11.986Z</time>
      </trkpt>
      <trkpt lat="45.9917" lon="3.04484">
        <ele>596.87951660156</ele>
        <time>2020-07-18T19:12:16.265Z</time>
      </trkpt>
      <trkpt lat="45.99153" lon="3.04472">
        <ele>597.92333984375</ele>
        <time>2020-07-18T19:12:20.548Z</time>
      </trkpt>
      <trkpt lat="45.99138" lon="3.04457">
        <ele>598.87487792969</ele>
        <time>2020-07-18T19:12:24.833Z</time>
      </trkpt>
      <trkpt lat="45.9912" lon="3.04435">
        <ele>599.66674804688</ele>
        <time>2020-07-18T19:12:29.122Z</time>
      </trkpt>
      <trkpt lat="45.99104" lon="3.04411">
        <ele>600.53057861328</ele>
        <time>2020-07-18T19:12:33.415Z</time>
      </trkpt>
      <trkpt lat="45.99085" lon="3.04379">
        <ele>601.68237304688</ele>
        <time>2020-07-18T19:12:37.713Z</time>
      </trkpt>
      <trkpt lat="45.99066" lon="3.04361">
        <ele>602.33026123047</ele>
        <time>2020-07-18T19:12:42.014Z</time>
      </trkpt>
      <trkpt lat="45.99043" lon="3.04333">
        <ele>602.63482666016</ele>
        <time>2020-07-18T19:12:46.320Z</time>
      </trkpt>
      <trkpt lat="45.99025" lon="3.04316">
        <ele>602.20294189453</ele>
        <time>2020-07-18T19:12:50.630Z</time>
      </trkpt>
      <trkpt lat="45.99021" lon="3.04306">
        <ele>602.10693359375</ele>
        <time>2020-07-18T19:12:54.941Z</time>
      </trkpt>
      <trkpt lat="45.99019" lon="3.04297">
        <ele>602.05895996094</ele>
        <time>2020-07-18T19:12:59.253Z</time>
      </trkpt>
      <trkpt lat="45.99015" lon="3.04219">
        <ele>605.32629394531</ele>
        <time>2020-07-18T19:13:03.574Z</time>
      </trkpt>
      <trkpt lat="45.9901" lon="3.04124">
        <ele>612.82684326172</ele>
        <time>2020-07-18T19:13:07.905Z</time>
      </trkpt>
      <trkpt lat="45.99008" lon="3.04111">
        <ele>613.19879150391</ele>
        <time>2020-07-18T19:13:12.238Z</time>
      </trkpt>
      <trkpt lat="45.99003" lon="3.04102">
        <ele>613.8466796875</ele>
        <time>2020-07-18T19:13:16.572Z</time>
      </trkpt>
      <trkpt lat="45.99009" lon="3.0409">
        <ele>613.48388671875</ele>
        <time>2020-07-18T19:13:20.908Z</time>
      </trkpt>
      <trkpt lat="45.9902" lon="3.04067">
        <ele>613.95178222656</ele>
        <time>2020-07-18T19:13:25.247Z</time>
      </trkpt>
      <trkpt lat="45.99026" lon="3.04048">
        <ele>614.08929443359</ele>
        <time>2020-07-18T19:13:29.588Z</time>
      </trkpt>
      <trkpt lat="45.99031" lon="3.04017">
        <ele>614.05328369141</ele>
        <time>2020-07-18T19:13:33.933Z</time>
      </trkpt>
      <trkpt lat="45.99033" lon="3.03968">
        <ele>614.8408203125</ele>
        <time>2020-07-18T19:13:38.283Z</time>
      </trkpt>
      <trkpt lat="45.99039" lon="3.03909">
        <ele>613.88885498047</ele>
        <time>2020-07-18T19:13:42.640Z</time>
      </trkpt>
      <trkpt lat="45.99076" lon="3.03796">
        <ele>613.17333984375</ele>
        <time>2020-07-18T19:13:47.011Z</time>
      </trkpt>
      <trkpt lat="45.99116" lon="3.03624">
        <ele>613.75952148438</ele>
        <time>2020-07-18T19:13:51.402Z</time>
      </trkpt>
      <trkpt lat="45.99144" lon="3.03528">
        <ele>612.70935058594</ele>
        <time>2020-07-18T19:13:55.805Z</time>
      </trkpt>
      <trkpt lat="45.99178" lon="3.03419">
        <ele>617.61773681641</ele>
        <time>2020-07-18T19:14:00.221Z</time>
      </trkpt>
      <trkpt lat="45.99196" lon="3.03363">
        <ele>618.35784912109</ele>
        <time>2020-07-18T19:14:04.644Z</time>
      </trkpt>
      <trkpt lat="45.99205" lon="3.0334">
        <ele>617.55828857422</ele>
        <time>2020-07-18T19:14:09.070Z</time>
      </trkpt>
      <trkpt lat="45.99222" lon="3.03307">
        <ele>615.54388427734</ele>
        <time>2020-07-18T19:14:13.500Z</time>
      </trkpt>
      <trkpt lat="45.9925" lon="3.0327">
        <ele>614.26226806641</ele>
        <time>2020-07-18T19:14:17.936Z</time>
      </trkpt>
      <trkpt lat="45.99281" lon="3.03241">
        <ele>614.16625976562</ele>
        <time>2020-07-18T19:14:22.378Z</time>
      </trkpt>
      <trkpt lat="45.99313" lon="3.03214">
        <ele>612.02648925781</ele>
        <time>2020-07-18T19:14:26.826Z</time>
      </trkpt>
      <trkpt lat="45.99332" lon="3.03202">
        <ele>610.11877441406</ele>
        <time>2020-07-18T19:14:31.278Z</time>
      </trkpt>
      <trkpt lat="45.99359" lon="3.03188">
        <ele>609.20812988281</ele>
        <time>2020-07-18T19:14:35.734Z</time>
      </trkpt>
      <trkpt lat="45.99384" lon="3.03178">
        <ele>608.30822753906</ele>
        <time>2020-07-18T19:14:40.194Z</time>
      </trkpt>
      <trkpt lat="45.99413" lon="3.03176">
        <ele>607.20190429688</ele>
        <time>2020-07-18T19:14:44.659Z</time>
      </trkpt>
      <trkpt lat="45.9945" lon="3.03177">
        <ele>605.81011962891</ele>
        <time>2020-07-18T19:14:49.130Z</time>
      </trkpt>
      <trkpt lat="45.99471" lon="3.03171">
        <ele>605.40026855469</ele>
        <time>2020-07-18T19:14:53.604Z</time>
      </trkpt>
      <trkpt lat="45.99479" lon="3.03165">
        <ele>605.33056640625</ele>
        <time>2020-07-18T19:14:58.080Z</time>
      </trkpt>
      <trkpt lat="45.99496" lon="3.03146">
        <ele>605.81048583984</ele>
        <time>2020-07-18T19:15:02.559Z</time>
      </trkpt>
      <trkpt lat="45.99507" lon="3.03125">
        <ele>606.43438720703</ele>
        <time>2020-07-18T19:15:07.041Z</time>
      </trkpt>
      <trkpt lat="45.99522" lon="3.03089">
        <ele>606.94750976562</ele>
        <time>2020-07-18T19:15:11.528Z</time>
      </trkpt>
      <trkpt lat="45.99527" lon="3.03068">
        <ele>607.33142089844</ele>
        <time>2020-07-18T19:15:16.017Z</time>
      </trkpt>
      <trkpt lat="45.9953" lon="3.03037">
        <ele>608.00329589844</ele>
        <time>2020-07-18T19:15:20.510Z</time>
      </trkpt>
      <trkpt lat="45.9953" lon="3.02992">
        <ele>609.48718261719</ele>
        <time>2020-07-18T19:15:25.008Z</time>
      </trkpt>
      <trkpt lat="45.99528" lon="3.02948">
        <ele>610.54766845703</ele>
        <time>2020-07-18T19:15:29.511Z</time>
      </trkpt>
      <trkpt lat="45.99531" lon="3.02914">
        <ele>610.63775634766</ele>
        <time>2020-07-18T19:15:34.018Z</time>
      </trkpt>
      <trkpt lat="45.99531" lon="3.02904">
        <ele>610.63775634766</ele>
        <time>2020-07-18T19:15:38.526Z</time>
      </trkpt>
      <trkpt lat="45.99521" lon="3.02837">
        <ele>610.00927734375</ele>
        <time>2020-07-18T19:15:43.041Z</time>
      </trkpt>
      <trkpt lat="45.99519" lon="3.02811">
        <ele>609.55334472656</ele>
        <time>2020-07-18T19:15:47.559Z</time>
      </trkpt>
      <trkpt lat="45.9952" lon="3.02788">
        <ele>609.10754394531</ele>
        <time>2020-07-18T19:15:52.080Z</time>
      </trkpt>
      <trkpt lat="45.99521" lon="3.0274">
        <ele>607.78308105469</ele>
        <time>2020-07-18T19:15:56.606Z</time>
      </trkpt>
      <trkpt lat="45.99524" lon="3.02724">
        <ele>606.79327392578</ele>
        <time>2020-07-18T19:16:01.134Z</time>
      </trkpt>
      <trkpt lat="45.99538" lon="3.02684">
        <ele>603.21789550781</ele>
        <time>2020-07-18T19:16:05.667Z</time>
      </trkpt>
      <trkpt lat="45.99542" lon="3.02662">
        <ele>601.40081787109</ele>
        <time>2020-07-18T19:16:10.203Z</time>
      </trkpt>
      <trkpt lat="45.9954" lon="3.02641">
        <ele>600.63830566406</ele>
        <time>2020-07-18T19:16:14.741Z</time>
      </trkpt>
      <trkpt lat="45.9951" lon="3.02559">
        <ele>599.12652587891</ele>
        <time>2020-07-18T19:16:19.289Z</time>
      </trkpt>
      <trkpt lat="45.99475" lon="3.02491">
        <ele>599.42663574219</ele>
        <time>2020-07-18T19:16:23.847Z</time>
      </trkpt>
      <trkpt lat="45.99443" lon="3.02434">
        <ele>599.64367675781</ele>
        <time>2020-07-18T19:16:28.413Z</time>
      </trkpt>
      <trkpt lat="45.99436" lon="3.02402">
        <ele>600.72131347656</ele>
        <time>2020-07-18T19:16:32.983Z</time>
      </trkpt>
      <trkpt lat="45.99429" lon="3.0236">
        <ele>602.95184326172</ele>
        <time>2020-07-18T19:16:37.557Z</time>
      </trkpt>
      <trkpt lat="45.99428" lon="3.02326">
        <ele>605.53216552734</ele>
        <time>2020-07-18T19:16:42.135Z</time>
      </trkpt>
      <trkpt lat="45.99429" lon="3.02286">
        <ele>608.83032226562</ele>
        <time>2020-07-18T19:16:46.718Z</time>
      </trkpt>
      <trkpt lat="45.99433" lon="3.02246">
        <ele>611.59674072266</ele>
        <time>2020-07-18T19:16:51.305Z</time>
      </trkpt>
      <trkpt lat="45.99447" lon="3.02201">
        <ele>614.07116699219</ele>
        <time>2020-07-18T19:16:55.898Z</time>
      </trkpt>
      <trkpt lat="45.99461" lon="3.02154">
        <ele>616.42376708984</ele>
        <time>2020-07-18T19:17:00.496Z</time>
      </trkpt>
      <trkpt lat="45.99459" lon="3.0215">
        <ele>616.49572753906</ele>
        <time>2020-07-18T19:17:05.095Z</time>
      </trkpt>
      <trkpt lat="45.99454" lon="3.0213">
        <ele>616.79571533203</ele>
        <time>2020-07-18T19:17:09.696Z</time>
      </trkpt>
      <trkpt lat="45.99448" lon="3.02106">
        <ele>617.15563964844</ele>
        <time>2020-07-18T19:17:14.300Z</time>
      </trkpt>
      <trkpt lat="45.99442" lon="3.02088">
        <ele>617.49182128906</ele>
        <time>2020-07-18T19:17:18.906Z</time>
      </trkpt>
      <trkpt lat="45.99421" lon="3.02041">
        <ele>618.87158203125</ele>
        <time>2020-07-18T19:17:23.519Z</time>
      </trkpt>
      <trkpt lat="45.99398" lon="3.02003">
        <ele>620.07672119141</ele>
        <time>2020-07-18T19:17:28.137Z</time>
      </trkpt>
      <trkpt lat="45.99381" lon="3.01965">
        <ele>619.87274169922</ele>
        <time>2020-07-18T19:17:32.760Z</time>
      </trkpt>
      <trkpt lat="45.99366" lon="3.01936">
        <ele>619.69281005859</ele>
        <time>2020-07-18T19:17:37.387Z</time>
      </trkpt>
      <trkpt lat="45.99358" lon="3.01925">
        <ele>619.59289550781</ele>
        <time>2020-07-18T19:17:42.016Z</time>
      </trkpt>
      <trkpt lat="45.99349" lon="3.01923">
        <ele>619.4609375</ele>
        <time>2020-07-18T19:17:46.646Z</time>
      </trkpt>
      <trkpt lat="45.99344" lon="3.01921">
        <ele>619.376953125</ele>
        <time>2020-07-18T19:17:51.277Z</time>
      </trkpt>
      <trkpt lat="45.99328" lon="3.01906">
        <ele>619.00500488281</ele>
        <time>2020-07-18T19:17:55.911Z</time>
      </trkpt>
      <trkpt lat="45.99312" lon="3.01885">
        <ele>618.56109619141</ele>
        <time>2020-07-18T19:18:00.549Z</time>
      </trkpt>
      <trkpt lat="45.99281" lon="3.01835">
        <ele>617.09478759766</ele>
        <time>2020-07-18T19:18:05.194Z</time>
      </trkpt>
      <trkpt lat="45.99365" lon="3.01617">
        <ele>622.22485351562</ele>
        <time>2020-07-18T19:18:09.867Z</time>
      </trkpt>
      <trkpt lat="45.99367" lon="3.01619">
        <ele>622.39764404297</ele>
        <time>2020-07-18T19:18:14.540Z</time>
      </trkpt>
      <trkpt lat="45.99431" lon="3.01452">
        <ele>628.87884521484</ele>
        <time>2020-07-18T19:18:19.235Z</time>
      </trkpt>
      <trkpt lat="45.99449" lon="3.0141">
        <ele>631.36242675781</ele>
        <time>2020-07-18T19:18:23.935Z</time>
      </trkpt>
      <trkpt lat="45.99526" lon="3.01218">
        <ele>635.30035400391</ele>
        <time>2020-07-18T19:18:28.660Z</time>
      </trkpt>
      <trkpt lat="45.99549" lon="3.01154">
        <ele>639.56927490234</ele>
        <time>2020-07-18T19:18:33.393Z</time>
      </trkpt>
      <trkpt lat="45.99615" lon="3.00929">
        <ele>641.63702392578</ele>
        <time>2020-07-18T19:18:38.153Z</time>
      </trkpt>
      <trkpt lat="45.99643" lon="3.00812">
        <ele>641.30413818359</ele>
        <time>2020-07-18T19:18:42.927Z</time>
      </trkpt>
      <trkpt lat="45.99662" lon="3.00714">
        <ele>639.97021484375</ele>
        <time>2020-07-18T19:18:47.712Z</time>
      </trkpt>
      <trkpt lat="45.9967" lon="3.00695">
        <ele>639.22271728516</ele>
        <time>2020-07-18T19:18:52.500Z</time>
      </trkpt>
      <trkpt lat="45.9968" lon="3.00678">
        <ele>638.24847412109</ele>
        <time>2020-07-18T19:18:57.290Z</time>
      </trkpt>
      <trkpt lat="45.99702" lon="3.0066">
        <ele>636.64813232422</ele>
        <time>2020-07-18T19:19:02.084Z</time>
      </trkpt>
      <trkpt lat="45.99737" lon="3.00645">
        <ele>633.93286132812</ele>
        <time>2020-07-18T19:19:06.884Z</time>
      </trkpt>
      <trkpt lat="45.99753" lon="3.00631">
        <ele>632.77624511719</ele>
        <time>2020-07-18T19:19:11.687Z</time>
      </trkpt>
      <trkpt lat="45.99764" lon="3.0061">
        <ele>632.37249755859</ele>
        <time>2020-07-18T19:19:16.493Z</time>
      </trkpt>
      <trkpt lat="45.99769" lon="3.00584">
        <ele>632.31927490234</ele>
        <time>2020-07-18T19:19:21.302Z</time>
      </trkpt>
      <trkpt lat="45.99769" lon="3.00559">
        <ele>632.02770996094</ele>
        <time>2020-07-18T19:19:26.114Z</time>
      </trkpt>
      <trkpt lat="45.99766" lon="3.00535">
        <ele>631.84411621094</ele>
        <time>2020-07-18T19:19:30.929Z</time>
      </trkpt>
      <trkpt lat="45.99754" lon="3.0047">
        <ele>631.03039550781</ele>
        <time>2020-07-18T19:19:35.751Z</time>
      </trkpt>
      <trkpt lat="45.99739" lon="3.00422">
        <ele>630.41851806641</ele>
        <time>2020-07-18T19:19:40.579Z</time>
      </trkpt>
      <trkpt lat="45.99665" lon="3.00221">
        <ele>629.70977783203</ele>
        <time>2020-07-18T19:19:45.432Z</time>
      </trkpt>
      <trkpt lat="45.99641" lon="3.00163">
        <ele>629.27087402344</ele>
        <time>2020-07-18T19:19:50.293Z</time>
      </trkpt>
      <trkpt lat="45.99631" lon="3.00145">
        <ele>628.47906494141</ele>
        <time>2020-07-18T19:19:55.156Z</time>
      </trkpt>
      <trkpt lat="45.99607" lon="3.00115">
        <ele>627.21563720703</ele>
        <time>2020-07-18T19:20:00.025Z</time>
      </trkpt>
      <trkpt lat="45.99576" lon="3.0008">
        <ele>626.580078125</ele>
        <time>2020-07-18T19:20:04.900Z</time>
      </trkpt>
      <trkpt lat="45.99567" lon="3.00063">
        <ele>626.79846191406</ele>
        <time>2020-07-18T19:20:09.777Z</time>
      </trkpt>
      <trkpt lat="45.99551" lon="2.99987">
        <ele>626.49279785156</ele>
        <time>2020-07-18T19:20:14.663Z</time>
      </trkpt>
      <trkpt lat="45.99538" lon="2.99904">
        <ele>623.97821044922</ele>
        <time>2020-07-18T19:20:19.559Z</time>
      </trkpt>
      <trkpt lat="45.99527" lon="2.99787">
        <ele>619.41351318359</ele>
        <time>2020-07-18T19:20:24.468Z</time>
      </trkpt>
      <trkpt lat="45.99522" lon="2.99763">
        <ele>618.61682128906</ele>
        <time>2020-07-18T19:20:29.380Z</time>
      </trkpt>
      <trkpt lat="45.99508" lon="2.99734">
        <ele>617.13037109375</ele>
        <time>2020-07-18T19:20:34.295Z</time>
      </trkpt>
      <trkpt lat="45.99502" lon="2.99715">
        <ele>616.06854248047</ele>
        <time>2020-07-18T19:20:39.213Z</time>
      </trkpt>
      <trkpt lat="45.99505" lon="2.99696">
        <ele>615.31970214844</ele>
        <time>2020-07-18T19:20:44.133Z</time>
      </trkpt>
      <trkpt lat="45.99516" lon="2.99688">
        <ele>615.62445068359</ele>
        <time>2020-07-18T19:20:49.055Z</time>
      </trkpt>
      <trkpt lat="45.99548" lon="2.99668">
        <ele>616.12896728516</ele>
        <time>2020-07-18T19:20:53.983Z</time>
      </trkpt>
      <trkpt lat="45.996" lon="2.99622">
        <ele>617.41040039062</ele>
        <time>2020-07-18T19:20:58.920Z</time>
      </trkpt>
      <trkpt lat="45.99628" lon="2.99599">
        <ele>619.22448730469</ele>
        <time>2020-07-18T19:21:03.862Z</time>
      </trkpt>
      <trkpt lat="45.99638" lon="2.99593">
        <ele>619.83996582031</ele>
        <time>2020-07-18T19:21:08.806Z</time>
      </trkpt>
      <trkpt lat="45.9965" lon="2.99591">
        <ele>619.87573242188</ele>
        <time>2020-07-18T19:21:13.752Z</time>
      </trkpt>
      <trkpt lat="45.99663" lon="2.99592">
        <ele>619.73663330078</ele>
        <time>2020-07-18T19:21:18.700Z</time>
      </trkpt>
      <trkpt lat="45.99752" lon="2.99617">
        <ele>616.41741943359</ele>
        <time>2020-07-18T19:21:23.663Z</time>
      </trkpt>
      <trkpt lat="45.99764" lon="2.99618">
        <ele>615.11566162109</ele>
        <time>2020-07-18T19:21:28.628Z</time>
      </trkpt>
      <trkpt lat="45.99785" lon="2.99609">
        <ele>612.77722167969</ele>
        <time>2020-07-18T19:21:33.596Z</time>
      </trkpt>
      <trkpt lat="45.998" lon="2.9958">
        <ele>610.75769042969</ele>
        <time>2020-07-18T19:21:38.568Z</time>
      </trkpt>
      <trkpt lat="45.99812" lon="2.99531">
        <ele>610.25579833984</ele>
        <time>2020-07-18T19:21:43.546Z</time>
      </trkpt>
      <trkpt lat="45.99825" lon="2.99494">
        <ele>609.98980712891</ele>
        <time>2020-07-18T19:21:48.529Z</time>
      </trkpt>
      <trkpt lat="45.99845" lon="2.9947">
        <ele>608.83081054688</ele>
        <time>2020-07-18T19:21:53.516Z</time>
      </trkpt>
      <trkpt lat="45.99862" lon="2.99463">
        <ele>608.29406738281</ele>
        <time>2020-07-18T19:21:58.506Z</time>
      </trkpt>
      <trkpt lat="45.99913" lon="2.99449">
        <ele>606.71710205078</ele>
        <time>2020-07-18T19:22:03.504Z</time>
      </trkpt>
      <trkpt lat="46.00005" lon="2.99401">
        <ele>608.61737060547</ele>
        <time>2020-07-18T19:22:08.518Z</time>
      </trkpt>
      <trkpt lat="46.00068" lon="2.99376">
        <ele>610.06237792969</ele>
        <time>2020-07-18T19:22:13.542Z</time>
      </trkpt>
      <trkpt lat="46.00105" lon="2.99363">
        <ele>609.66607666016</ele>
        <time>2020-07-18T19:22:18.572Z</time>
      </trkpt>
      <trkpt lat="46.00121" lon="2.99361">
        <ele>608.87420654297</ele>
        <time>2020-07-18T19:22:23.605Z</time>
      </trkpt>
      <trkpt lat="46.00137" lon="2.99363">
        <ele>607.73199462891</ele>
        <time>2020-07-18T19:22:28.640Z</time>
      </trkpt>
      <trkpt lat="46.00161" lon="2.99375">
        <ele>606.62872314453</ele>
        <time>2020-07-18T19:22:33.679Z</time>
      </trkpt>
      <trkpt lat="46.00279" lon="2.99446">
        <ele>599.92144775391</ele>
        <time>2020-07-18T19:22:38.739Z</time>
      </trkpt>
      <trkpt lat="46.00307" lon="2.99459">
        <ele>598.15289306641</ele>
        <time>2020-07-18T19:22:43.804Z</time>
      </trkpt>
      <trkpt lat="46.00328" lon="2.99463">
        <ele>597.13220214844</ele>
        <time>2020-07-18T19:22:48.872Z</time>
      </trkpt>
      <trkpt lat="46.0039" lon="2.99465">
        <ele>593.18908691406</ele>
        <time>2020-07-18T19:22:53.950Z</time>
      </trkpt>
      <trkpt lat="46.00412" lon="2.99472">
        <ele>592.49725341797</ele>
        <time>2020-07-18T19:22:59.031Z</time>
      </trkpt>
      <trkpt lat="46.00454" lon="2.99495">
        <ele>590.90032958984</ele>
        <time>2020-07-18T19:23:04.120Z</time>
      </trkpt>
      <trkpt lat="46.00488" lon="2.99505">
        <ele>589.20928955078</ele>
        <time>2020-07-18T19:23:09.214Z</time>
      </trkpt>
      <trkpt lat="46.00536" lon="2.99511">
        <ele>586.10772705078</ele>
        <time>2020-07-18T19:23:14.316Z</time>
      </trkpt>
      <trkpt lat="46.00571" lon="2.99511">
        <ele>584.13806152344</ele>
        <time>2020-07-18T19:23:19.423Z</time>
      </trkpt>
      <trkpt lat="46.00591" lon="2.99496">
        <ele>583.42425537109</ele>
        <time>2020-07-18T19:23:24.534Z</time>
      </trkpt>
      <trkpt lat="46.00601" lon="2.99469">
        <ele>582.94915771484</ele>
        <time>2020-07-18T19:23:29.649Z</time>
      </trkpt>
      <trkpt lat="46.00602" lon="2.99437">
        <ele>584.80047607422</ele>
        <time>2020-07-18T19:23:34.767Z</time>
      </trkpt>
      <trkpt lat="46.00595" lon="2.99407">
        <ele>584.36047363281</ele>
        <time>2020-07-18T19:23:39.889Z</time>
      </trkpt>
      <trkpt lat="46.00579" lon="2.99384">
        <ele>582.76348876953</ele>
        <time>2020-07-18T19:23:45.014Z</time>
      </trkpt>
      <trkpt lat="46.00443" lon="2.99273">
        <ele>574.20379638672</ele>
        <time>2020-07-18T19:23:50.164Z</time>
      </trkpt>
      <trkpt lat="46.00426" lon="2.99246">
        <ele>572.41802978516</ele>
        <time>2020-07-18T19:23:55.318Z</time>
      </trkpt>
      <trkpt lat="46.00411" lon="2.99197">
        <ele>566.20428466797</ele>
        <time>2020-07-18T19:24:00.478Z</time>
      </trkpt>
      <trkpt lat="46.0038" lon="2.99124">
        <ele>560.92846679688</ele>
        <time>2020-07-18T19:24:05.648Z</time>
      </trkpt>
      <trkpt lat="46.00336" lon="2.99034">
        <ele>556.33703613281</ele>
        <time>2020-07-18T19:24:10.830Z</time>
      </trkpt>
      <trkpt lat="46.0029" lon="2.98919">
        <ele>548.13610839844</ele>
        <time>2020-07-18T19:24:16.027Z</time>
      </trkpt>
      <trkpt lat="46.00272" lon="2.98893">
        <ele>547.13427734375</ele>
        <time>2020-07-18T19:24:21.228Z</time>
      </trkpt>
      <trkpt lat="46.00248" lon="2.98885">
        <ele>550.00537109375</ele>
        <time>2020-07-18T19:24:26.433Z</time>
      </trkpt>
      <trkpt lat="46.00222" lon="2.98882">
        <ele>553.73248291016</ele>
        <time>2020-07-18T19:24:31.642Z</time>
      </trkpt>
      <trkpt lat="46.002" lon="2.98861">
        <ele>553.58129882812</ele>
        <time>2020-07-18T19:24:36.855Z</time>
      </trkpt>
      <trkpt lat="46.0019" lon="2.98827">
        <ele>549.76116943359</ele>
        <time>2020-07-18T19:24:42.073Z</time>
      </trkpt>
      <trkpt lat="46.00184" lon="2.98792">
        <ele>544.39453125</ele>
        <time>2020-07-18T19:24:47.295Z</time>
      </trkpt>
      <trkpt lat="46.00172" lon="2.9876">
        <ele>539.544921875</ele>
        <time>2020-07-18T19:24:52.521Z</time>
      </trkpt>
      <trkpt lat="46.00153" lon="2.98733">
        <ele>538.41973876953</ele>
        <time>2020-07-18T19:24:57.751Z</time>
      </trkpt>
      <trkpt lat="46.00123" lon="2.98694">
        <ele>538.04302978516</ele>
        <time>2020-07-18T19:25:02.987Z</time>
      </trkpt>
      <trkpt lat="46.00106" lon="2.98662">
        <ele>536.40661621094</ele>
        <time>2020-07-18T19:25:08.228Z</time>
      </trkpt>
      <trkpt lat="46.00093" lon="2.98627">
        <ele>534.77972412109</ele>
        <time>2020-07-18T19:25:13.473Z</time>
      </trkpt>
      <trkpt lat="46.00053" lon="2.98545">
        <ele>531.18322753906</ele>
        <time>2020-07-18T19:25:18.729Z</time>
      </trkpt>
      <trkpt lat="46.00039" lon="2.98508">
        <ele>527.66107177734</ele>
        <time>2020-07-18T19:25:23.990Z</time>
      </trkpt>
      <trkpt lat="46.00014" lon="2.98458">
        <ele>522.85144042969</ele>
        <time>2020-07-18T19:25:29.258Z</time>
      </trkpt>
      <trkpt lat="45.99995" lon="2.98429">
        <ele>521.35168457031</ele>
        <time>2020-07-18T19:25:34.530Z</time>
      </trkpt>
      <trkpt lat="45.99974" lon="2.98405">
        <ele>520.95098876953</ele>
        <time>2020-07-18T19:25:39.807Z</time>
      </trkpt>
      <trkpt lat="45.99938" lon="2.98394">
        <ele>523.15747070312</ele>
        <time>2020-07-18T19:25:45.090Z</time>
      </trkpt>
      <trkpt lat="45.99914" lon="2.98391">
        <ele>524.89959716797</ele>
        <time>2020-07-18T19:25:50.376Z</time>
      </trkpt>
      <trkpt lat="45.99897" lon="2.9837">
        <ele>524.30450439453</ele>
        <time>2020-07-18T19:25:55.666Z</time>
      </trkpt>
      <trkpt lat="45.99898" lon="2.98325">
        <ele>523.73059082031</ele>
        <time>2020-07-18T19:26:00.961Z</time>
      </trkpt>
      <trkpt lat="45.99922" lon="2.98296">
        <ele>525.60705566406</ele>
        <time>2020-07-18T19:26:06.261Z</time>
      </trkpt>
      <trkpt lat="45.9994" lon="2.98277">
        <ele>523.43280029297</ele>
        <time>2020-07-18T19:26:11.565Z</time>
      </trkpt>
      <trkpt lat="45.99971" lon="2.98256">
        <ele>517.76861572266</ele>
        <time>2020-07-18T19:26:16.874Z</time>
      </trkpt>
      <trkpt lat="46.00006" lon="2.98243">
        <ele>514.78851318359</ele>
        <time>2020-07-18T19:26:22.189Z</time>
      </trkpt>
      <trkpt lat="46.00027" lon="2.98228">
        <ele>513.45428466797</ele>
        <time>2020-07-18T19:26:27.508Z</time>
      </trkpt>
      <trkpt lat="46.00044" lon="2.98204">
        <ele>510.61059570312</ele>
        <time>2020-07-18T19:26:32.831Z</time>
      </trkpt>
      <trkpt lat="46.00059" lon="2.98178">
        <ele>508.0617980957</ele>
        <time>2020-07-18T19:26:38.157Z</time>
      </trkpt>
      <trkpt lat="46.00089" lon="2.98111">
        <ele>510.84588623047</ele>
        <time>2020-07-18T19:26:43.492Z</time>
      </trkpt>
      <trkpt lat="46.0011" lon="2.98048">
        <ele>517.75714111328</ele>
        <time>2020-07-18T19:26:48.835Z</time>
      </trkpt>
      <trkpt lat="46.00116" lon="2.98014">
        <ele>520.90545654297</ele>
        <time>2020-07-18T19:26:54.182Z</time>
      </trkpt>
      <trkpt lat="46.00118" lon="2.97993">
        <ele>522.54083251953</ele>
        <time>2020-07-18T19:26:59.531Z</time>
      </trkpt>
      <trkpt lat="46.00118" lon="2.97974">
        <ele>523.23400878906</ele>
        <time>2020-07-18T19:27:04.882Z</time>
      </trkpt>
      <trkpt lat="46.00115" lon="2.97956">
        <ele>523.14764404297</ele>
        <time>2020-07-18T19:27:10.235Z</time>
      </trkpt>
      <trkpt lat="46.00106" lon="2.97924">
        <ele>522.26708984375</ele>
        <time>2020-07-18T19:27:15.592Z</time>
      </trkpt>
      <trkpt lat="46.00095" lon="2.97903">
        <ele>524.35955810547</ele>
        <time>2020-07-18T19:27:20.952Z</time>
      </trkpt>
      <trkpt lat="46.00078" lon="2.97879">
        <ele>525.45373535156</ele>
        <time>2020-07-18T19:27:26.316Z</time>
      </trkpt>
      <trkpt lat="45.99863" lon="2.97679">
        <ele>518.58837890625</ele>
        <time>2020-07-18T19:27:31.721Z</time>
      </trkpt>
      <trkpt lat="45.99844" lon="2.9766">
        <ele>520.01550292969</ele>
        <time>2020-07-18T19:27:37.130Z</time>
      </trkpt>
      <trkpt lat="45.99828" lon="2.97639">
        <ele>522.05157470703</ele>
        <time>2020-07-18T19:27:42.542Z</time>
      </trkpt>
      <trkpt lat="45.99746" lon="2.97481">
        <ele>531.38946533203</ele>
        <time>2020-07-18T19:27:47.976Z</time>
      </trkpt>
      <trkpt lat="45.99707" lon="2.97389">
        <ele>533.57379150391</ele>
        <time>2020-07-18T19:27:53.422Z</time>
      </trkpt>
      <trkpt lat="45.99692" lon="2.97351">
        <ele>533.25579833984</ele>
        <time>2020-07-18T19:27:58.873Z</time>
      </trkpt>
      <trkpt lat="45.99675" lon="2.97298">
        <ele>532.06823730469</ele>
        <time>2020-07-18T19:28:04.331Z</time>
      </trkpt>
      <trkpt lat="45.99672" lon="2.97277">
        <ele>532.08184814453</ele>
        <time>2020-07-18T19:28:09.791Z</time>
      </trkpt>
      <trkpt lat="45.99675" lon="2.97257">
        <ele>533.11657714844</ele>
        <time>2020-07-18T19:28:15.253Z</time>
      </trkpt>
      <trkpt lat="45.99684" lon="2.97232">
        <ele>535.16821289062</ele>
        <time>2020-07-18T19:28:20.718Z</time>
      </trkpt>
      <trkpt lat="45.99691" lon="2.97223">
        <ele>536.53656005859</ele>
        <time>2020-07-18T19:28:26.185Z</time>
      </trkpt>
      <trkpt lat="45.99722" lon="2.97193">
        <ele>541.03576660156</ele>
        <time>2020-07-18T19:28:31.658Z</time>
      </trkpt>
      <trkpt lat="45.99727" lon="2.97185">
        <ele>541.70758056641</ele>
        <time>2020-07-18T19:28:37.132Z</time>
      </trkpt>
      <trkpt lat="45.99731" lon="2.97176">
        <ele>542.27740478516</ele>
        <time>2020-07-18T19:28:42.607Z</time>
      </trkpt>
      <trkpt lat="45.99732" lon="2.97155">
        <ele>542.31103515625</ele>
        <time>2020-07-18T19:28:48.085Z</time>
      </trkpt>
      <trkpt lat="45.99731" lon="2.97145">
        <ele>541.94024658203</ele>
        <time>2020-07-18T19:28:53.564Z</time>
      </trkpt>
      <trkpt lat="45.99724" lon="2.97121">
        <ele>540.24926757812</ele>
        <time>2020-07-18T19:28:59.046Z</time>
      </trkpt>
      <trkpt lat="45.99725" lon="2.971">
        <ele>540.17535400391</ele>
        <time>2020-07-18T19:29:04.530Z</time>
      </trkpt>
      <trkpt lat="45.99738" lon="2.97067">
        <ele>542.87054443359</ele>
        <time>2020-07-18T19:29:10.018Z</time>
      </trkpt>
      <trkpt lat="45.99744" lon="2.97055">
        <ele>544.37628173828</ele>
        <time>2020-07-18T19:29:15.508Z</time>
      </trkpt>
      <trkpt lat="45.99768" lon="2.97023">
        <ele>550.33453369141</ele>
        <time>2020-07-18T19:29:21.003Z</time>
      </trkpt>
      <trkpt lat="45.99776" lon="2.97005">
        <ele>551.99237060547</ele>
        <time>2020-07-18T19:29:26.500Z</time>
      </trkpt>
      <trkpt lat="45.99782" lon="2.96979">
        <ele>553.75128173828</ele>
        <time>2020-07-18T19:29:32.001Z</time>
      </trkpt>
      <trkpt lat="45.998" lon="2.96865">
        <ele>555.96905517578</ele>
        <time>2020-07-18T19:29:37.515Z</time>
      </trkpt>
      <trkpt lat="45.99806" lon="2.96844">
        <ele>556.59655761719</ele>
        <time>2020-07-18T19:29:43.031Z</time>
      </trkpt>
      <trkpt lat="45.99827" lon="2.96804">
        <ele>558.63879394531</ele>
        <time>2020-07-18T19:29:48.553Z</time>
      </trkpt>
      <trkpt lat="45.99846" lon="2.96775">
        <ele>560.66394042969</ele>
        <time>2020-07-18T19:29:54.079Z</time>
      </trkpt>
      <trkpt lat="45.99867" lon="2.96739">
        <ele>564.56988525391</ele>
        <time>2020-07-18T19:29:59.610Z</time>
      </trkpt>
      <trkpt lat="45.99884" lon="2.96693">
        <ele>560.25280761719</ele>
        <time>2020-07-18T19:30:05.147Z</time>
      </trkpt>
      <trkpt lat="45.99915" lon="2.96626">
        <ele>557.11254882812</ele>
        <time>2020-07-18T19:30:10.693Z</time>
      </trkpt>
      <trkpt lat="45.99925" lon="2.96606">
        <ele>555.64782714844</ele>
        <time>2020-07-18T19:30:16.242Z</time>
      </trkpt>
      <trkpt lat="45.99936" lon="2.96594">
        <ele>554.72399902344</ele>
        <time>2020-07-18T19:30:21.793Z</time>
      </trkpt>
      <trkpt lat="45.99959" lon="2.96575">
        <ele>557.63153076172</ele>
        <time>2020-07-18T19:30:27.348Z</time>
      </trkpt>
      <trkpt lat="45.99968" lon="2.96572">
        <ele>557.69360351562</ele>
        <time>2020-07-18T19:30:32.905Z</time>
      </trkpt>
      <trkpt lat="45.99976" lon="2.96573">
        <ele>558.01104736328</ele>
        <time>2020-07-18T19:30:38.463Z</time>
      </trkpt>
      <trkpt lat="45.99991" lon="2.96579">
        <ele>561.55285644531</ele>
        <time>2020-07-18T19:30:44.024Z</time>
      </trkpt>
      <trkpt lat="46.00001" lon="2.96579">
        <ele>563.51092529297</ele>
        <time>2020-07-18T19:30:49.586Z</time>
      </trkpt>
      <trkpt lat="46.0001" lon="2.96574">
        <ele>565.09704589844</ele>
        <time>2020-07-18T19:30:55.150Z</time>
      </trkpt>
      <trkpt lat="46.00019" lon="2.96559">
        <ele>566.04968261719</ele>
        <time>2020-07-18T19:31:00.716Z</time>
      </trkpt>
      <trkpt lat="46.0004" lon="2.96497">
        <ele>566.78967285156</ele>
        <time>2020-07-18T19:31:06.290Z</time>
      </trkpt>
      <trkpt lat="46.00058" lon="2.96456">
        <ele>565.06390380859</ele>
        <time>2020-07-18T19:31:11.869Z</time>
      </trkpt>
      <trkpt lat="46.00074" lon="2.96414">
        <ele>563.90161132812</ele>
        <time>2020-07-18T19:31:17.453Z</time>
      </trkpt>
      <trkpt lat="46.00084" lon="2.96391">
        <ele>564.22674560547</ele>
        <time>2020-07-18T19:31:23.040Z</time>
      </trkpt>
      <trkpt lat="46.00094" lon="2.96379">
        <ele>565.24298095703</ele>
        <time>2020-07-18T19:31:28.629Z</time>
      </trkpt>
      <trkpt lat="46.00118" lon="2.96364">
        <ele>567.03271484375</ele>
        <time>2020-07-18T19:31:34.223Z</time>
      </trkpt>
      <trkpt lat="46.00124" lon="2.96357">
        <ele>567.10827636719</ele>
        <time>2020-07-18T19:31:39.818Z</time>
      </trkpt>
      <trkpt lat="46.0013" lon="2.96347">
        <ele>567.01593017578</ele>
        <time>2020-07-18T19:31:45.414Z</time>
      </trkpt>
      <trkpt lat="46.00135" lon="2.96335">
        <ele>567.67419433594</ele>
        <time>2020-07-18T19:31:51.012Z</time>
      </trkpt>
      <trkpt lat="46.00152" lon="2.96285">
        <ele>568.16394042969</ele>
        <time>2020-07-18T19:31:56.616Z</time>
      </trkpt>
      <trkpt lat="46.00163" lon="2.96273">
        <ele>569.96026611328</ele>
        <time>2020-07-18T19:32:02.222Z</time>
      </trkpt>
      <trkpt lat="46.00193" lon="2.96248">
        <ele>575.60388183594</ele>
        <time>2020-07-18T19:32:07.834Z</time>
      </trkpt>
      <trkpt lat="46.00201" lon="2.96239">
        <ele>577.46954345703</ele>
        <time>2020-07-18T19:32:13.447Z</time>
      </trkpt>
      <trkpt lat="46.00214" lon="2.96218">
        <ele>578.91082763672</ele>
        <time>2020-07-18T19:32:19.064Z</time>
      </trkpt>
      <trkpt lat="46.00234" lon="2.96169">
        <ele>581.34381103516</ele>
        <time>2020-07-18T19:32:24.687Z</time>
      </trkpt>
      <trkpt lat="46.0025" lon="2.96102">
        <ele>582.71899414062</ele>
        <time>2020-07-18T19:32:30.318Z</time>
      </trkpt>
      <trkpt lat="46.0026" lon="2.96072">
        <ele>583.49871826172</ele>
        <time>2020-07-18T19:32:35.953Z</time>
      </trkpt>
      <trkpt lat="46.00274" lon="2.96046">
        <ele>585.06176757812</ele>
        <time>2020-07-18T19:32:41.591Z</time>
      </trkpt>
      <trkpt lat="46.00295" lon="2.96017">
        <ele>582.41259765625</ele>
        <time>2020-07-18T19:32:47.234Z</time>
      </trkpt>
      <trkpt lat="46.00306" lon="2.96006">
        <ele>581.86944580078</ele>
        <time>2020-07-18T19:32:52.879Z</time>
      </trkpt>
      <trkpt lat="46.00314" lon="2.96001">
        <ele>581.66284179688</ele>
        <time>2020-07-18T19:32:58.525Z</time>
      </trkpt>
      <trkpt lat="46.00322" lon="2.95997">
        <ele>581.78039550781</ele>
        <time>2020-07-18T19:33:04.173Z</time>
      </trkpt>
      <trkpt lat="46.00345" lon="2.95993">
        <ele>582.52429199219</ele>
        <time>2020-07-18T19:33:09.824Z</time>
      </trkpt>
      <trkpt lat="46.00382" lon="2.95995">
        <ele>584.44274902344</ele>
        <time>2020-07-18T19:33:15.481Z</time>
      </trkpt>
      <trkpt lat="46.00429" lon="2.96008">
        <ele>586.50817871094</ele>
        <time>2020-07-18T19:33:21.146Z</time>
      </trkpt>
      <trkpt lat="46.00439" lon="2.96009">
        <ele>586.74810791016</ele>
        <time>2020-07-18T19:33:26.813Z</time>
      </trkpt>
      <trkpt lat="46.00448" lon="2.96006">
        <ele>586.52825927734</ele>
        <time>2020-07-18T19:33:32.481Z</time>
      </trkpt>
      <trkpt lat="46.00456" lon="2.96">
        <ele>586.103515625</ele>
        <time>2020-07-18T19:33:38.151Z</time>
      </trkpt>
      <trkpt lat="46.00465" lon="2.95984">
        <ele>585.70831298828</ele>
        <time>2020-07-18T19:33:43.823Z</time>
      </trkpt>
      <trkpt lat="46.00467" lon="2.95971">
        <ele>585.54992675781</ele>
        <time>2020-07-18T19:33:49.496Z</time>
      </trkpt>
      <trkpt lat="46.00467" lon="2.95957">
        <ele>585.19714355469</ele>
        <time>2020-07-18T19:33:55.171Z</time>
      </trkpt>
      <trkpt lat="46.00462" lon="2.9594">
        <ele>584.40289306641</ele>
        <time>2020-07-18T19:34:00.848Z</time>
      </trkpt>
      <trkpt lat="46.00449" lon="2.95923">
        <ele>583.20336914062</ele>
        <time>2020-07-18T19:34:06.528Z</time>
      </trkpt>
      <trkpt lat="46.00423" lon="2.95894">
        <ele>582.33587646484</ele>
        <time>2020-07-18T19:34:12.213Z</time>
      </trkpt>
      <trkpt lat="46.00412" lon="2.95875">
        <ele>582.19555664062</ele>
        <time>2020-07-18T19:34:17.901Z</time>
      </trkpt>
      <trkpt lat="46.00407" lon="2.95864">
        <ele>582.2783203125</ele>
        <time>2020-07-18T19:34:23.590Z</time>
      </trkpt>
      <trkpt lat="46.00404" lon="2.95851">
        <ele>582.5927734375</ele>
        <time>2020-07-18T19:34:29.281Z</time>
      </trkpt>
      <trkpt lat="46.00403" lon="2.9582">
        <ele>583.81353759766</ele>
        <time>2020-07-18T19:34:34.975Z</time>
      </trkpt>
      <trkpt lat="46.00405" lon="2.95808">
        <ele>584.46618652344</ele>
        <time>2020-07-18T19:34:40.671Z</time>
      </trkpt>
      <trkpt lat="46.00413" lon="2.95787">
        <ele>585.97918701172</ele>
        <time>2020-07-18T19:34:46.369Z</time>
      </trkpt>
      <trkpt lat="46.00479" lon="2.95659">
        <ele>594.66455078125</ele>
        <time>2020-07-18T19:34:52.085Z</time>
      </trkpt>
      <trkpt lat="46.00519" lon="2.95606">
        <ele>598.70471191406</ele>
        <time>2020-07-18T19:34:57.810Z</time>
      </trkpt>
      <trkpt lat="46.00562" lon="2.95562">
        <ele>602.06024169922</ele>
        <time>2020-07-18T19:35:03.543Z</time>
      </trkpt>
      <trkpt lat="46.00568" lon="2.95554">
        <ele>602.95892333984</ele>
        <time>2020-07-18T19:35:09.278Z</time>
      </trkpt>
      <trkpt lat="46.00579" lon="2.95535">
        <ele>604.52703857422</ele>
        <time>2020-07-18T19:35:15.015Z</time>
      </trkpt>
      <trkpt lat="46.00585" lon="2.95513">
        <ele>606.51226806641</ele>
        <time>2020-07-18T19:35:20.755Z</time>
      </trkpt>
      <trkpt lat="46.00588" lon="2.95489">
        <ele>607.40069580078</ele>
        <time>2020-07-18T19:35:26.498Z</time>
      </trkpt>
      <trkpt lat="46.00591" lon="2.95374">
        <ele>613.11737060547</ele>
        <time>2020-07-18T19:35:32.254Z</time>
      </trkpt>
      <trkpt lat="46.00589" lon="2.95334">
        <ele>615.29943847656</ele>
        <time>2020-07-18T19:35:38.014Z</time>
      </trkpt>
      <trkpt lat="46.00591" lon="2.95316">
        <ele>616.87237548828</ele>
        <time>2020-07-18T19:35:43.776Z</time>
      </trkpt>
      <trkpt lat="46.00588" lon="2.95311">
        <ele>616.69482421875</ele>
        <time>2020-07-18T19:35:49.539Z</time>
      </trkpt>
      <trkpt lat="46.00586" lon="2.95314">
        <ele>616.15368652344</ele>
        <time>2020-07-18T19:35:55.302Z</time>
      </trkpt>
      <trkpt lat="46.00586" lon="2.95326">
        <ele>615.37261962891</ele>
        <time>2020-07-18T19:36:01.067Z</time>
      </trkpt>
      <trkpt lat="46.00589" lon="2.95366">
        <ele>613.24426269531</ele>
        <time>2020-07-18T19:36:06.836Z</time>
      </trkpt>
      <trkpt lat="46.00591" lon="2.95475">
        <ele>607.99938964844</ele>
        <time>2020-07-18T19:36:12.617Z</time>
      </trkpt>
      <trkpt lat="46.00593" lon="2.95493">
        <ele>608.11456298828</ele>
        <time>2020-07-18T19:36:18.400Z</time>
      </trkpt>
      <trkpt lat="46.00594" lon="2.95491">
        <ele>608.36053466797</ele>
        <time>2020-07-18T19:36:24.184Z</time>
      </trkpt>
      <trkpt lat="46.00594" lon="2.95382">
        <ele>612.96380615234</ele>
        <time>2020-07-18T19:36:29.980Z</time>
      </trkpt>
      <trkpt lat="46.0059" lon="2.95324">
        <ele>616.12487792969</ele>
        <time>2020-07-18T19:36:35.782Z</time>
      </trkpt>
      <trkpt lat="46.00592" lon="2.95313">
        <ele>617.21673583984</ele>
        <time>2020-07-18T19:36:41.586Z</time>
      </trkpt>
      <trkpt lat="46.00597" lon="2.95308">
        <ele>618.39971923828</ele>
        <time>2020-07-18T19:36:47.391Z</time>
      </trkpt>
      <trkpt lat="46.00603" lon="2.95311">
        <ele>619.03680419922</ele>
        <time>2020-07-18T19:36:53.197Z</time>
      </trkpt>
      <trkpt lat="46.00608" lon="2.95318">
        <ele>619.37518310547</ele>
        <time>2020-07-18T19:36:59.004Z</time>
      </trkpt>
      <trkpt lat="46.00625" lon="2.95351">
        <ele>619.67517089844</ele>
        <time>2020-07-18T19:37:04.815Z</time>
      </trkpt>
      <trkpt lat="46.00638" lon="2.95383">
        <ele>619.8779296875</ele>
        <time>2020-07-18T19:37:10.630Z</time>
      </trkpt>
      <trkpt lat="46.00667" lon="2.95429">
        <ele>620.76940917969</ele>
        <time>2020-07-18T19:37:16.452Z</time>
      </trkpt>
      <trkpt lat="46.00699" lon="2.95475">
        <ele>622.37475585938</ele>
        <time>2020-07-18T19:37:22.282Z</time>
      </trkpt>
      <trkpt lat="46.0072" lon="2.95511">
        <ele>623.30053710938</ele>
        <time>2020-07-18T19:37:28.117Z</time>
      </trkpt>
      <trkpt lat="46.00731" lon="2.95537">
        <ele>623.21942138672</ele>
        <time>2020-07-18T19:37:33.955Z</time>
      </trkpt>
      <trkpt lat="46.00763" lon="2.95655">
        <ele>621.3271484375</ele>
        <time>2020-07-18T19:37:39.807Z</time>
      </trkpt>
      <trkpt lat="46.00774" lon="2.9568">
        <ele>621.33636474609</ele>
        <time>2020-07-18T19:37:45.663Z</time>
      </trkpt>
      <trkpt lat="46.00791" lon="2.95704">
        <ele>621.53790283203</ele>
        <time>2020-07-18T19:37:51.523Z</time>
      </trkpt>
      <trkpt lat="46.00869" lon="2.95796">
        <ele>622.98400878906</ele>
        <time>2020-07-18T19:37:57.399Z</time>
      </trkpt>
      <trkpt lat="46.00891" lon="2.95813">
        <ele>623.91748046875</ele>
        <time>2020-07-18T19:38:03.279Z</time>
      </trkpt>
      <trkpt lat="46.00916" lon="2.95824">
        <ele>624.33526611328</ele>
        <time>2020-07-18T19:38:09.163Z</time>
      </trkpt>
      <trkpt lat="46.00954" lon="2.95848">
        <ele>624.26489257812</ele>
        <time>2020-07-18T19:38:15.054Z</time>
      </trkpt>
      <trkpt lat="46.00975" lon="2.95853">
        <ele>624.71002197266</ele>
        <time>2020-07-18T19:38:20.948Z</time>
      </trkpt>
      <trkpt lat="46.01125" lon="2.95872">
        <ele>629.44769287109</ele>
        <time>2020-07-18T19:38:26.866Z</time>
      </trkpt>
      <trkpt lat="46.01146" lon="2.95871">
        <ele>630.22393798828</ele>
        <time>2020-07-18T19:38:32.787Z</time>
      </trkpt>
      <trkpt lat="46.01154" lon="2.95868">
        <ele>630.68463134766</ele>
        <time>2020-07-18T19:38:38.710Z</time>
      </trkpt>
      <trkpt lat="46.01171" lon="2.95859">
        <ele>631.46789550781</ele>
        <time>2020-07-18T19:38:44.636Z</time>
      </trkpt>
      <trkpt lat="46.01181" lon="2.95849">
        <ele>631.69104003906</ele>
        <time>2020-07-18T19:38:50.564Z</time>
      </trkpt>
      <trkpt lat="46.01201" lon="2.95826">
        <ele>632.32696533203</ele>
        <time>2020-07-18T19:38:56.496Z</time>
      </trkpt>
      <trkpt lat="46.01248" lon="2.95766">
        <ele>635.07574462891</ele>
        <time>2020-07-18T19:39:02.438Z</time>
      </trkpt>
      <trkpt lat="46.01272" lon="2.95745">
        <ele>635.85162353516</ele>
        <time>2020-07-18T19:39:08.384Z</time>
      </trkpt>
      <trkpt lat="46.01286" lon="2.95735">
        <ele>635.97882080078</ele>
        <time>2020-07-18T19:39:14.333Z</time>
      </trkpt>
      <trkpt lat="46.01404" lon="2.95677">
        <ele>640.36553955078</ele>
        <time>2020-07-18T19:39:20.302Z</time>
      </trkpt>
      <trkpt lat="46.01428" lon="2.9566">
        <ele>641.00939941406</ele>
        <time>2020-07-18T19:39:26.275Z</time>
      </trkpt>
      <trkpt lat="46.01453" lon="2.95636">
        <ele>642.89422607422</ele>
        <time>2020-07-18T19:39:32.253Z</time>
      </trkpt>
      <trkpt lat="46.0148" lon="2.95614">
        <ele>644.98236083984</ele>
        <time>2020-07-18T19:39:38.236Z</time>
      </trkpt>
      <trkpt lat="46.01492" lon="2.95606">
        <ele>645.93988037109</ele>
        <time>2020-07-18T19:39:44.221Z</time>
      </trkpt>
      <trkpt lat="46.01505" lon="2.95602">
        <ele>645.65191650391</ele>
        <time>2020-07-18T19:39:50.208Z</time>
      </trkpt>
      <trkpt lat="46.01519" lon="2.95601">
        <ele>645.05078125</ele>
        <time>2020-07-18T19:39:56.197Z</time>
      </trkpt>
      <trkpt lat="46.01559" lon="2.95609">
        <ele>642.54479980469</ele>
        <time>2020-07-18T19:40:02.193Z</time>
      </trkpt>
      <trkpt lat="46.01611" lon="2.95603">
        <ele>644.5400390625</ele>
        <time>2020-07-18T19:40:08.197Z</time>
      </trkpt>
      <trkpt lat="46.01643" lon="2.95606">
        <ele>645.12097167969</ele>
        <time>2020-07-18T19:40:14.206Z</time>
      </trkpt>
      <trkpt lat="46.01667" lon="2.95611">
        <ele>645.64221191406</ele>
        <time>2020-07-18T19:40:20.219Z</time>
      </trkpt>
      <trkpt lat="46.01691" lon="2.95618">
        <ele>645.87976074219</ele>
        <time>2020-07-18T19:40:26.236Z</time>
      </trkpt>
      <trkpt lat="46.01734" lon="2.95645">
        <ele>645.96154785156</ele>
        <time>2020-07-18T19:40:32.260Z</time>
      </trkpt>
      <trkpt lat="46.01756" lon="2.95653">
        <ele>646.81701660156</ele>
        <time>2020-07-18T19:40:38.288Z</time>
      </trkpt>
      <trkpt lat="46.01896" lon="2.95682">
        <ele>650.69097900391</ele>
        <time>2020-07-18T19:40:44.339Z</time>
      </trkpt>
      <trkpt lat="46.01924" lon="2.9568">
        <ele>651.51214599609</ele>
        <time>2020-07-18T19:40:50.394Z</time>
      </trkpt>
      <trkpt lat="46.02006" lon="2.95656">
        <ele>654.40264892578</ele>
        <time>2020-07-18T19:40:56.463Z</time>
      </trkpt>
      <trkpt lat="46.02029" lon="2.95652">
        <ele>655.09252929688</ele>
        <time>2020-07-18T19:41:02.535Z</time>
      </trkpt>
      <trkpt lat="46.02056" lon="2.95648">
        <ele>654.74987792969</ele>
        <time>2020-07-18T19:41:08.612Z</time>
      </trkpt>
      <trkpt lat="46.02079" lon="2.9565">
        <ele>655.41833496094</ele>
        <time>2020-07-18T19:41:14.692Z</time>
      </trkpt>
      <trkpt lat="46.02095" lon="2.95654">
        <ele>656.06622314453</ele>
        <time>2020-07-18T19:41:20.775Z</time>
      </trkpt>
      <trkpt lat="46.02136" lon="2.95671">
        <ele>657.73516845703</ele>
        <time>2020-07-18T19:41:26.865Z</time>
      </trkpt>
      <trkpt lat="46.02181" lon="2.95683">
        <ele>659.13629150391</ele>
        <time>2020-07-18T19:41:32.962Z</time>
      </trkpt>
      <trkpt lat="46.022" lon="2.9569">
        <ele>659.76257324219</ele>
        <time>2020-07-18T19:41:39.062Z</time>
      </trkpt>
      <trkpt lat="46.02218" lon="2.95701">
        <ele>660.46087646484</ele>
        <time>2020-07-18T19:41:45.165Z</time>
      </trkpt>
      <trkpt lat="46.02297" lon="2.95757">
        <ele>666.28430175781</ele>
        <time>2020-07-18T19:41:51.282Z</time>
      </trkpt>
      <trkpt lat="46.02335" lon="2.95777">
        <ele>667.62969970703</ele>
        <time>2020-07-18T19:41:57.406Z</time>
      </trkpt>
      <trkpt lat="46.02374" lon="2.95795">
        <ele>668.56311035156</ele>
        <time>2020-07-18T19:42:03.536Z</time>
      </trkpt>
      <trkpt lat="46.02392" lon="2.95802">
        <ele>669.00341796875</ele>
        <time>2020-07-18T19:42:09.670Z</time>
      </trkpt>
      <trkpt lat="46.02411" lon="2.95805">
        <ele>669.67645263672</ele>
        <time>2020-07-18T19:42:15.807Z</time>
      </trkpt>
      <trkpt lat="46.02465" lon="2.95809">
        <ele>671.35473632812</ele>
        <time>2020-07-18T19:42:21.952Z</time>
      </trkpt>
      <trkpt lat="46.0248" lon="2.95808">
        <ele>671.70147705078</ele>
        <time>2020-07-18T19:42:28.100Z</time>
      </trkpt>
      <trkpt lat="46.02504" lon="2.95802">
        <ele>672.21856689453</ele>
        <time>2020-07-18T19:42:34.252Z</time>
      </trkpt>
      <trkpt lat="46.02524" lon="2.95791">
        <ele>672.56048583984</ele>
        <time>2020-07-18T19:42:40.407Z</time>
      </trkpt>
      <trkpt lat="46.02594" lon="2.9573">
        <ele>675.92266845703</ele>
        <time>2020-07-18T19:42:46.575Z</time>
      </trkpt>
      <trkpt lat="46.02608" lon="2.95721">
        <ele>677.05474853516</ele>
        <time>2020-07-18T19:42:52.745Z</time>
      </trkpt>
      <trkpt lat="46.02647" lon="2.95706">
        <ele>678.31268310547</ele>
        <time>2020-07-18T19:42:58.922Z</time>
      </trkpt>
      <trkpt lat="46.02677" lon="2.95699">
        <ele>679.00817871094</ele>
        <time>2020-07-18T19:43:05.104Z</time>
      </trkpt>
      <trkpt lat="46.02823" lon="2.95675">
        <ele>671.81433105469</ele>
        <time>2020-07-18T19:43:11.309Z</time>
      </trkpt>
      <trkpt lat="46.03131" lon="2.95633">
        <ele>657.62646484375</ele>
        <time>2020-07-18T19:43:17.564Z</time>
      </trkpt>
      <trkpt lat="46.03458" lon="2.95585">
        <ele>648.35760498047</ele>
        <time>2020-07-18T19:43:23.871Z</time>
      </trkpt>
      <trkpt lat="46.03524" lon="2.95576">
        <ele>647.24755859375</ele>
        <time>2020-07-18T19:43:30.189Z</time>
      </trkpt>
      <trkpt lat="46.0354" lon="2.95574">
        <ele>647.02075195312</ele>
        <time>2020-07-18T19:43:36.510Z</time>
      </trkpt>
      <trkpt lat="46.03579" lon="2.95564">
        <ele>646.20568847656</ele>
        <time>2020-07-18T19:43:42.837Z</time>
      </trkpt>
      <trkpt lat="46.03619" lon="2.95535">
        <ele>645.67712402344</ele>
        <time>2020-07-18T19:43:49.171Z</time>
      </trkpt>
      <trkpt lat="46.03696" lon="2.95472">
        <ele>643.62866210938</ele>
        <time>2020-07-18T19:43:55.519Z</time>
      </trkpt>
      <trkpt lat="46.03713" lon="2.95458">
        <ele>642.85357666016</ele>
        <time>2020-07-18T19:44:01.870Z</time>
      </trkpt>
      <trkpt lat="46.03723" lon="2.95447">
        <ele>642.36767578125</ele>
        <time>2020-07-18T19:44:08.223Z</time>
      </trkpt>
      <trkpt lat="46.03725" lon="2.95429">
        <ele>642.08093261719</ele>
        <time>2020-07-18T19:44:14.578Z</time>
      </trkpt>
      <trkpt lat="46.03725" lon="2.95384">
        <ele>640.5869140625</ele>
        <time>2020-07-18T19:44:20.939Z</time>
      </trkpt>
      <trkpt lat="46.03721" lon="2.95366">
        <ele>640.14300537109</ele>
        <time>2020-07-18T19:44:27.302Z</time>
      </trkpt>
      <trkpt lat="46.03714" lon="2.95351">
        <ele>639.92462158203</ele>
        <time>2020-07-18T19:44:33.667Z</time>
      </trkpt>
      <trkpt lat="46.03705" lon="2.95337">
        <ele>639.85021972656</ele>
        <time>2020-07-18T19:44:40.034Z</time>
      </trkpt>
      <trkpt lat="46.03676" lon="2.95299">
        <ele>639.86584472656</ele>
        <time>2020-07-18T19:44:46.407Z</time>
      </trkpt>
      <trkpt lat="46.03669" lon="2.95284">
        <ele>639.64465332031</ele>
        <time>2020-07-18T19:44:52.782Z</time>
      </trkpt>
      <trkpt lat="46.03664" lon="2.95266">
        <ele>639.09515380859</ele>
        <time>2020-07-18T19:44:59.159Z</time>
      </trkpt>
      <trkpt lat="46.03661" lon="2.95246">
        <ele>638.44543457031</ele>
        <time>2020-07-18T19:45:05.538Z</time>
      </trkpt>
      <trkpt lat="46.0366" lon="2.95216">
        <ele>637.43157958984</ele>
        <time>2020-07-18T19:45:11.921Z</time>
      </trkpt>
      <trkpt lat="46.03664" lon="2.95139">
        <ele>633.50378417969</ele>
        <time>2020-07-18T19:45:18.312Z</time>
      </trkpt>
      <trkpt lat="46.03659" lon="2.95109">
        <ele>632.45037841797</ele>
        <time>2020-07-18T19:45:24.707Z</time>
      </trkpt>
      <trkpt lat="46.03642" lon="2.95067">
        <ele>632.48626708984</ele>
        <time>2020-07-18T19:45:31.107Z</time>
      </trkpt>
      <trkpt lat="46.03635" lon="2.95039">
        <ele>632.28948974609</ele>
        <time>2020-07-18T19:45:37.511Z</time>
      </trkpt>
      <trkpt lat="46.03614" lon="2.9492">
        <ele>632.03826904297</ele>
        <time>2020-07-18T19:45:43.928Z</time>
      </trkpt>
      <trkpt lat="46.03597" lon="2.94807">
        <ele>632.45794677734</ele>
        <time>2020-07-18T19:45:50.358Z</time>
      </trkpt>
      <trkpt lat="46.03585" lon="2.94768">
        <ele>632.92456054688</ele>
        <time>2020-07-18T19:45:56.793Z</time>
      </trkpt>
      <trkpt lat="46.03574" lon="2.94717">
        <ele>632.95544433594</ele>
        <time>2020-07-18T19:46:03.234Z</time>
      </trkpt>
      <trkpt lat="46.03549" lon="2.94463">
        <ele>628.26812744141</ele>
        <time>2020-07-18T19:46:09.703Z</time>
      </trkpt>
      <trkpt lat="46.03546" lon="2.94423">
        <ele>628.06085205078</ele>
        <time>2020-07-18T19:46:16.177Z</time>
      </trkpt>
      <trkpt lat="46.03549" lon="2.94303">
        <ele>625.77020263672</ele>
        <time>2020-07-18T19:46:22.664Z</time>
      </trkpt>
      <trkpt lat="46.03541" lon="2.94089">
        <ele>620.44714355469</ele>
        <time>2020-07-18T19:46:29.175Z</time>
      </trkpt>
      <trkpt lat="46.03544" lon="2.94059">
        <ele>619.95330810547</ele>
        <time>2020-07-18T19:46:35.690Z</time>
      </trkpt>
      <trkpt lat="46.03555" lon="2.94002">
        <ele>620.35003662109</ele>
        <time>2020-07-18T19:46:42.211Z</time>
      </trkpt>
      <trkpt lat="46.0356" lon="2.93961">
        <ele>620.55358886719</ele>
        <time>2020-07-18T19:46:48.737Z</time>
      </trkpt>
      <trkpt lat="46.03569" lon="2.93716">
        <ele>623.08337402344</ele>
        <time>2020-07-18T19:46:55.290Z</time>
      </trkpt>
      <trkpt lat="46.03571" lon="2.93671">
        <ele>623.26098632812</ele>
        <time>2020-07-18T19:47:01.848Z</time>
      </trkpt>
      <trkpt lat="46.03577" lon="2.93615">
        <ele>622.52069091797</ele>
        <time>2020-07-18T19:47:08.413Z</time>
      </trkpt>
      <trkpt lat="46.03587" lon="2.93546">
        <ele>621.97717285156</ele>
        <time>2020-07-18T19:47:14.985Z</time>
      </trkpt>
      <trkpt lat="46.03603" lon="2.93491">
        <ele>620.54876708984</ele>
        <time>2020-07-18T19:47:21.564Z</time>
      </trkpt>
      <trkpt lat="46.03615" lon="2.93462">
        <ele>620.18713378906</ele>
        <time>2020-07-18T19:47:28.147Z</time>
      </trkpt>
      <trkpt lat="46.03626" lon="2.93444">
        <ele>619.96997070312</ele>
        <time>2020-07-18T19:47:34.732Z</time>
      </trkpt>
      <trkpt lat="46.03674" lon="2.93371">
        <ele>616.09027099609</ele>
        <time>2020-07-18T19:47:41.329Z</time>
      </trkpt>
      <trkpt lat="46.03684" lon="2.93346">
        <ele>615.30920410156</ele>
        <time>2020-07-18T19:47:47.929Z</time>
      </trkpt>
      <trkpt lat="46.03737" lon="2.93169">
        <ele>609.72589111328</ele>
        <time>2020-07-18T19:47:54.550Z</time>
      </trkpt>
      <trkpt lat="46.03765" lon="2.93063">
        <ele>606.41693115234</ele>
        <time>2020-07-18T19:48:01.184Z</time>
      </trkpt>
      <trkpt lat="46.03777" lon="2.93022">
        <ele>604.81903076172</ele>
        <time>2020-07-18T19:48:07.823Z</time>
      </trkpt>
      <trkpt lat="46.03822" lon="2.92937">
        <ele>601.95404052734</ele>
        <time>2020-07-18T19:48:14.474Z</time>
      </trkpt>
      <trkpt lat="46.03836" lon="2.92895">
        <ele>599.89611816406</ele>
        <time>2020-07-18T19:48:21.130Z</time>
      </trkpt>
      <trkpt lat="46.03854" lon="2.92801">
        <ele>598.48907470703</ele>
        <time>2020-07-18T19:48:27.797Z</time>
      </trkpt>
      <trkpt lat="46.03859" lon="2.9275">
        <ele>596.86767578125</ele>
        <time>2020-07-18T19:48:34.470Z</time>
      </trkpt>
      <trkpt lat="46.03858" lon="2.92684">
        <ele>594.68676757812</ele>
        <time>2020-07-18T19:48:41.150Z</time>
      </trkpt>
      <trkpt lat="46.03863" lon="2.92652">
        <ele>592.76934814453</ele>
        <time>2020-07-18T19:48:47.834Z</time>
      </trkpt>
      <trkpt lat="46.03877" lon="2.92626">
        <ele>591.71588134766</ele>
        <time>2020-07-18T19:48:54.521Z</time>
      </trkpt>
      <trkpt lat="46.03934" lon="2.92565">
        <ele>590.34948730469</ele>
        <time>2020-07-18T19:49:01.220Z</time>
      </trkpt>
      <trkpt lat="46.03953" lon="2.92542">
        <ele>589.17407226562</ele>
        <time>2020-07-18T19:49:07.923Z</time>
      </trkpt>
      <trkpt lat="46.04022" lon="2.92446">
        <ele>582.11041259766</ele>
        <time>2020-07-18T19:49:14.641Z</time>
      </trkpt>
      <trkpt lat="46.04097" lon="2.92351">
        <ele>578.0830078125</ele>
        <time>2020-07-18T19:49:21.375Z</time>
      </trkpt>
      <trkpt lat="46.04112" lon="2.92314">
        <ele>577.91259765625</ele>
        <time>2020-07-18T19:49:28.114Z</time>
      </trkpt>
      <trkpt lat="46.04117" lon="2.92269">
        <ele>578.15728759766</ele>
        <time>2020-07-18T19:49:34.858Z</time>
      </trkpt>
      <trkpt lat="46.04116" lon="2.92238">
        <ele>578.078125</ele>
        <time>2020-07-18T19:49:41.605Z</time>
      </trkpt>
      <trkpt lat="46.04108" lon="2.92191">
        <ele>578.29522705078</ele>
        <time>2020-07-18T19:49:48.358Z</time>
      </trkpt>
      <trkpt lat="46.04106" lon="2.92156">
        <ele>578.51605224609</ele>
        <time>2020-07-18T19:49:55.115Z</time>
      </trkpt>
      <trkpt lat="46.04102" lon="2.92124">
        <ele>578.51129150391</ele>
        <time>2020-07-18T19:50:01.875Z</time>
      </trkpt>
      <trkpt lat="46.04076" lon="2.92087">
        <ele>576.69671630859</ele>
        <time>2020-07-18T19:50:08.641Z</time>
      </trkpt>
      <trkpt lat="46.04054" lon="2.92071">
        <ele>573.97729492188</ele>
        <time>2020-07-18T19:50:15.411Z</time>
      </trkpt>
      <trkpt lat="46.04035" lon="2.92044">
        <ele>570.7138671875</ele>
        <time>2020-07-18T19:50:22.185Z</time>
      </trkpt>
      <trkpt lat="46.04016" lon="2.91994">
        <ele>568.11706542969</ele>
        <time>2020-07-18T19:50:28.966Z</time>
      </trkpt>
      <trkpt lat="46.04003" lon="2.91939">
        <ele>564.26519775391</ele>
        <time>2020-07-18T19:50:35.753Z</time>
      </trkpt>
      <trkpt lat="46.03997" lon="2.91901">
        <ele>561.40911865234</ele>
        <time>2020-07-18T19:50:42.545Z</time>
      </trkpt>
      <trkpt lat="46.03994" lon="2.91862">
        <ele>558.02087402344</ele>
        <time>2020-07-18T19:50:49.341Z</time>
      </trkpt>
      <trkpt lat="46.03993" lon="2.91823">
        <ele>552.88525390625</ele>
        <time>2020-07-18T19:50:56.141Z</time>
      </trkpt>
      <trkpt lat="46.03995" lon="2.91783">
        <ele>551.73706054688</ele>
        <time>2020-07-18T19:51:02.946Z</time>
      </trkpt>
      <trkpt lat="46.04007" lon="2.91726">
        <ele>546.51568603516</ele>
        <time>2020-07-18T19:51:09.757Z</time>
      </trkpt>
      <trkpt lat="46.04026" lon="2.91651">
        <ele>548.50213623047</ele>
        <time>2020-07-18T19:51:16.577Z</time>
      </trkpt>
      <trkpt lat="46.04031" lon="2.91613">
        <ele>549.9794921875</ele>
        <time>2020-07-18T19:51:23.402Z</time>
      </trkpt>
      <trkpt lat="46.04024" lon="2.91576">
        <ele>549.68450927734</ele>
        <time>2020-07-18T19:51:30.231Z</time>
      </trkpt>
      <trkpt lat="46.03997" lon="2.91507">
        <ele>549.00634765625</ele>
        <time>2020-07-18T19:51:37.069Z</time>
      </trkpt>
      <trkpt lat="46.03979" lon="2.91481">
        <ele>547.98052978516</ele>
        <time>2020-07-18T19:51:43.911Z</time>
      </trkpt>
      <trkpt lat="46.03954" lon="2.9147">
        <ele>542.05096435547</ele>
        <time>2020-07-18T19:51:50.757Z</time>
      </trkpt>
      <trkpt lat="46.0392" lon="2.91439">
        <ele>536.29553222656</ele>
        <time>2020-07-18T19:51:57.609Z</time>
      </trkpt>
      <trkpt lat="46.03896" lon="2.91391">
        <ele>534.80181884766</ele>
        <time>2020-07-18T19:52:04.468Z</time>
      </trkpt>
      <trkpt lat="46.03887" lon="2.91353">
        <ele>534.60845947266</ele>
        <time>2020-07-18T19:52:11.331Z</time>
      </trkpt>
      <trkpt lat="46.0388" lon="2.91313">
        <ele>532.21331787109</ele>
        <time>2020-07-18T19:52:18.199Z</time>
      </trkpt>
      <trkpt lat="46.0388" lon="2.91229">
        <ele>532.92492675781</ele>
        <time>2020-07-18T19:52:25.076Z</time>
      </trkpt>
      <trkpt lat="46.03869" lon="2.91168">
        <ele>527.17065429688</ele>
        <time>2020-07-18T19:52:31.960Z</time>
      </trkpt>
      <trkpt lat="46.03859" lon="2.91127">
        <ele>523.20495605469</ele>
        <time>2020-07-18T19:52:38.849Z</time>
      </trkpt>
      <trkpt lat="46.03854" lon="2.91084">
        <ele>520.78869628906</ele>
        <time>2020-07-18T19:52:45.743Z</time>
      </trkpt>
      <trkpt lat="46.03849" lon="2.90995">
        <ele>517.23687744141</ele>
        <time>2020-07-18T19:52:52.647Z</time>
      </trkpt>
      <trkpt lat="46.03837" lon="2.90904">
        <ele>512.14636230469</ele>
        <time>2020-07-18T19:52:59.561Z</time>
      </trkpt>
      <trkpt lat="46.03825" lon="2.90836">
        <ele>507.4338684082</ele>
        <time>2020-07-18T19:53:06.483Z</time>
      </trkpt>
      <trkpt lat="46.0381" lon="2.90793">
        <ele>503.52252197266</ele>
        <time>2020-07-18T19:53:13.411Z</time>
      </trkpt>
      <trkpt lat="46.03786" lon="2.90731">
        <ele>494.17208862305</ele>
        <time>2020-07-18T19:53:20.346Z</time>
      </trkpt>
      <trkpt lat="46.0378" lon="2.90686">
        <ele>490.04718017578</ele>
        <time>2020-07-18T19:53:27.287Z</time>
      </trkpt>
      <trkpt lat="46.03789" lon="2.90644">
        <ele>489.24569702148</ele>
        <time>2020-07-18T19:53:34.233Z</time>
      </trkpt>
      <trkpt lat="46.03804" lon="2.906">
        <ele>484.26052856445</ele>
        <time>2020-07-18T19:53:41.184Z</time>
      </trkpt>
      <trkpt lat="46.03797" lon="2.9058">
        <ele>476.91638183594</ele>
        <time>2020-07-18T19:53:48.137Z</time>
      </trkpt>
      <trkpt lat="46.03784" lon="2.90585">
        <ele>473.92767333984</ele>
        <time>2020-07-18T19:53:55.092Z</time>
      </trkpt>
      <trkpt lat="46.03764" lon="2.9064">
        <ele>478.16201782227</ele>
        <time>2020-07-18T19:54:02.054Z</time>
      </trkpt>
      <trkpt lat="46.03756" lon="2.90668">
        <ele>477.57531738281</ele>
        <time>2020-07-18T19:54:09.020Z</time>
      </trkpt>
      <trkpt lat="46.03759" lon="2.90713">
        <ele>480.8102722168</ele>
        <time>2020-07-18T19:54:15.991Z</time>
      </trkpt>
      <trkpt lat="46.03756" lon="2.90733">
        <ele>478.03872680664</ele>
        <time>2020-07-18T19:54:22.964Z</time>
      </trkpt>
      <trkpt lat="46.03743" lon="2.90728">
        <ele>471.18185424805</ele>
        <time>2020-07-18T19:54:29.939Z</time>
      </trkpt>
      <trkpt lat="46.03735" lon="2.90705">
        <ele>467.89920043945</ele>
        <time>2020-07-18T19:54:36.917Z</time>
      </trkpt>
      <trkpt lat="46.03732" lon="2.90675">
        <ele>467.14419555664</ele>
        <time>2020-07-18T19:54:43.898Z</time>
      </trkpt>
      <trkpt lat="46.03736" lon="2.90641">
        <ele>465.13940429688</ele>
        <time>2020-07-18T19:54:50.883Z</time>
      </trkpt>
      <trkpt lat="46.03747" lon="2.90588">
        <ele>461.7737121582</ele>
        <time>2020-07-18T19:54:57.874Z</time>
      </trkpt>
      <trkpt lat="46.03771" lon="2.90543">
        <ele>455.61703491211</ele>
        <time>2020-07-18T19:55:04.872Z</time>
      </trkpt>
      <trkpt lat="46.03787" lon="2.90523">
        <ele>451.14419555664</ele>
        <time>2020-07-18T19:55:11.873Z</time>
      </trkpt>
      <trkpt lat="46.03783" lon="2.90496">
        <ele>438.86041259766</ele>
        <time>2020-07-18T19:55:18.877Z</time>
      </trkpt>
      <trkpt lat="46.03769" lon="2.90502">
        <ele>438.30368041992</ele>
        <time>2020-07-18T19:55:25.884Z</time>
      </trkpt>
      <trkpt lat="46.03748" lon="2.90532">
        <ele>445.44924926758</ele>
        <time>2020-07-18T19:55:32.895Z</time>
      </trkpt>
      <trkpt lat="46.03734" lon="2.90556">
        <ele>447.51287841797</ele>
        <time>2020-07-18T19:55:39.910Z</time>
      </trkpt>
      <trkpt lat="46.03692" lon="2.90616">
        <ele>443.89340209961</ele>
        <time>2020-07-18T19:55:46.934Z</time>
      </trkpt>
      <trkpt lat="46.03671" lon="2.90662">
        <ele>438.34616088867</ele>
        <time>2020-07-18T19:55:53.964Z</time>
      </trkpt>
      <trkpt lat="46.03671" lon="2.907">
        <ele>438.07733154297</ele>
        <time>2020-07-18T19:56:00.999Z</time>
      </trkpt>
      <trkpt lat="46.03678" lon="2.90738">
        <ele>439.66149902344</ele>
        <time>2020-07-18T19:56:08.038Z</time>
      </trkpt>
      <trkpt lat="46.03719" lon="2.90839">
        <ele>446.74468994141</ele>
        <time>2020-07-18T19:56:15.090Z</time>
      </trkpt>
      <trkpt lat="46.03713" lon="2.90877">
        <ele>442.93450927734</ele>
        <time>2020-07-18T19:56:22.146Z</time>
      </trkpt>
      <trkpt lat="46.03696" lon="2.90865">
        <ele>437.75137329102</ele>
        <time>2020-07-18T19:56:29.205Z</time>
      </trkpt>
      <trkpt lat="46.0369" lon="2.9084">
        <ele>437.12591552734</ele>
        <time>2020-07-18T19:56:36.267Z</time>
      </trkpt>
      <trkpt lat="46.03627" lon="2.9071">
        <ele>419.94171142578</ele>
        <time>2020-07-18T19:56:43.347Z</time>
      </trkpt>
      <trkpt lat="46.03616" lon="2.90675">
        <ele>418.37237548828</ele>
        <time>2020-07-18T19:56:50.431Z</time>
      </trkpt>
      <trkpt lat="46.0361" lon="2.90637">
        <ele>409.76965332031</ele>
        <time>2020-07-18T19:56:57.520Z</time>
      </trkpt>
      <trkpt lat="46.03619" lon="2.9058">
        <ele>410.36114501953</ele>
        <time>2020-07-18T19:57:04.615Z</time>
      </trkpt>
      <trkpt lat="46.03632" lon="2.90544">
        <ele>406.39929199219</ele>
        <time>2020-07-18T19:57:11.715Z</time>
      </trkpt>
      <trkpt lat="46.0365" lon="2.90511">
        <ele>402.94604492188</ele>
        <time>2020-07-18T19:57:18.819Z</time>
      </trkpt>
      <trkpt lat="46.03669" lon="2.9048">
        <ele>402.95544433594</ele>
        <time>2020-07-18T19:57:25.928Z</time>
      </trkpt>
      <trkpt lat="46.0369" lon="2.90453">
        <ele>400.68817138672</ele>
        <time>2020-07-18T19:57:33.041Z</time>
      </trkpt>
      <trkpt lat="46.03727" lon="2.90422">
        <ele>391.72351074219</ele>
        <time>2020-07-18T19:57:40.161Z</time>
      </trkpt>
      <trkpt lat="46.03766" lon="2.90397">
        <ele>387.79055786133</ele>
        <time>2020-07-18T19:57:47.288Z</time>
      </trkpt>
      <trkpt lat="46.03817" lon="2.90367">
        <ele>383.63656616211</ele>
        <time>2020-07-18T19:57:54.424Z</time>
      </trkpt>
      <trkpt lat="46.03854" lon="2.90354">
        <ele>381.1396484375</ele>
        <time>2020-07-18T19:58:01.566Z</time>
      </trkpt>
      <trkpt lat="46.03876" lon="2.90353">
        <ele>380.47854614258</ele>
        <time>2020-07-18T19:58:08.712Z</time>
      </trkpt>
      <trkpt lat="46.03915" lon="2.90356">
        <ele>380.42236328125</ele>
        <time>2020-07-18T19:58:15.864Z</time>
      </trkpt>
      <trkpt lat="46.04118" lon="2.90386">
        <ele>390.40408325195</ele>
        <time>2020-07-18T19:58:23.048Z</time>
      </trkpt>
      <trkpt lat="46.04183" lon="2.90401">
        <ele>389.08999633789</ele>
        <time>2020-07-18T19:58:30.243Z</time>
      </trkpt>
      <trkpt lat="46.04211" lon="2.90415">
        <ele>388.80444335938</ele>
        <time>2020-07-18T19:58:37.443Z</time>
      </trkpt>
      <trkpt lat="46.04234" lon="2.90429">
        <ele>389.10513305664</ele>
        <time>2020-07-18T19:58:44.647Z</time>
      </trkpt>
      <trkpt lat="46.04248" lon="2.90434">
        <ele>388.32406616211</ele>
        <time>2020-07-18T19:58:51.853Z</time>
      </trkpt>
      <trkpt lat="46.04265" lon="2.90445">
        <ele>388.23767089844</ele>
        <time>2020-07-18T19:58:59.062Z</time>
      </trkpt>
      <trkpt lat="46.04286" lon="2.90453">
        <ele>387.10986328125</ele>
        <time>2020-07-18T19:59:06.274Z</time>
      </trkpt>
      <trkpt lat="46.04301" lon="2.90463">
        <ele>387.0690612793</ele>
        <time>2020-07-18T19:59:13.489Z</time>
      </trkpt>
      <trkpt lat="46.04328" lon="2.90489">
        <ele>388.72589111328</ele>
        <time>2020-07-18T19:59:20.709Z</time>
      </trkpt>
      <trkpt lat="46.04342" lon="2.90508">
        <ele>390.423828125</ele>
        <time>2020-07-18T19:59:27.932Z</time>
      </trkpt>
      <trkpt lat="46.0437" lon="2.90538">
        <ele>391.10052490234</ele>
        <time>2020-07-18T19:59:35.161Z</time>
      </trkpt>
      <trkpt lat="46.04382" lon="2.9055">
        <ele>391.23611450195</ele>
        <time>2020-07-18T19:59:42.392Z</time>
      </trkpt>
      <trkpt lat="46.04402" lon="2.90566">
        <ele>390.74945068359</ele>
        <time>2020-07-18T19:59:49.627Z</time>
      </trkpt>
      <trkpt lat="46.04409" lon="2.90574">
        <ele>390.9990234375</ele>
        <time>2020-07-18T19:59:56.863Z</time>
      </trkpt>
      <trkpt lat="46.04419" lon="2.90591">
        <ele>391.97225952148</ele>
        <time>2020-07-18T20:00:04.102Z</time>
      </trkpt>
      <trkpt lat="46.04433" lon="2.90621">
        <ele>391.15042114258</ele>
        <time>2020-07-18T20:00:11.345Z</time>
      </trkpt>
      <trkpt lat="46.04479" lon="2.90688">
        <ele>390.06475830078</ele>
        <time>2020-07-18T20:00:18.598Z</time>
      </trkpt>
      <trkpt lat="46.04502" lon="2.9071">
        <ele>389.54162597656</ele>
        <time>2020-07-18T20:00:25.856Z</time>
      </trkpt>
      <trkpt lat="46.04516" lon="2.90726">
        <ele>389.89678955078</ele>
        <time>2020-07-18T20:00:33.117Z</time>
      </trkpt>
      <trkpt lat="46.04551" lon="2.90757">
        <ele>388.54605102539</ele>
        <time>2020-07-18T20:00:40.384Z</time>
      </trkpt>
      <trkpt lat="46.04591" lon="2.9078">
        <ele>385.02032470703</ele>
        <time>2020-07-18T20:00:47.658Z</time>
      </trkpt>
      <trkpt lat="46.04633" lon="2.908">
        <ele>382.02923583984</ele>
        <time>2020-07-18T20:00:54.939Z</time>
      </trkpt>
      <trkpt lat="46.04672" lon="2.90821">
        <ele>378.94409179688</ele>
        <time>2020-07-18T20:01:02.227Z</time>
      </trkpt>
      <trkpt lat="46.04822" lon="2.90924">
        <ele>383.75857543945</ele>
        <time>2020-07-18T20:01:09.542Z</time>
      </trkpt>
      <trkpt lat="46.04861" lon="2.90937">
        <ele>382.08966064453</ele>
        <time>2020-07-18T20:01:16.863Z</time>
      </trkpt>
      <trkpt lat="46.04876" lon="2.90945">
        <ele>382.03686523438</ele>
        <time>2020-07-18T20:01:24.187Z</time>
      </trkpt>
      <trkpt lat="46.04949" lon="2.91022">
        <ele>383.37475585938</ele>
        <time>2020-07-18T20:01:31.525Z</time>
      </trkpt>
      <trkpt lat="46.04963" lon="2.91038">
        <ele>382.77365112305</ele>
        <time>2020-07-18T20:01:38.866Z</time>
      </trkpt>
      <trkpt lat="46.05064" lon="2.91187">
        <ele>374.65396118164</ele>
        <time>2020-07-18T20:01:46.230Z</time>
      </trkpt>
      <trkpt lat="46.05088" lon="2.91218">
        <ele>375.17227172852</ele>
        <time>2020-07-18T20:01:53.599Z</time>
      </trkpt>
      <trkpt lat="46.05118" lon="2.91254">
        <ele>375.53219604492</ele>
        <time>2020-07-18T20:02:00.975Z</time>
      </trkpt>
      <trkpt lat="46.05159" lon="2.91308">
        <ele>377.27603149414</ele>
        <time>2020-07-18T20:02:08.359Z</time>
      </trkpt>
      <trkpt lat="46.05196" lon="2.91353">
        <ele>378.58010864258</ele>
        <time>2020-07-18T20:02:15.751Z</time>
      </trkpt>
      <trkpt lat="46.05206" lon="2.91368">
        <ele>378.15896606445</ele>
        <time>2020-07-18T20:02:23.145Z</time>
      </trkpt>
      <trkpt lat="46.05228" lon="2.91408">
        <ele>377.1188659668</ele>
        <time>2020-07-18T20:02:30.545Z</time>
      </trkpt>
      <trkpt lat="46.05247" lon="2.91449">
        <ele>376.56393432617</ele>
        <time>2020-07-18T20:02:37.951Z</time>
      </trkpt>
      <trkpt lat="46.05286" lon="2.91544">
        <ele>380.4397277832</ele>
        <time>2020-07-18T20:02:45.369Z</time>
      </trkpt>
      <trkpt lat="46.053" lon="2.91567">
        <ele>381.53033447266</ele>
        <time>2020-07-18T20:02:52.790Z</time>
      </trkpt>
      <trkpt lat="46.05327" lon="2.91608">
        <ele>382.66723632812</ele>
        <time>2020-07-18T20:03:00.218Z</time>
      </trkpt>
      <trkpt lat="46.05371" lon="2.91708">
        <ele>390.00598144531</ele>
        <time>2020-07-18T20:03:07.659Z</time>
      </trkpt>
      <trkpt lat="46.05386" lon="2.91737">
        <ele>390.83383178711</ele>
        <time>2020-07-18T20:03:15.104Z</time>
      </trkpt>
      <trkpt lat="46.05406" lon="2.91761">
        <ele>391.64080810547</ele>
        <time>2020-07-18T20:03:22.553Z</time>
      </trkpt>
      <trkpt lat="46.05419" lon="2.91773">
        <ele>393.41412353516</ele>
        <time>2020-07-18T20:03:30.005Z</time>
      </trkpt>
      <trkpt lat="46.05429" lon="2.91779">
        <ele>393.92883300781</ele>
        <time>2020-07-18T20:03:37.458Z</time>
      </trkpt>
      <trkpt lat="46.0544" lon="2.91783">
        <ele>393.64447021484</ele>
        <time>2020-07-18T20:03:44.913Z</time>
      </trkpt>
      <trkpt lat="46.05469" lon="2.91787">
        <ele>391.58920288086</ele>
        <time>2020-07-18T20:03:52.373Z</time>
      </trkpt>
      <trkpt lat="46.05523" lon="2.91792">
        <ele>396.49505615234</ele>
        <time>2020-07-18T20:03:59.841Z</time>
      </trkpt>
      <trkpt lat="46.05547" lon="2.9179">
        <ele>398.16397094727</ele>
        <time>2020-07-18T20:04:07.313Z</time>
      </trkpt>
      <trkpt lat="46.05597" lon="2.91779">
        <ele>400.82867431641</ele>
        <time>2020-07-18T20:04:14.793Z</time>
      </trkpt>
      <trkpt lat="46.05626" lon="2.91768">
        <ele>398.85382080078</ele>
        <time>2020-07-18T20:04:22.278Z</time>
      </trkpt>
      <trkpt lat="46.05679" lon="2.91742">
        <ele>400.22113037109</ele>
        <time>2020-07-18T20:04:29.772Z</time>
      </trkpt>
      <trkpt lat="46.05711" lon="2.91724">
        <ele>399.35214233398</ele>
        <time>2020-07-18T20:04:37.272Z</time>
      </trkpt>
      <trkpt lat="46.05738" lon="2.91713">
        <ele>397.48016357422</ele>
        <time>2020-07-18T20:04:44.776Z</time>
      </trkpt>
      <trkpt lat="46.05784" lon="2.91683">
        <ele>391.4729309082</ele>
        <time>2020-07-18T20:04:52.288Z</time>
      </trkpt>
      <trkpt lat="46.05803" lon="2.91673">
        <ele>390.02767944336</ele>
        <time>2020-07-18T20:04:59.803Z</time>
      </trkpt>
      <trkpt lat="46.05824" lon="2.91666">
        <ele>389.88302612305</ele>
        <time>2020-07-18T20:05:07.322Z</time>
      </trkpt>
      <trkpt lat="46.05845" lon="2.9166">
        <ele>389.5578918457</ele>
        <time>2020-07-18T20:05:14.844Z</time>
      </trkpt>
      <trkpt lat="46.05939" lon="2.91643">
        <ele>382.8991394043</ele>
        <time>2020-07-18T20:05:22.381Z</time>
      </trkpt>
      <trkpt lat="46.05959" lon="2.91642">
        <ele>382.46142578125</ele>
        <time>2020-07-18T20:05:29.922Z</time>
      </trkpt>
      <trkpt lat="46.06079" lon="2.91659">
        <ele>378.99798583984</ele>
        <time>2020-07-18T20:05:37.482Z</time>
      </trkpt>
      <trkpt lat="46.06144" lon="2.91674">
        <ele>373.94689941406</ele>
        <time>2020-07-18T20:05:45.053Z</time>
      </trkpt>
      <trkpt lat="46.06175" lon="2.91688">
        <ele>372.93307495117</ele>
        <time>2020-07-18T20:05:52.629Z</time>
      </trkpt>
      <trkpt lat="46.062" lon="2.91707">
        <ele>372.54312133789</ele>
        <time>2020-07-18T20:06:00.209Z</time>
      </trkpt>
      <trkpt lat="46.06263" lon="2.91766">
        <ele>372.25714111328</ele>
        <time>2020-07-18T20:06:07.801Z</time>
      </trkpt>
      <trkpt lat="46.06279" lon="2.91784">
        <ele>372.1467590332</ele>
        <time>2020-07-18T20:06:15.396Z</time>
      </trkpt>
      <trkpt lat="46.06296" lon="2.91814">
        <ele>372.50668334961</ele>
        <time>2020-07-18T20:06:22.996Z</time>
      </trkpt>
      <trkpt lat="46.06318" lon="2.91862">
        <ele>373.22262573242</ele>
        <time>2020-07-18T20:06:30.602Z</time>
      </trkpt>
      <trkpt lat="46.06335" lon="2.91895">
        <ele>373.39538574219</ele>
        <time>2020-07-18T20:06:38.213Z</time>
      </trkpt>
      <trkpt lat="46.0636" lon="2.91929">
        <ele>373.46838378906</ele>
        <time>2020-07-18T20:06:45.829Z</time>
      </trkpt>
      <trkpt lat="46.06377" lon="2.9196">
        <ele>374.32144165039</ele>
        <time>2020-07-18T20:06:53.450Z</time>
      </trkpt>
      <trkpt lat="46.06389" lon="2.91993">
        <ele>375.47686767578</ele>
        <time>2020-07-18T20:07:01.075Z</time>
      </trkpt>
      <trkpt lat="46.06418" lon="2.92135">
        <ele>380.37533569336</ele>
        <time>2020-07-18T20:07:08.716Z</time>
      </trkpt>
      <trkpt lat="46.06432" lon="2.92188">
        <ele>382.29504394531</ele>
        <time>2020-07-18T20:07:16.364Z</time>
      </trkpt>
      <trkpt lat="46.06464" lon="2.9227">
        <ele>388.09097290039</ele>
        <time>2020-07-18T20:07:24.022Z</time>
      </trkpt>
      <trkpt lat="46.06483" lon="2.92302">
        <ele>391.60327148438</ele>
        <time>2020-07-18T20:07:31.685Z</time>
      </trkpt>
      <trkpt lat="46.06514" lon="2.92341">
        <ele>394.28564453125</ele>
        <time>2020-07-18T20:07:39.354Z</time>
      </trkpt>
      <trkpt lat="46.06541" lon="2.92372">
        <ele>400.23065185547</ele>
        <time>2020-07-18T20:07:47.029Z</time>
      </trkpt>
      <trkpt lat="46.06548" lon="2.92378">
        <ele>400.98413085938</ele>
        <time>2020-07-18T20:07:54.705Z</time>
      </trkpt>
      <trkpt lat="46.0656" lon="2.92388">
        <ele>402.28109741211</ele>
        <time>2020-07-18T20:08:02.383Z</time>
      </trkpt>
      <trkpt lat="46.06622" lon="2.92428">
        <ele>408.4352722168</ele>
        <time>2020-07-18T20:08:10.072Z</time>
      </trkpt>
      <trkpt lat="46.06667" lon="2.92454">
        <ele>415.80822753906</ele>
        <time>2020-07-18T20:08:17.769Z</time>
      </trkpt>
      <trkpt lat="46.06682" lon="2.92459">
        <ele>417.37844848633</ele>
        <time>2020-07-18T20:08:25.469Z</time>
      </trkpt>
      <trkpt lat="46.0672" lon="2.92466">
        <ele>418.0647277832</ele>
        <time>2020-07-18T20:08:33.175Z</time>
      </trkpt>
      <trkpt lat="46.06769" lon="2.92469">
        <ele>415.37744140625</ele>
        <time>2020-07-18T20:08:40.888Z</time>
      </trkpt>
      <trkpt lat="46.06807" lon="2.92465">
        <ele>414.8581237793</ele>
        <time>2020-07-18T20:08:48.608Z</time>
      </trkpt>
      <trkpt lat="46.06819" lon="2.92461">
        <ele>415.14483642578</ele>
        <time>2020-07-18T20:08:56.330Z</time>
      </trkpt>
      <trkpt lat="46.06827" lon="2.92462">
        <ele>416.58941650391</ele>
        <time>2020-07-18T20:09:04.053Z</time>
      </trkpt>
      <trkpt lat="46.06838" lon="2.92456">
        <ele>416.65658569336</ele>
        <time>2020-07-18T20:09:11.778Z</time>
      </trkpt>
      <trkpt lat="46.06844" lon="2.92459">
        <ele>418.40350341797</ele>
        <time>2020-07-18T20:09:19.504Z</time>
      </trkpt>
      <trkpt lat="46.06844" lon="2.92456">
        <ele>417.56356811523</ele>
        <time>2020-07-18T20:09:27.230Z</time>
      </trkpt>
      <trkpt lat="46.06841" lon="2.92453">
        <ele>416.2126159668</ele>
        <time>2020-07-18T20:09:34.957Z</time>
      </trkpt>
      <trkpt lat="46.06839" lon="2.92453">
        <ele>415.94863891602</ele>
        <time>2020-07-18T20:09:42.684Z</time>
      </trkpt>
      <trkpt lat="46.06842" lon="2.92459">
        <ele>418.26913452148</ele>
        <time>2020-07-18T20:09:50.412Z</time>
      </trkpt>
      <trkpt lat="46.06852" lon="2.92468">
        <ele>423.12350463867</ele>
        <time>2020-07-18T20:09:58.141Z</time>
      </trkpt>
      <trkpt lat="46.0686" lon="2.92473">
        <ele>425.98617553711</ele>
        <time>2020-07-18T20:10:05.872Z</time>
      </trkpt>
      <trkpt lat="46.06873" lon="2.92474">
        <ele>429.48480224609</ele>
        <time>2020-07-18T20:10:13.605Z</time>
      </trkpt>
      <trkpt lat="46.06881" lon="2.92471">
        <ele>430.70138549805</ele>
        <time>2020-07-18T20:10:21.339Z</time>
      </trkpt>
      <trkpt lat="46.06893" lon="2.92462">
        <ele>431.15328979492</ele>
        <time>2020-07-18T20:10:29.075Z</time>
      </trkpt>
      <trkpt lat="46.06926" lon="2.92427">
        <ele>434.3125</ele>
        <time>2020-07-18T20:10:36.818Z</time>
      </trkpt>
      <trkpt lat="46.06941" lon="2.92413">
        <ele>437.15814208984</ele>
        <time>2020-07-18T20:10:44.564Z</time>
      </trkpt>
      <trkpt lat="46.06947" lon="2.92404">
        <ele>437.40292358398</ele>
        <time>2020-07-18T20:10:52.311Z</time>
      </trkpt>
      <trkpt lat="46.06952" lon="2.92393">
        <ele>437.8815612793</ele>
        <time>2020-07-18T20:11:00.060Z</time>
      </trkpt>
      <trkpt lat="46.06955" lon="2.92382">
        <ele>438.54745483398</ele>
        <time>2020-07-18T20:11:07.810Z</time>
      </trkpt>
      <trkpt lat="46.06966" lon="2.9232">
        <ele>439.65829467773</ele>
        <time>2020-07-18T20:11:15.567Z</time>
      </trkpt>
      <trkpt lat="46.06978" lon="2.92263">
        <ele>443.03494262695</ele>
        <time>2020-07-18T20:11:23.331Z</time>
      </trkpt>
      <trkpt lat="46.06981" lon="2.92234">
        <ele>442.97317504883</ele>
        <time>2020-07-18T20:11:31.098Z</time>
      </trkpt>
      <trkpt lat="46.06984" lon="2.92193">
        <ele>442.07574462891</ele>
        <time>2020-07-18T20:11:38.870Z</time>
      </trkpt>
      <trkpt lat="46.06984" lon="2.92156">
        <ele>440.30871582031</ele>
        <time>2020-07-18T20:11:46.646Z</time>
      </trkpt>
      <trkpt lat="46.06974" lon="2.92059">
        <ele>438.95208740234</ele>
        <time>2020-07-18T20:11:54.433Z</time>
      </trkpt>
      <trkpt lat="46.06974" lon="2.92045">
        <ele>439.59997558594</ele>
        <time>2020-07-18T20:12:02.221Z</time>
      </trkpt>
      <trkpt lat="46.06984" lon="2.91949">
        <ele>444.81729125977</ele>
        <time>2020-07-18T20:12:10.020Z</time>
      </trkpt>
      <trkpt lat="46.06993" lon="2.91893">
        <ele>446.85095214844</ele>
        <time>2020-07-18T20:12:17.825Z</time>
      </trkpt>
      <trkpt lat="46.07005" lon="2.91855">
        <ele>448.68869018555</ele>
        <time>2020-07-18T20:12:25.635Z</time>
      </trkpt>
      <trkpt lat="46.07015" lon="2.91834">
        <ele>449.26516723633</ele>
        <time>2020-07-18T20:12:33.448Z</time>
      </trkpt>
      <trkpt lat="46.07035" lon="2.91795">
        <ele>448.94552612305</ele>
        <time>2020-07-18T20:12:41.266Z</time>
      </trkpt>
      <trkpt lat="46.07053" lon="2.9177">
        <ele>448.73077392578</ele>
        <time>2020-07-18T20:12:49.088Z</time>
      </trkpt>
      <trkpt lat="46.07076" lon="2.91746">
        <ele>449.02017211914</ele>
        <time>2020-07-18T20:12:56.915Z</time>
      </trkpt>
      <trkpt lat="46.07091" lon="2.91736">
        <ele>449.83724975586</ele>
        <time>2020-07-18T20:13:04.744Z</time>
      </trkpt>
      <trkpt lat="46.07106" lon="2.91729">
        <ele>451.80972290039</ele>
        <time>2020-07-18T20:13:12.576Z</time>
      </trkpt>
      <trkpt lat="46.07145" lon="2.9172">
        <ele>456.57388305664</ele>
        <time>2020-07-18T20:13:20.414Z</time>
      </trkpt>
      <trkpt lat="46.07177" lon="2.9171">
        <ele>460.5032043457</ele>
        <time>2020-07-18T20:13:28.258Z</time>
      </trkpt>
      <trkpt lat="46.07196" lon="2.91699">
        <ele>461.00714111328</ele>
        <time>2020-07-18T20:13:36.105Z</time>
      </trkpt>
      <trkpt lat="46.07225" lon="2.91679">
        <ele>460.50680541992</ele>
        <time>2020-07-18T20:13:43.957Z</time>
      </trkpt>
      <trkpt lat="46.0725" lon="2.91668">
        <ele>457.14135742188</ele>
        <time>2020-07-18T20:13:51.813Z</time>
      </trkpt>
      <trkpt lat="46.07267" lon="2.91666">
        <ele>456.623046875</ele>
        <time>2020-07-18T20:13:59.672Z</time>
      </trkpt>
      <trkpt lat="46.07302" lon="2.91668">
        <ele>459.2458190918</ele>
        <time>2020-07-18T20:14:07.536Z</time>
      </trkpt>
      <trkpt lat="46.07334" lon="2.91671">
        <ele>458.67626953125</ele>
        <time>2020-07-18T20:14:15.406Z</time>
      </trkpt>
      <trkpt lat="46.07349" lon="2.91675">
        <ele>458.38009643555</ele>
        <time>2020-07-18T20:14:23.278Z</time>
      </trkpt>
      <trkpt lat="46.07361" lon="2.91689">
        <ele>458.798828125</ele>
        <time>2020-07-18T20:14:31.153Z</time>
      </trkpt>
      <trkpt lat="46.07365" lon="2.91697">
        <ele>459.32434082031</ele>
        <time>2020-07-18T20:14:39.029Z</time>
      </trkpt>
      <trkpt lat="46.07371" lon="2.91739">
        <ele>464.9404296875</ele>
        <time>2020-07-18T20:14:46.910Z</time>
      </trkpt>
      <trkpt lat="46.07395" lon="2.91855">
        <ele>471.57431030273</ele>
        <time>2020-07-18T20:14:54.804Z</time>
      </trkpt>
      <trkpt lat="46.07404" lon="2.91964">
        <ele>475.04650878906</ele>
        <time>2020-07-18T20:15:02.710Z</time>
      </trkpt>
      <trkpt lat="46.07409" lon="2.91988">
        <ele>476.119140625</ele>
        <time>2020-07-18T20:15:10.619Z</time>
      </trkpt>
      <trkpt lat="46.07415" lon="2.91999">
        <ele>476.96859741211</ele>
        <time>2020-07-18T20:15:18.530Z</time>
      </trkpt>
      <trkpt lat="46.07428" lon="2.92009">
        <ele>478.54965209961</ele>
        <time>2020-07-18T20:15:26.443Z</time>
      </trkpt>
      <trkpt lat="46.07437" lon="2.92011">
        <ele>479.53228759766</ele>
        <time>2020-07-18T20:15:34.357Z</time>
      </trkpt>
      <trkpt lat="46.07446" lon="2.92008">
        <ele>480.16339111328</ele>
        <time>2020-07-18T20:15:42.273Z</time>
      </trkpt>
      <trkpt lat="46.07454" lon="2.92">
        <ele>480.63760375977</ele>
        <time>2020-07-18T20:15:50.190Z</time>
      </trkpt>
      <trkpt lat="46.07464" lon="2.91977">
        <ele>481.11270141602</ele>
        <time>2020-07-18T20:15:58.110Z</time>
      </trkpt>
      <trkpt lat="46.07481" lon="2.9191">
        <ele>482.46633911133</ele>
        <time>2020-07-18T20:16:06.038Z</time>
      </trkpt>
      <trkpt lat="46.07488" lon="2.9187">
        <ele>485.46343994141</ele>
        <time>2020-07-18T20:16:13.971Z</time>
      </trkpt>
      <trkpt lat="46.07488" lon="2.91853">
        <ele>485.86178588867</ele>
        <time>2020-07-18T20:16:21.906Z</time>
      </trkpt>
      <trkpt lat="46.07481" lon="2.91811">
        <ele>485.06597900391</ele>
        <time>2020-07-18T20:16:29.846Z</time>
      </trkpt>
      <trkpt lat="46.0748" lon="2.91793">
        <ele>484.87881469727</ele>
        <time>2020-07-18T20:16:37.788Z</time>
      </trkpt>
      <trkpt lat="46.07483" lon="2.91775">
        <ele>486.00302124023</ele>
        <time>2020-07-18T20:16:45.732Z</time>
      </trkpt>
      <trkpt lat="46.07502" lon="2.91725">
        <ele>489.3850402832</ele>
        <time>2020-07-18T20:16:53.682Z</time>
      </trkpt>
      <trkpt lat="46.07507" lon="2.91708">
        <ele>488.7731628418</ele>
        <time>2020-07-18T20:17:01.634Z</time>
      </trkpt>
      <trkpt lat="46.07512" lon="2.91662">
        <ele>487.00024414062</ele>
        <time>2020-07-18T20:17:09.591Z</time>
      </trkpt>
      <trkpt lat="46.07513" lon="2.91623">
        <ele>480.64349365234</ele>
        <time>2020-07-18T20:17:17.553Z</time>
      </trkpt>
      <trkpt lat="46.07516" lon="2.91604">
        <ele>478.93615722656</ele>
        <time>2020-07-18T20:17:25.517Z</time>
      </trkpt>
      <trkpt lat="46.07521" lon="2.91587">
        <ele>477.87780761719</ele>
        <time>2020-07-18T20:17:33.483Z</time>
      </trkpt>
      <trkpt lat="46.07533" lon="2.91553">
        <ele>474.23620605469</ele>
        <time>2020-07-18T20:17:41.453Z</time>
      </trkpt>
      <trkpt lat="46.07541" lon="2.91538">
        <ele>471.96618652344</ele>
        <time>2020-07-18T20:17:49.425Z</time>
      </trkpt>
      <trkpt lat="46.07552" lon="2.91529">
        <ele>472.83004760742</ele>
        <time>2020-07-18T20:17:57.399Z</time>
      </trkpt>
      <trkpt lat="46.07588" lon="2.91526">
        <ele>478.48156738281</ele>
        <time>2020-07-18T20:18:05.379Z</time>
      </trkpt>
      <trkpt lat="46.07633" lon="2.91517">
        <ele>479.81335449219</ele>
        <time>2020-07-18T20:18:13.366Z</time>
      </trkpt>
      <trkpt lat="46.07648" lon="2.91511">
        <ele>478.00598144531</ele>
        <time>2020-07-18T20:18:21.356Z</time>
      </trkpt>
      <trkpt lat="46.07694" lon="2.91484">
        <ele>466.46646118164</ele>
        <time>2020-07-18T20:18:29.354Z</time>
      </trkpt>
      <trkpt lat="46.07711" lon="2.91478">
        <ele>465.33428955078</ele>
        <time>2020-07-18T20:18:37.355Z</time>
      </trkpt>
      <trkpt lat="46.07737" lon="2.91475">
        <ele>463.74536132812</ele>
        <time>2020-07-18T20:18:45.360Z</time>
      </trkpt>
      <trkpt lat="46.07774" lon="2.91479">
        <ele>456.71450805664</ele>
        <time>2020-07-18T20:18:53.371Z</time>
      </trkpt>
      <trkpt lat="46.07792" lon="2.91485">
        <ele>455.08688354492</ele>
        <time>2020-07-18T20:19:01.385Z</time>
      </trkpt>
      <trkpt lat="46.0781" lon="2.91495">
        <ele>455.84008789062</ele>
        <time>2020-07-18T20:19:09.402Z</time>
      </trkpt>
      <trkpt lat="46.07822" lon="2.91516">
        <ele>456.78939819336</ele>
        <time>2020-07-18T20:19:17.422Z</time>
      </trkpt>
      <trkpt lat="46.07826" lon="2.91543">
        <ele>458.6721496582</ele>
        <time>2020-07-18T20:19:25.445Z</time>
      </trkpt>
      <trkpt lat="46.07826" lon="2.91599">
        <ele>464.22048950195</ele>
        <time>2020-07-18T20:19:33.474Z</time>
      </trkpt>
      <trkpt lat="46.07837" lon="2.91638">
        <ele>468.74026489258</ele>
        <time>2020-07-18T20:19:41.508Z</time>
      </trkpt>
      <trkpt lat="46.07856" lon="2.91646">
        <ele>470.20159912109</ele>
        <time>2020-07-18T20:19:49.545Z</time>
      </trkpt>
      <trkpt lat="46.07874" lon="2.9164">
        <ele>468.27581787109</ele>
        <time>2020-07-18T20:19:57.585Z</time>
      </trkpt>
      <trkpt lat="46.07891" lon="2.91629">
        <ele>463.57260131836</ele>
        <time>2020-07-18T20:20:05.628Z</time>
      </trkpt>
      <trkpt lat="46.07931" lon="2.91597">
        <ele>457.62976074219</ele>
        <time>2020-07-18T20:20:13.678Z</time>
      </trkpt>
      <trkpt lat="46.07948" lon="2.91587">
        <ele>456.09265136719</ele>
        <time>2020-07-18T20:20:21.731Z</time>
      </trkpt>
      <trkpt lat="46.07967" lon="2.91582">
        <ele>456.28820800781</ele>
        <time>2020-07-18T20:20:29.787Z</time>
      </trkpt>
      <trkpt lat="46.08004" lon="2.91585">
        <ele>453.80596923828</ele>
        <time>2020-07-18T20:20:37.849Z</time>
      </trkpt>
      <trkpt lat="46.08023" lon="2.91591">
        <ele>453.65502929688</ele>
        <time>2020-07-18T20:20:45.914Z</time>
      </trkpt>
      <trkpt lat="46.08077" lon="2.91617">
        <ele>449.84909057617</ele>
        <time>2020-07-18T20:20:53.988Z</time>
      </trkpt>
      <trkpt lat="46.0811" lon="2.91641">
        <ele>444.4674987793</ele>
        <time>2020-07-18T20:21:02.068Z</time>
      </trkpt>
      <trkpt lat="46.08159" lon="2.91691">
        <ele>439.94683837891</ele>
        <time>2020-07-18T20:21:10.158Z</time>
      </trkpt>
      <trkpt lat="46.08174" lon="2.91709">
        <ele>439.09017944336</ele>
        <time>2020-07-18T20:21:18.251Z</time>
      </trkpt>
      <trkpt lat="46.08197" lon="2.91739">
        <ele>438.54428100586</ele>
        <time>2020-07-18T20:21:26.349Z</time>
      </trkpt>
      <trkpt lat="46.08298" lon="2.91901">
        <ele>438.18106079102</ele>
        <time>2020-07-18T20:21:34.471Z</time>
      </trkpt>
      <trkpt lat="46.0832" lon="2.91933">
        <ele>438.73217773438</ele>
        <time>2020-07-18T20:21:42.598Z</time>
      </trkpt>
      <trkpt lat="46.08336" lon="2.9195">
        <ele>438.7321472168</ele>
        <time>2020-07-18T20:21:50.728Z</time>
      </trkpt>
      <trkpt lat="46.08401" lon="2.91997">
        <ele>433.44467163086</ele>
        <time>2020-07-18T20:21:58.870Z</time>
      </trkpt>
      <trkpt lat="46.08454" lon="2.92042">
        <ele>431.91955566406</ele>
        <time>2020-07-18T20:22:07.022Z</time>
      </trkpt>
      <trkpt lat="46.08472" lon="2.92053">
        <ele>430.58535766602</ele>
        <time>2020-07-18T20:22:15.177Z</time>
      </trkpt>
      <trkpt lat="46.0851" lon="2.92073">
        <ele>424.14321899414</ele>
        <time>2020-07-18T20:22:23.339Z</time>
      </trkpt>
      <trkpt lat="46.08547" lon="2.92102">
        <ele>420.50845336914</ele>
        <time>2020-07-18T20:22:31.507Z</time>
      </trkpt>
      <trkpt lat="46.08584" lon="2.92136">
        <ele>417.06622314453</ele>
        <time>2020-07-18T20:22:39.682Z</time>
      </trkpt>
      <trkpt lat="46.086" lon="2.92157">
        <ele>416.90545654297</ele>
        <time>2020-07-18T20:22:47.861Z</time>
      </trkpt>
      <trkpt lat="46.0862" lon="2.92197">
        <ele>417.23529052734</ele>
        <time>2020-07-18T20:22:56.045Z</time>
      </trkpt>
      <trkpt lat="46.08628" lon="2.92227">
        <ele>417.81118774414</ele>
        <time>2020-07-18T20:23:04.233Z</time>
      </trkpt>
      <trkpt lat="46.08634" lon="2.92258">
        <ele>420.73364257812</ele>
        <time>2020-07-18T20:23:12.424Z</time>
      </trkpt>
      <trkpt lat="46.08652" lon="2.92315">
        <ele>421.81143188477</ele>
        <time>2020-07-18T20:23:20.622Z</time>
      </trkpt>
      <trkpt lat="46.08699" lon="2.9242">
        <ele>414.71185302734</ele>
        <time>2020-07-18T20:23:28.834Z</time>
      </trkpt>
      <trkpt lat="46.08714" lon="2.92461">
        <ele>411.54275512695</ele>
        <time>2020-07-18T20:23:37.052Z</time>
      </trkpt>
      <trkpt lat="46.0875" lon="2.92571">
        <ele>408.50546264648</ele>
        <time>2020-07-18T20:23:45.283Z</time>
      </trkpt>
      <trkpt lat="46.08771" lon="2.92624">
        <ele>411.45669555664</ele>
        <time>2020-07-18T20:23:53.521Z</time>
      </trkpt>
      <trkpt lat="46.08782" lon="2.92649">
        <ele>413.65908813477</ele>
        <time>2020-07-18T20:24:01.762Z</time>
      </trkpt>
      <trkpt lat="46.08795" lon="2.92673">
        <ele>413.72387695312</ele>
        <time>2020-07-18T20:24:10.007Z</time>
      </trkpt>
      <trkpt lat="46.08812" lon="2.9269">
        <ele>413.68630981445</ele>
        <time>2020-07-18T20:24:18.255Z</time>
      </trkpt>
      <trkpt lat="46.08831" lon="2.927">
        <ele>415.56521606445</ele>
        <time>2020-07-18T20:24:26.506Z</time>
      </trkpt>
      <trkpt lat="46.08852" lon="2.92708">
        <ele>415.00164794922</ele>
        <time>2020-07-18T20:24:34.760Z</time>
      </trkpt>
      <trkpt lat="46.08873" lon="2.92713">
        <ele>411.58221435547</ele>
        <time>2020-07-18T20:24:43.018Z</time>
      </trkpt>
      <trkpt lat="46.08906" lon="2.92716">
        <ele>407.6745300293</ele>
        <time>2020-07-18T20:24:51.281Z</time>
      </trkpt>
      <trkpt lat="46.08939" lon="2.92716">
        <ele>408.62606811523</ele>
        <time>2020-07-18T20:24:59.550Z</time>
      </trkpt>
      <trkpt lat="46.09004" lon="2.92711">
        <ele>404.48348999023</ele>
        <time>2020-07-18T20:25:07.829Z</time>
      </trkpt>
      <trkpt lat="46.09024" lon="2.92708">
        <ele>403.61947631836</ele>
        <time>2020-07-18T20:25:16.111Z</time>
      </trkpt>
      <trkpt lat="46.09045" lon="2.92703">
        <ele>403.88101196289</ele>
        <time>2020-07-18T20:25:24.397Z</time>
      </trkpt>
      <trkpt lat="46.09104" lon="2.92683">
        <ele>406.16296386719</ele>
        <time>2020-07-18T20:25:32.692Z</time>
      </trkpt>
      <trkpt lat="46.09123" lon="2.92675">
        <ele>410.66220092773</ele>
        <time>2020-07-18T20:25:40.990Z</time>
      </trkpt>
      <trkpt lat="46.09142" lon="2.92661">
        <ele>410.51412963867</ele>
        <time>2020-07-18T20:25:49.292Z</time>
      </trkpt>
      <trkpt lat="46.09178" lon="2.9263">
        <ele>401.15817260742</ele>
        <time>2020-07-18T20:25:57.601Z</time>
      </trkpt>
      <trkpt lat="46.09198" lon="2.92618">
        <ele>402.19317626953</ele>
        <time>2020-07-18T20:26:05.913Z</time>
      </trkpt>
      <trkpt lat="46.09245" lon="2.92591">
        <ele>402.54000854492</ele>
        <time>2020-07-18T20:26:14.233Z</time>
      </trkpt>
      <trkpt lat="46.093" lon="2.92543">
        <ele>394.15908813477</ele>
        <time>2020-07-18T20:26:22.563Z</time>
      </trkpt>
      <trkpt lat="46.09323" lon="2.92527">
        <ele>389.59844970703</ele>
        <time>2020-07-18T20:26:30.898Z</time>
      </trkpt>
      <trkpt lat="46.0934" lon="2.92532">
        <ele>384.96276855469</ele>
        <time>2020-07-18T20:26:39.235Z</time>
      </trkpt>
      <trkpt lat="46.09351" lon="2.9255">
        <ele>382.20529174805</ele>
        <time>2020-07-18T20:26:47.575Z</time>
      </trkpt>
      <trkpt lat="46.09355" lon="2.92575">
        <ele>383.74102783203</ele>
        <time>2020-07-18T20:26:55.918Z</time>
      </trkpt>
      <trkpt lat="46.0936" lon="2.92689">
        <ele>379.6471862793</ele>
        <time>2020-07-18T20:27:04.274Z</time>
      </trkpt>
      <trkpt lat="46.09358" lon="2.92719">
        <ele>378.50857543945</ele>
        <time>2020-07-18T20:27:12.633Z</time>
      </trkpt>
      <trkpt lat="46.09346" lon="2.92743">
        <ele>379.48266601562</ele>
        <time>2020-07-18T20:27:20.995Z</time>
      </trkpt>
      <trkpt lat="46.09327" lon="2.92757">
        <ele>383.1276550293</ele>
        <time>2020-07-18T20:27:29.361Z</time>
      </trkpt>
      <trkpt lat="46.09298" lon="2.92773">
        <ele>387.65939331055</ele>
        <time>2020-07-18T20:27:37.732Z</time>
      </trkpt>
      <trkpt lat="46.09235" lon="2.92813">
        <ele>389.41909790039</ele>
        <time>2020-07-18T20:27:46.114Z</time>
      </trkpt>
      <trkpt lat="46.09191" lon="2.92847">
        <ele>389.0358581543</ele>
        <time>2020-07-18T20:27:54.504Z</time>
      </trkpt>
      <trkpt lat="46.0915" lon="2.92887">
        <ele>388.00405883789</ele>
        <time>2020-07-18T20:28:02.901Z</time>
      </trkpt>
      <trkpt lat="46.09132" lon="2.92909">
        <ele>385.94464111328</ele>
        <time>2020-07-18T20:28:11.302Z</time>
      </trkpt>
      <trkpt lat="46.09124" lon="2.9294">
        <ele>384.75946044922</ele>
        <time>2020-07-18T20:28:19.707Z</time>
      </trkpt>
      <trkpt lat="46.09134" lon="2.92965">
        <ele>385.48294067383</ele>
        <time>2020-07-18T20:28:28.115Z</time>
      </trkpt>
      <trkpt lat="46.09153" lon="2.92972">
        <ele>384.87298583984</ele>
        <time>2020-07-18T20:28:36.526Z</time>
      </trkpt>
      <trkpt lat="46.0919" lon="2.92958">
        <ele>384.37112426758</ele>
        <time>2020-07-18T20:28:44.944Z</time>
      </trkpt>
      <trkpt lat="46.09237" lon="2.92947">
        <ele>379.36154174805</ele>
        <time>2020-07-18T20:28:53.369Z</time>
      </trkpt>
      <trkpt lat="46.09282" lon="2.92928">
        <ele>373.6169128418</ele>
        <time>2020-07-18T20:29:01.802Z</time>
      </trkpt>
      <trkpt lat="46.09301" lon="2.92923">
        <ele>372.33169555664</ele>
        <time>2020-07-18T20:29:10.238Z</time>
      </trkpt>
      <trkpt lat="46.09341" lon="2.92915">
        <ele>367.79052734375</ele>
        <time>2020-07-18T20:29:18.680Z</time>
      </trkpt>
      <trkpt lat="46.09371" lon="2.92911">
        <ele>363.80841064453</ele>
        <time>2020-07-18T20:29:27.127Z</time>
      </trkpt>
      <trkpt lat="46.0939" lon="2.92919">
        <ele>361.35778808594</ele>
        <time>2020-07-18T20:29:35.577Z</time>
      </trkpt>
      <trkpt lat="46.09401" lon="2.9294">
        <ele>361.30487060547</ele>
        <time>2020-07-18T20:29:44.030Z</time>
      </trkpt>
      <trkpt lat="46.09426" lon="2.93036">
        <ele>365.20834350586</ele>
        <time>2020-07-18T20:29:52.495Z</time>
      </trkpt>
      <trkpt lat="46.09446" lon="2.93087">
        <ele>366.54867553711</ele>
        <time>2020-07-18T20:30:00.966Z</time>
      </trkpt>
      <trkpt lat="46.09463" lon="2.9312">
        <ele>368.59155273438</ele>
        <time>2020-07-18T20:30:09.442Z</time>
      </trkpt>
      <trkpt lat="46.09483" lon="2.93146">
        <ele>369.00289916992</ele>
        <time>2020-07-18T20:30:17.922Z</time>
      </trkpt>
      <trkpt lat="46.09498" lon="2.93161">
        <ele>370.04672241211</ele>
        <time>2020-07-18T20:30:26.405Z</time>
      </trkpt>
      <trkpt lat="46.09515" lon="2.93173">
        <ele>369.87637329102</ele>
        <time>2020-07-18T20:30:34.891Z</time>
      </trkpt>
      <trkpt lat="46.09533" lon="2.93181">
        <ele>368.32461547852</ele>
        <time>2020-07-18T20:30:43.380Z</time>
      </trkpt>
      <trkpt lat="46.09587" lon="2.93201">
        <ele>363.52648925781</ele>
        <time>2020-07-18T20:30:51.878Z</time>
      </trkpt>
      <trkpt lat="46.09674" lon="2.93255">
        <ele>365.73104858398</ele>
        <time>2020-07-18T20:31:00.391Z</time>
      </trkpt>
      <trkpt lat="46.09689" lon="2.93263">
        <ele>366.46774291992</ele>
        <time>2020-07-18T20:31:08.907Z</time>
      </trkpt>
      <trkpt lat="46.09713" lon="2.93271">
        <ele>366.90447998047</ele>
        <time>2020-07-18T20:31:17.427Z</time>
      </trkpt>
      <trkpt lat="46.09744" lon="2.93279">
        <ele>367.49182128906</ele>
        <time>2020-07-18T20:31:25.952Z</time>
      </trkpt>
      <trkpt lat="46.09796" lon="2.9329">
        <ele>369.02459716797</ele>
        <time>2020-07-18T20:31:34.485Z</time>
      </trkpt>
      <trkpt lat="46.09826" lon="2.93293">
        <ele>371.21182250977</ele>
        <time>2020-07-18T20:31:43.023Z</time>
      </trkpt>
      <trkpt lat="46.09856" lon="2.93291">
        <ele>372.97283935547</ele>
        <time>2020-07-18T20:31:51.566Z</time>
      </trkpt>
      <trkpt lat="46.09898" lon="2.9328">
        <ele>370.93902587891</ele>
        <time>2020-07-18T20:32:00.115Z</time>
      </trkpt>
      <trkpt lat="46.0993" lon="2.93267">
        <ele>370.32406616211</ele>
        <time>2020-07-18T20:32:08.670Z</time>
      </trkpt>
      <trkpt lat="46.09962" lon="2.9325">
        <ele>370.99609375</ele>
        <time>2020-07-18T20:32:17.230Z</time>
      </trkpt>
      <trkpt lat="46.09992" lon="2.93232">
        <ele>369.86715698242</ele>
        <time>2020-07-18T20:32:25.795Z</time>
      </trkpt>
      <trkpt lat="46.10023" lon="2.93205">
        <ele>366.99407958984</ele>
        <time>2020-07-18T20:32:34.366Z</time>
      </trkpt>
      <trkpt lat="46.10062" lon="2.93168">
        <ele>362.33599853516</ele>
        <time>2020-07-18T20:32:42.945Z</time>
      </trkpt>
      <trkpt lat="46.10085" lon="2.93142">
        <ele>359.88360595703</ele>
        <time>2020-07-18T20:32:51.528Z</time>
      </trkpt>
      <trkpt lat="46.10103" lon="2.9312">
        <ele>357.64236450195</ele>
        <time>2020-07-18T20:33:00.115Z</time>
      </trkpt>
      <trkpt lat="46.10104" lon="2.93109">
        <ele>356.52294921875</ele>
        <time>2020-07-18T20:33:08.703Z</time>
      </trkpt>
      <trkpt lat="46.10084" lon="2.93056">
        <ele>353.03649902344</ele>
        <time>2020-07-18T20:33:17.298Z</time>
      </trkpt>
      <trkpt lat="46.10037" lon="2.92941">
        <ele>355.88064575195</ele>
        <time>2020-07-18T20:33:25.908Z</time>
      </trkpt>
      <trkpt lat="46.10027" lon="2.92908">
        <ele>359.98205566406</ele>
        <time>2020-07-18T20:33:34.522Z</time>
      </trkpt>
      <trkpt lat="46.10025" lon="2.92879">
        <ele>364.55935668945</ele>
        <time>2020-07-18T20:33:43.139Z</time>
      </trkpt>
      <trkpt lat="46.10027" lon="2.92837">
        <ele>369.38827514648</ele>
        <time>2020-07-18T20:33:51.761Z</time>
      </trkpt>
      <trkpt lat="46.1004" lon="2.92716">
        <ele>373.85308837891</ele>
        <time>2020-07-18T20:34:00.396Z</time>
      </trkpt>
      <trkpt lat="46.10045" lon="2.92696">
        <ele>372.259765625</ele>
        <time>2020-07-18T20:34:09.034Z</time>
      </trkpt>
      <trkpt lat="46.10056" lon="2.92686">
        <ele>369.2890625</ele>
        <time>2020-07-18T20:34:17.674Z</time>
      </trkpt>
      <trkpt lat="46.10067" lon="2.92692">
        <ele>371.61172485352</ele>
        <time>2020-07-18T20:34:26.316Z</time>
      </trkpt>
      <trkpt lat="46.10072" lon="2.92707">
        <ele>373.79055786133</ele>
        <time>2020-07-18T20:34:34.960Z</time>
      </trkpt>
      <trkpt lat="46.10073" lon="2.92724">
        <ele>374.82958984375</ele>
        <time>2020-07-18T20:34:43.606Z</time>
      </trkpt>
      <trkpt lat="46.1007" lon="2.92821">
        <ele>368.77673339844</ele>
        <time>2020-07-18T20:34:52.262Z</time>
      </trkpt>
      <trkpt lat="46.10071" lon="2.92849">
        <ele>364.95901489258</ele>
        <time>2020-07-18T20:35:00.921Z</time>
      </trkpt>
      <trkpt lat="46.10077" lon="2.92867">
        <ele>362.00073242188</ele>
        <time>2020-07-18T20:35:09.583Z</time>
      </trkpt>
      <trkpt lat="46.10084" lon="2.9288">
        <ele>360.52380371094</ele>
        <time>2020-07-18T20:35:18.247Z</time>
      </trkpt>
      <trkpt lat="46.10094" lon="2.92892">
        <ele>359.26278686523</ele>
        <time>2020-07-18T20:35:26.913Z</time>
      </trkpt>
      <trkpt lat="46.10106" lon="2.929">
        <ele>358.4397277832</ele>
        <time>2020-07-18T20:35:35.581Z</time>
      </trkpt>
      <trkpt lat="46.10125" lon="2.92905">
        <ele>358.32531738281</ele>
        <time>2020-07-18T20:35:44.252Z</time>
      </trkpt>
      <trkpt lat="46.1027" lon="2.92916">
        <ele>365.41052246094</ele>
        <time>2020-07-18T20:35:52.946Z</time>
      </trkpt>
      <trkpt lat="46.10292" lon="2.92921">
        <ele>365.55090332031</ele>
        <time>2020-07-18T20:36:01.644Z</time>
      </trkpt>
      <trkpt lat="46.10342" lon="2.9294">
        <ele>369.61859130859</ele>
        <time>2020-07-18T20:36:10.350Z</time>
      </trkpt>
      <trkpt lat="46.10368" lon="2.92955">
        <ele>371.91381835938</ele>
        <time>2020-07-18T20:36:19.060Z</time>
      </trkpt>
      <trkpt lat="46.10393" lon="2.92974">
        <ele>372.37454223633</ele>
        <time>2020-07-18T20:36:27.775Z</time>
      </trkpt>
      <trkpt lat="46.10565" lon="2.93129">
        <ele>367.25570678711</ele>
        <time>2020-07-18T20:36:36.522Z</time>
      </trkpt>
      <trkpt lat="46.1059" lon="2.93155">
        <ele>367.80880737305</ele>
        <time>2020-07-18T20:36:45.274Z</time>
      </trkpt>
      <trkpt lat="46.1062" lon="2.93191">
        <ele>367.58645629883</ele>
        <time>2020-07-18T20:36:54.033Z</time>
      </trkpt>
      <trkpt lat="46.10642" lon="2.93224">
        <ele>366.65301513672</ele>
        <time>2020-07-18T20:37:02.797Z</time>
      </trkpt>
      <trkpt lat="46.10661" lon="2.9326">
        <ele>369.58657836914</ele>
        <time>2020-07-18T20:37:11.566Z</time>
      </trkpt>
      <trkpt lat="46.10669" lon="2.9328">
        <ele>371.8782043457</ele>
        <time>2020-07-18T20:37:20.337Z</time>
      </trkpt>
      <trkpt lat="46.10675" lon="2.93302">
        <ele>373.62155151367</ele>
        <time>2020-07-18T20:37:29.111Z</time>
      </trkpt>
      <trkpt lat="46.10678" lon="2.93325">
        <ele>374.16143798828</ele>
        <time>2020-07-18T20:37:37.888Z</time>
      </trkpt>
      <trkpt lat="46.10682" lon="2.93384">
        <ele>382.48937988281</ele>
        <time>2020-07-18T20:37:46.671Z</time>
      </trkpt>
      <trkpt lat="46.10679" lon="2.93419">
        <ele>382.861328125</ele>
        <time>2020-07-18T20:37:55.458Z</time>
      </trkpt>
      <trkpt lat="46.10672" lon="2.9344">
        <ele>385.75164794922</ele>
        <time>2020-07-18T20:38:04.248Z</time>
      </trkpt>
      <trkpt lat="46.10658" lon="2.93469">
        <ele>383.28216552734</ele>
        <time>2020-07-18T20:38:13.042Z</time>
      </trkpt>
      <trkpt lat="46.10625" lon="2.93533">
        <ele>382.35360717773</ele>
        <time>2020-07-18T20:38:21.844Z</time>
      </trkpt>
      <trkpt lat="46.10614" lon="2.93548">
        <ele>383.88455200195</ele>
        <time>2020-07-18T20:38:30.649Z</time>
      </trkpt>
      <trkpt lat="46.10582" lon="2.93582">
        <ele>374.72698974609</ele>
        <time>2020-07-18T20:38:39.460Z</time>
      </trkpt>
      <trkpt lat="46.10572" lon="2.93599">
        <ele>372.96533203125</ele>
        <time>2020-07-18T20:38:48.274Z</time>
      </trkpt>
      <trkpt lat="46.10563" lon="2.93619">
        <ele>371.31024169922</ele>
        <time>2020-07-18T20:38:57.090Z</time>
      </trkpt>
      <trkpt lat="46.10543" lon="2.93686">
        <ele>375.11856079102</ele>
        <time>2020-07-18T20:39:05.914Z</time>
      </trkpt>
      <trkpt lat="46.10535" lon="2.9372">
        <ele>373.22888183594</ele>
        <time>2020-07-18T20:39:14.742Z</time>
      </trkpt>
      <trkpt lat="46.10533" lon="2.93745">
        <ele>373.23773193359</ele>
        <time>2020-07-18T20:39:23.573Z</time>
      </trkpt>
      <trkpt lat="46.10536" lon="2.93769">
        <ele>372.57125854492</ele>
        <time>2020-07-18T20:39:32.407Z</time>
      </trkpt>
      <trkpt lat="46.10544" lon="2.93791">
        <ele>371.61141967773</ele>
        <time>2020-07-18T20:39:41.244Z</time>
      </trkpt>
      <trkpt lat="46.10555" lon="2.93811">
        <ele>371.75659179688</ele>
        <time>2020-07-18T20:39:50.084Z</time>
      </trkpt>
      <trkpt lat="46.10567" lon="2.93828">
        <ele>374.54125976562</ele>
        <time>2020-07-18T20:39:58.926Z</time>
      </trkpt>
      <trkpt lat="46.10621" lon="2.93889">
        <ele>376.28643798828</ele>
        <time>2020-07-18T20:40:07.779Z</time>
      </trkpt>
      <trkpt lat="46.10707" lon="2.93994">
        <ele>369.37707519531</ele>
        <time>2020-07-18T20:40:16.650Z</time>
      </trkpt>
      <trkpt lat="46.10745" lon="2.9405">
        <ele>370.48297119141</ele>
        <time>2020-07-18T20:40:25.530Z</time>
      </trkpt>
      <trkpt lat="46.10788" lon="2.94105">
        <ele>375.9768371582</ele>
        <time>2020-07-18T20:40:34.419Z</time>
      </trkpt>
      <trkpt lat="46.10804" lon="2.94131">
        <ele>375.7668762207</ele>
        <time>2020-07-18T20:40:43.312Z</time>
      </trkpt>
      <trkpt lat="46.10812" lon="2.9415">
        <ele>375.4641418457</ele>
        <time>2020-07-18T20:40:52.208Z</time>
      </trkpt>
      <trkpt lat="46.10819" lon="2.94171">
        <ele>375.68728637695</ele>
        <time>2020-07-18T20:41:01.106Z</time>
      </trkpt>
      <trkpt lat="46.10823" lon="2.94193">
        <ele>375.67199707031</ele>
        <time>2020-07-18T20:41:10.007Z</time>
      </trkpt>
      <trkpt lat="46.10826" lon="2.94238">
        <ele>373.89749145508</ele>
        <time>2020-07-18T20:41:18.913Z</time>
      </trkpt>
      <trkpt lat="46.10831" lon="2.9427">
        <ele>371.46762084961</ele>
        <time>2020-07-18T20:41:27.822Z</time>
      </trkpt>
      <trkpt lat="46.10846" lon="2.94336">
        <ele>370.62893676758</ele>
        <time>2020-07-18T20:41:36.739Z</time>
      </trkpt>
      <trkpt lat="46.10853" lon="2.94358">
        <ele>367.80270385742</ele>
        <time>2020-07-18T20:41:45.659Z</time>
      </trkpt>
      <trkpt lat="46.10893" lon="2.94448">
        <ele>360.01126098633</ele>
        <time>2020-07-18T20:41:54.591Z</time>
      </trkpt>
      <trkpt lat="46.10907" lon="2.94493">
        <ele>358.36935424805</ele>
        <time>2020-07-18T20:42:03.528Z</time>
      </trkpt>
      <trkpt lat="46.10952" lon="2.94653">
        <ele>363.29104614258</ele>
        <time>2020-07-18T20:42:12.484Z</time>
      </trkpt>
      <trkpt lat="46.10966" lon="2.94696">
        <ele>364.33648681641</ele>
        <time>2020-07-18T20:42:21.446Z</time>
      </trkpt>
      <trkpt lat="46.11013" lon="2.94828">
        <ele>370.98767089844</ele>
        <time>2020-07-18T20:42:30.424Z</time>
      </trkpt>
      <trkpt lat="46.11039" lon="2.94893">
        <ele>375.01654052734</ele>
        <time>2020-07-18T20:42:39.411Z</time>
      </trkpt>
      <trkpt lat="46.11049" lon="2.94922">
        <ele>376.73358154297</ele>
        <time>2020-07-18T20:42:48.401Z</time>
      </trkpt>
      <trkpt lat="46.11054" lon="2.94943">
        <ele>375.2633972168</ele>
        <time>2020-07-18T20:42:57.394Z</time>
      </trkpt>
      <trkpt lat="46.11062" lon="2.95007">
        <ele>369.08255004883</ele>
        <time>2020-07-18T20:43:06.394Z</time>
      </trkpt>
      <trkpt lat="46.11074" lon="2.95059">
        <ele>371.57669067383</ele>
        <time>2020-07-18T20:43:15.400Z</time>
      </trkpt>
      <trkpt lat="46.11098" lon="2.95198">
        <ele>375.09722900391</ele>
        <time>2020-07-18T20:43:24.422Z</time>
      </trkpt>
      <trkpt lat="46.11101" lon="2.9523">
        <ele>374.82614135742</ele>
        <time>2020-07-18T20:43:33.447Z</time>
      </trkpt>
      <trkpt lat="46.11105" lon="2.95325">
        <ele>372.1188659668</ele>
        <time>2020-07-18T20:43:42.483Z</time>
      </trkpt>
      <trkpt lat="46.11105" lon="2.95369">
        <ele>369.48724365234</ele>
        <time>2020-07-18T20:43:51.524Z</time>
      </trkpt>
      <trkpt lat="46.111" lon="2.95423">
        <ele>366.99987792969</ele>
        <time>2020-07-18T20:44:00.571Z</time>
      </trkpt>
      <trkpt lat="46.111" lon="2.95446">
        <ele>362.93609619141</ele>
        <time>2020-07-18T20:44:09.621Z</time>
      </trkpt>
      <trkpt lat="46.11104" lon="2.9548">
        <ele>359.26364135742</ele>
        <time>2020-07-18T20:44:18.674Z</time>
      </trkpt>
      <trkpt lat="46.11114" lon="2.95523">
        <ele>356.18402099609</ele>
        <time>2020-07-18T20:44:27.732Z</time>
      </trkpt>
      <trkpt lat="46.11138" lon="2.95584">
        <ele>346.68402099609</ele>
        <time>2020-07-18T20:44:36.798Z</time>
      </trkpt>
      <trkpt lat="46.11165" lon="2.95639">
        <ele>345.47561645508</ele>
        <time>2020-07-18T20:44:45.872Z</time>
      </trkpt>
      <trkpt lat="46.11176" lon="2.95655">
        <ele>345.59317016602</ele>
        <time>2020-07-18T20:44:54.948Z</time>
      </trkpt>
      <trkpt lat="46.11188" lon="2.9567">
        <ele>345.89791870117</ele>
        <time>2020-07-18T20:45:04.027Z</time>
      </trkpt>
      <trkpt lat="46.11208" lon="2.95691">
        <ele>345.55136108398</ele>
        <time>2020-07-18T20:45:13.110Z</time>
      </trkpt>
      <trkpt lat="46.11222" lon="2.95703">
        <ele>345.4733581543</ele>
        <time>2020-07-18T20:45:22.195Z</time>
      </trkpt>
      <trkpt lat="46.11253" lon="2.95724">
        <ele>344.91586303711</ele>
        <time>2020-07-18T20:45:31.286Z</time>
      </trkpt>
      <trkpt lat="46.11308" lon="2.95754">
        <ele>344.34887695312</ele>
        <time>2020-07-18T20:45:40.386Z</time>
      </trkpt>
      <trkpt lat="46.11332" lon="2.95763">
        <ele>345.29827880859</ele>
        <time>2020-07-18T20:45:49.490Z</time>
      </trkpt>
      <trkpt lat="46.11374" lon="2.95771">
        <ele>347.79385375977</ele>
        <time>2020-07-18T20:45:58.601Z</time>
      </trkpt>
      <trkpt lat="46.11446" lon="2.95775">
        <ele>350.69046020508</ele>
        <time>2020-07-18T20:46:07.724Z</time>
      </trkpt>
      <trkpt lat="46.11485" lon="2.95779">
        <ele>351.80291748047</ele>
        <time>2020-07-18T20:46:16.853Z</time>
      </trkpt>
      <trkpt lat="46.11569" lon="2.95793">
        <ele>352.20227050781</ele>
        <time>2020-07-18T20:46:25.995Z</time>
      </trkpt>
      <trkpt lat="46.11593" lon="2.95795">
        <ele>351.9430847168</ele>
        <time>2020-07-18T20:46:35.141Z</time>
      </trkpt>
      <trkpt lat="46.11624" lon="2.95797">
        <ele>352.95355224609</ele>
        <time>2020-07-18T20:46:44.292Z</time>
      </trkpt>
      <trkpt lat="46.11741" lon="2.95797">
        <ele>359.96017456055</ele>
        <time>2020-07-18T20:46:53.462Z</time>
      </trkpt>
      <trkpt lat="46.11757" lon="2.95799">
        <ele>360.12094116211</ele>
        <time>2020-07-18T20:47:02.635Z</time>
      </trkpt>
      <trkpt lat="46.11773" lon="2.95804">
        <ele>359.4814453125</ele>
        <time>2020-07-18T20:47:11.810Z</time>
      </trkpt>
      <trkpt lat="46.11789" lon="2.95813">
        <ele>357.62176513672</ele>
        <time>2020-07-18T20:47:20.988Z</time>
      </trkpt>
      <trkpt lat="46.11803" lon="2.95826">
        <ele>354.82141113281</ele>
        <time>2020-07-18T20:47:30.168Z</time>
      </trkpt>
      <trkpt lat="46.11918" lon="2.95951">
        <ele>361.67849731445</ele>
        <time>2020-07-18T20:47:39.372Z</time>
      </trkpt>
      <trkpt lat="46.11964" lon="2.95994">
        <ele>366.22439575195</ele>
        <time>2020-07-18T20:47:48.584Z</time>
      </trkpt>
      <trkpt lat="46.12005" lon="2.96045">
        <ele>369.04040527344</ele>
        <time>2020-07-18T20:47:57.805Z</time>
      </trkpt>
      <trkpt lat="46.12038" lon="2.96093">
        <ele>370.85946655273</ele>
        <time>2020-07-18T20:48:07.034Z</time>
      </trkpt>
      <trkpt lat="46.12054" lon="2.9612">
        <ele>368.73220825195</ele>
        <time>2020-07-18T20:48:16.267Z</time>
      </trkpt>
      <trkpt lat="46.12071" lon="2.96158">
        <ele>365.97503662109</ele>
        <time>2020-07-18T20:48:25.505Z</time>
      </trkpt>
      <trkpt lat="46.12087" lon="2.96183">
        <ele>365.22146606445</ele>
        <time>2020-07-18T20:48:34.746Z</time>
      </trkpt>
      <trkpt lat="46.12133" lon="2.96241">
        <ele>363.93646240234</ele>
        <time>2020-07-18T20:48:43.997Z</time>
      </trkpt>
      <trkpt lat="46.12159" lon="2.96284">
        <ele>362.22177124023</ele>
        <time>2020-07-18T20:48:53.254Z</time>
      </trkpt>
      <trkpt lat="46.12192" lon="2.96345">
        <ele>361.73867797852</ele>
        <time>2020-07-18T20:49:02.520Z</time>
      </trkpt>
      <trkpt lat="46.12201" lon="2.96363">
        <ele>363.40399169922</ele>
        <time>2020-07-18T20:49:11.789Z</time>
      </trkpt>
      <trkpt lat="46.12211" lon="2.96393">
        <ele>364.51382446289</ele>
        <time>2020-07-18T20:49:21.061Z</time>
      </trkpt>
      <trkpt lat="46.12216" lon="2.96445">
        <ele>364.12646484375</ele>
        <time>2020-07-18T20:49:30.339Z</time>
      </trkpt>
      <trkpt lat="46.12217" lon="2.96505">
        <ele>362.53634643555</ele>
        <time>2020-07-18T20:49:39.624Z</time>
      </trkpt>
      <trkpt lat="46.12217" lon="2.96573">
        <ele>358.62231445312</ele>
        <time>2020-07-18T20:49:48.916Z</time>
      </trkpt>
      <trkpt lat="46.12214" lon="2.96763">
        <ele>362.94549560547</ele>
        <time>2020-07-18T20:49:58.229Z</time>
      </trkpt>
      <trkpt lat="46.12209" lon="2.96797">
        <ele>365.38110351562</ele>
        <time>2020-07-18T20:50:07.546Z</time>
      </trkpt>
      <trkpt lat="46.12203" lon="2.96818">
        <ele>365.98010253906</ele>
        <time>2020-07-18T20:50:16.866Z</time>
      </trkpt>
      <trkpt lat="46.12174" lon="2.96886">
        <ele>358.13528442383</ele>
        <time>2020-07-18T20:50:26.195Z</time>
      </trkpt>
      <trkpt lat="46.12165" lon="2.96918">
        <ele>357.02786254883</ele>
        <time>2020-07-18T20:50:35.528Z</time>
      </trkpt>
      <trkpt lat="46.12162" lon="2.96941">
        <ele>354.35656738281</ele>
        <time>2020-07-18T20:50:44.863Z</time>
      </trkpt>
      <trkpt lat="46.12164" lon="2.96976">
        <ele>354.26943969727</ele>
        <time>2020-07-18T20:50:54.202Z</time>
      </trkpt>
      <trkpt lat="46.12167" lon="2.97">
        <ele>354.93893432617</ele>
        <time>2020-07-18T20:51:03.544Z</time>
      </trkpt>
      <trkpt lat="46.12173" lon="2.97037">
        <ele>353.16134643555</ele>
        <time>2020-07-18T20:51:12.890Z</time>
      </trkpt>
      <trkpt lat="46.12179" lon="2.9706">
        <ele>352.57077026367</ele>
        <time>2020-07-18T20:51:22.239Z</time>
      </trkpt>
      <trkpt lat="46.12191" lon="2.97091">
        <ele>352.52038574219</ele>
        <time>2020-07-18T20:51:31.592Z</time>
      </trkpt>
      <trkpt lat="46.12208" lon="2.97116">
        <ele>355.90383911133</ele>
        <time>2020-07-18T20:51:40.949Z</time>
      </trkpt>
      <trkpt lat="46.12218" lon="2.97135">
        <ele>357.83193969727</ele>
        <time>2020-07-18T20:51:50.308Z</time>
      </trkpt>
      <trkpt lat="46.12224" lon="2.97155">
        <ele>359.17932128906</ele>
        <time>2020-07-18T20:51:59.670Z</time>
      </trkpt>
      <trkpt lat="46.12223" lon="2.97198">
        <ele>358.06692504883</ele>
        <time>2020-07-18T20:52:09.036Z</time>
      </trkpt>
      <trkpt lat="46.12226" lon="2.97229">
        <ele>356.57916259766</ele>
        <time>2020-07-18T20:52:18.406Z</time>
      </trkpt>
      <trkpt lat="46.12232" lon="2.97249">
        <ele>357.42031860352</ele>
        <time>2020-07-18T20:52:27.778Z</time>
      </trkpt>
      <trkpt lat="46.12247" lon="2.97273">
        <ele>359.54681396484</ele>
        <time>2020-07-18T20:52:37.154Z</time>
      </trkpt>
      <trkpt lat="46.12279" lon="2.97299">
        <ele>366.67361450195</ele>
        <time>2020-07-18T20:52:46.536Z</time>
      </trkpt>
      <trkpt lat="46.12297" lon="2.97319">
        <ele>369.30117797852</ele>
        <time>2020-07-18T20:52:55.922Z</time>
      </trkpt>
      <trkpt lat="46.12351" lon="2.974">
        <ele>373.31234741211</ele>
        <time>2020-07-18T20:53:05.320Z</time>
      </trkpt>
      <trkpt lat="46.12376" lon="2.97447">
        <ele>370.74377441406</ele>
        <time>2020-07-18T20:53:14.725Z</time>
      </trkpt>
      <trkpt lat="46.12408" lon="2.97493">
        <ele>366.93637084961</ele>
        <time>2020-07-18T20:53:24.137Z</time>
      </trkpt>
      <trkpt lat="46.12423" lon="2.9751">
        <ele>365.970703125</ele>
        <time>2020-07-18T20:53:33.552Z</time>
      </trkpt>
      <trkpt lat="46.12447" lon="2.97526">
        <ele>368.67022705078</ele>
        <time>2020-07-18T20:53:42.971Z</time>
      </trkpt>
      <trkpt lat="46.12504" lon="2.97556">
        <ele>381.38385009766</ele>
        <time>2020-07-18T20:53:52.400Z</time>
      </trkpt>
      <trkpt lat="46.12516" lon="2.97566">
        <ele>384.00900268555</ele>
        <time>2020-07-18T20:54:01.831Z</time>
      </trkpt>
      <trkpt lat="46.12532" lon="2.97588">
        <ele>385.09243774414</ele>
        <time>2020-07-18T20:54:11.266Z</time>
      </trkpt>
      <trkpt lat="46.12538" lon="2.97607">
        <ele>384.84902954102</ele>
        <time>2020-07-18T20:54:20.703Z</time>
      </trkpt>
      <trkpt lat="46.12542" lon="2.97637">
        <ele>382.30786132812</ele>
        <time>2020-07-18T20:54:30.143Z</time>
      </trkpt>
      <trkpt lat="46.12555" lon="2.97686">
        <ele>383.62957763672</ele>
        <time>2020-07-18T20:54:39.589Z</time>
      </trkpt>
      <trkpt lat="46.12558" lon="2.97706">
        <ele>383.93792724609</ele>
        <time>2020-07-18T20:54:49.037Z</time>
      </trkpt>
      <trkpt lat="46.12559" lon="2.97736">
        <ele>383.93310546875</ele>
        <time>2020-07-18T20:54:58.489Z</time>
      </trkpt>
      <trkpt lat="46.12556" lon="2.97777">
        <ele>383.88415527344</ele>
        <time>2020-07-18T20:55:07.945Z</time>
      </trkpt>
      <trkpt lat="46.12557" lon="2.9783">
        <ele>386.57650756836</ele>
        <time>2020-07-18T20:55:17.407Z</time>
      </trkpt>
      <trkpt lat="46.12552" lon="2.97849">
        <ele>386.09103393555</ele>
        <time>2020-07-18T20:55:26.871Z</time>
      </trkpt>
      <trkpt lat="46.12542" lon="2.97859">
        <ele>384.34414672852</ele>
        <time>2020-07-18T20:55:36.337Z</time>
      </trkpt>
      <trkpt lat="46.12505" lon="2.97858">
        <ele>369.90814208984</ele>
        <time>2020-07-18T20:55:45.809Z</time>
      </trkpt>
      <trkpt lat="46.12492" lon="2.97876">
        <ele>365.25854492188</ele>
        <time>2020-07-18T20:55:55.284Z</time>
      </trkpt>
      <trkpt lat="46.12485" lon="2.97912">
        <ele>362.10787963867</ele>
        <time>2020-07-18T20:56:04.763Z</time>
      </trkpt>
      <trkpt lat="46.12486" lon="2.97987">
        <ele>365.18707275391</ele>
        <time>2020-07-18T20:56:14.251Z</time>
      </trkpt>
      <trkpt lat="46.12482" lon="2.98009">
        <ele>363.90188598633</ele>
        <time>2020-07-18T20:56:23.741Z</time>
      </trkpt>
      <trkpt lat="46.12471" lon="2.98037">
        <ele>362.0686340332</ele>
        <time>2020-07-18T20:56:33.235Z</time>
      </trkpt>
      <trkpt lat="46.12468" lon="2.98058">
        <ele>362.10580444336</ele>
        <time>2020-07-18T20:56:42.731Z</time>
      </trkpt>
      <trkpt lat="46.12471" lon="2.98081">
        <ele>362.07342529297</ele>
        <time>2020-07-18T20:56:52.230Z</time>
      </trkpt>
      <trkpt lat="46.12477" lon="2.98106">
        <ele>360.93978881836</ele>
        <time>2020-07-18T20:57:01.732Z</time>
      </trkpt>
      <trkpt lat="46.12484" lon="2.98131">
        <ele>361.38906860352</ele>
        <time>2020-07-18T20:57:11.237Z</time>
      </trkpt>
      <trkpt lat="46.12493" lon="2.98154">
        <ele>362.59127807617</ele>
        <time>2020-07-18T20:57:20.745Z</time>
      </trkpt>
      <trkpt lat="46.125" lon="2.98183">
        <ele>363.69519042969</ele>
        <time>2020-07-18T20:57:30.256Z</time>
      </trkpt>
      <trkpt lat="46.12477" lon="2.98225">
        <ele>357.1770324707</ele>
        <time>2020-07-18T20:57:39.773Z</time>
      </trkpt>
      <trkpt lat="46.1247" lon="2.9826">
        <ele>356.94515991211</ele>
        <time>2020-07-18T20:57:49.294Z</time>
      </trkpt>
      <trkpt lat="46.12472" lon="2.98285">
        <ele>355.4358215332</ele>
        <time>2020-07-18T20:57:58.818Z</time>
      </trkpt>
      <trkpt lat="46.12486" lon="2.98317">
        <ele>357.26849365234</ele>
        <time>2020-07-18T20:58:08.346Z</time>
      </trkpt>
      <trkpt lat="46.12516" lon="2.9836">
        <ele>364.84478759766</ele>
        <time>2020-07-18T20:58:17.881Z</time>
      </trkpt>
      <trkpt lat="46.12528" lon="2.9838">
        <ele>366.53649902344</ele>
        <time>2020-07-18T20:58:27.419Z</time>
      </trkpt>
      <trkpt lat="46.12539" lon="2.98413">
        <ele>366.48373413086</ele>
        <time>2020-07-18T20:58:36.961Z</time>
      </trkpt>
      <trkpt lat="46.12545" lon="2.98448">
        <ele>367.33697509766</ele>
        <time>2020-07-18T20:58:46.507Z</time>
      </trkpt>
      <trkpt lat="46.12555" lon="2.98581">
        <ele>370.31060791016</ele>
        <time>2020-07-18T20:58:56.068Z</time>
      </trkpt>
      <trkpt lat="46.12568" lon="2.9864">
        <ele>373.60055541992</ele>
        <time>2020-07-18T20:59:05.636Z</time>
      </trkpt>
      <trkpt lat="46.12569" lon="2.98664">
        <ele>372.28317260742</ele>
        <time>2020-07-18T20:59:15.206Z</time>
      </trkpt>
      <trkpt lat="46.12566" lon="2.98688">
        <ele>370.97311401367</ele>
        <time>2020-07-18T20:59:24.779Z</time>
      </trkpt>
      <trkpt lat="46.12556" lon="2.98733">
        <ele>371.91946411133</ele>
        <time>2020-07-18T20:59:34.357Z</time>
      </trkpt>
      <trkpt lat="46.12547" lon="2.98764">
        <ele>371.05786132812</ele>
        <time>2020-07-18T20:59:43.939Z</time>
      </trkpt>
      <trkpt lat="46.12528" lon="2.9882">
        <ele>367.53863525391</ele>
        <time>2020-07-18T20:59:53.528Z</time>
      </trkpt>
      <trkpt lat="46.12522" lon="2.98844">
        <ele>364.49502563477</ele>
        <time>2020-07-18T21:00:03.120Z</time>
      </trkpt>
      <trkpt lat="46.12507" lon="2.98957">
        <ele>361.62164306641</ele>
        <time>2020-07-18T21:00:12.725Z</time>
      </trkpt>
      <trkpt lat="46.12484" lon="2.99156">
        <ele>356.03472900391</ele>
        <time>2020-07-18T21:00:22.352Z</time>
      </trkpt>
      <trkpt lat="46.12475" lon="2.99185">
        <ele>353.56497192383</ele>
        <time>2020-07-18T21:00:31.983Z</time>
      </trkpt>
      <trkpt lat="46.12437" lon="2.99286">
        <ele>347.99822998047</ele>
        <time>2020-07-18T21:00:41.626Z</time>
      </trkpt>
      <trkpt lat="46.1242" lon="2.99342">
        <ele>346.25518798828</ele>
        <time>2020-07-18T21:00:51.276Z</time>
      </trkpt>
      <trkpt lat="46.12405" lon="2.99382">
        <ele>345.85583496094</ele>
        <time>2020-07-18T21:01:00.931Z</time>
      </trkpt>
      <trkpt lat="46.12339" lon="2.99518">
        <ele>346.68353271484</ele>
        <time>2020-07-18T21:01:10.605Z</time>
      </trkpt>
      <trkpt lat="46.12221" lon="2.99774">
        <ele>350.90536499023</ele>
        <time>2020-07-18T21:01:20.313Z</time>
      </trkpt>
      <trkpt lat="46.12182" lon="2.99856">
        <ele>350.08975219727</ele>
        <time>2020-07-18T21:01:30.032Z</time>
      </trkpt>
      <trkpt lat="46.12042" lon="3.00176">
        <ele>343.54699707031</ele>
        <time>2020-07-18T21:01:39.793Z</time>
      </trkpt>
      <trkpt lat="46.12032" lon="3.00197">
        <ele>348.81411743164</ele>
        <time>2020-07-18T21:01:49.557Z</time>
      </trkpt>
      <trkpt lat="46.12015" lon="3.00226">
        <ele>353.28634643555</ele>
        <time>2020-07-18T21:01:59.325Z</time>
      </trkpt>
      <trkpt lat="46.11996" lon="3.00249">
        <ele>350.56759643555</ele>
        <time>2020-07-18T21:02:09.097Z</time>
      </trkpt>
      <trkpt lat="46.11978" lon="3.00266">
        <ele>348.78070068359</ele>
        <time>2020-07-18T21:02:18.873Z</time>
      </trkpt>
      <trkpt lat="46.11953" lon="3.00283">
        <ele>351.20449829102</ele>
        <time>2020-07-18T21:02:28.653Z</time>
      </trkpt>
      <trkpt lat="46.1193" lon="3.00291">
        <ele>350.72579956055</ele>
        <time>2020-07-18T21:02:38.437Z</time>
      </trkpt>
      <trkpt lat="46.11887" lon="3.00293">
        <ele>343.71746826172</ele>
        <time>2020-07-18T21:02:48.228Z</time>
      </trkpt>
      <trkpt lat="46.11875" lon="3.00296">
        <ele>344.85488891602</ele>
        <time>2020-07-18T21:02:58.021Z</time>
      </trkpt>
      <trkpt lat="46.11864" lon="3.00304">
        <ele>346.97494506836</ele>
        <time>2020-07-18T21:03:07.816Z</time>
      </trkpt>
      <trkpt lat="46.11852" lon="3.00329">
        <ele>345.35757446289</ele>
        <time>2020-07-18T21:03:17.614Z</time>
      </trkpt>
      <trkpt lat="46.1185" lon="3.00351">
        <ele>345.53091430664</ele>
        <time>2020-07-18T21:03:27.414Z</time>
      </trkpt>
      <trkpt lat="46.11851" lon="3.00374">
        <ele>348.61441040039</ele>
        <time>2020-07-18T21:03:37.217Z</time>
      </trkpt>
      <trkpt lat="46.11849" lon="3.00412">
        <ele>348.91976928711</ele>
        <time>2020-07-18T21:03:47.024Z</time>
      </trkpt>
      <trkpt lat="46.11816" lon="3.0053">
        <ele>347.46716308594</ele>
        <time>2020-07-18T21:03:56.845Z</time>
      </trkpt>
      <trkpt lat="46.11807" lon="3.00554">
        <ele>347.35461425781</ele>
        <time>2020-07-18T21:04:06.669Z</time>
      </trkpt>
      <trkpt lat="46.11726" lon="3.00713">
        <ele>349.49627685547</ele>
        <time>2020-07-18T21:04:16.515Z</time>
      </trkpt>
      <trkpt lat="46.11676" lon="3.00805">
        <ele>350.65396118164</ele>
        <time>2020-07-18T21:04:26.374Z</time>
      </trkpt>
      <trkpt lat="46.11652" lon="3.00844">
        <ele>346.22723388672</ele>
        <time>2020-07-18T21:04:36.239Z</time>
      </trkpt>
      <trkpt lat="46.11639" lon="3.0086">
        <ele>346.88693237305</ele>
        <time>2020-07-18T21:04:46.107Z</time>
      </trkpt>
      <trkpt lat="46.11623" lon="3.00873">
        <ele>348.5090637207</ele>
        <time>2020-07-18T21:04:55.978Z</time>
      </trkpt>
      <trkpt lat="46.11555" lon="3.00923">
        <ele>341.18890380859</ele>
        <time>2020-07-18T21:05:05.861Z</time>
      </trkpt>
      <trkpt lat="46.11536" lon="3.00943">
        <ele>343.50161743164</ele>
        <time>2020-07-18T21:05:15.748Z</time>
      </trkpt>
      <trkpt lat="46.11516" lon="3.00976">
        <ele>348.759765625</ele>
        <time>2020-07-18T21:05:25.640Z</time>
      </trkpt>
      <trkpt lat="46.11504" lon="3.00992">
        <ele>347.96548461914</ele>
        <time>2020-07-18T21:05:35.534Z</time>
      </trkpt>
      <trkpt lat="46.11488" lon="3.01001">
        <ele>345.00680541992</ele>
        <time>2020-07-18T21:05:45.431Z</time>
      </trkpt>
      <trkpt lat="46.11473" lon="3.01013">
        <ele>343.62496948242</ele>
        <time>2020-07-18T21:05:55.331Z</time>
      </trkpt>
      <trkpt lat="46.11414" lon="3.01084">
        <ele>345.77484130859</ele>
        <time>2020-07-18T21:06:05.243Z</time>
      </trkpt>
      <trkpt lat="46.11323" lon="3.01168">
        <ele>340.18099975586</ele>
        <time>2020-07-18T21:06:15.172Z</time>
      </trkpt>
      <trkpt lat="46.11294" lon="3.01189">
        <ele>339.00610351562</ele>
        <time>2020-07-18T21:06:25.107Z</time>
      </trkpt>
      <trkpt lat="46.11273" lon="3.01202">
        <ele>339.15246582031</ele>
        <time>2020-07-18T21:06:35.045Z</time>
      </trkpt>
      <trkpt lat="46.11147" lon="3.01269">
        <ele>342.20761108398</ele>
        <time>2020-07-18T21:06:45.005Z</time>
      </trkpt>
      <trkpt lat="46.11063" lon="3.01318">
        <ele>345.70574951172</ele>
        <time>2020-07-18T21:06:54.979Z</time>
      </trkpt>
      <trkpt lat="46.11037" lon="3.01336">
        <ele>346.38101196289</ele>
        <time>2020-07-18T21:07:04.958Z</time>
      </trkpt>
      <trkpt lat="46.10998" lon="3.01358">
        <ele>341.89361572266</ele>
        <time>2020-07-18T21:07:14.944Z</time>
      </trkpt>
      <trkpt lat="46.10981" lon="3.01374">
        <ele>341.78088378906</ele>
        <time>2020-07-18T21:07:24.933Z</time>
      </trkpt>
      <trkpt lat="46.10975" lon="3.01391">
        <ele>343.30017089844</ele>
        <time>2020-07-18T21:07:34.924Z</time>
      </trkpt>
      <trkpt lat="46.10976" lon="3.01421">
        <ele>347.20672607422</ele>
        <time>2020-07-18T21:07:44.918Z</time>
      </trkpt>
      <trkpt lat="46.10988" lon="3.01496">
        <ele>349.08752441406</ele>
        <time>2020-07-18T21:07:54.921Z</time>
      </trkpt>
      <trkpt lat="46.10995" lon="3.01553">
        <ele>349.94781494141</ele>
        <time>2020-07-18T21:08:04.930Z</time>
      </trkpt>
      <trkpt lat="46.11003" lon="3.01583">
        <ele>351.04443359375</ele>
        <time>2020-07-18T21:08:14.943Z</time>
      </trkpt>
      <trkpt lat="46.11016" lon="3.0161">
        <ele>351.00619506836</ele>
        <time>2020-07-18T21:08:24.960Z</time>
      </trkpt>
      <trkpt lat="46.11024" lon="3.0162">
        <ele>350.91979980469</ele>
        <time>2020-07-18T21:08:34.978Z</time>
      </trkpt>
      <trkpt lat="46.11086" lon="3.01673">
        <ele>352.27618408203</ele>
        <time>2020-07-18T21:08:45.008Z</time>
      </trkpt>
      <trkpt lat="46.11095" lon="3.01683">
        <ele>352.89608764648</ele>
        <time>2020-07-18T21:08:55.040Z</time>
      </trkpt>
      <trkpt lat="46.11102" lon="3.01695">
        <ele>353.46719360352</ele>
        <time>2020-07-18T21:09:05.073Z</time>
      </trkpt>
      <trkpt lat="46.11108" lon="3.01715">
        <ele>354.01312255859</ele>
        <time>2020-07-18T21:09:15.109Z</time>
      </trkpt>
      <trkpt lat="46.11111" lon="3.01737">
        <ele>354.27346801758</ele>
        <time>2020-07-18T21:09:25.147Z</time>
      </trkpt>
      <trkpt lat="46.11113" lon="3.01775">
        <ele>355.59710693359</ele>
        <time>2020-07-18T21:09:35.190Z</time>
      </trkpt>
      <trkpt lat="46.11119" lon="3.01952">
        <ele>362.06478881836</ele>
        <time>2020-07-18T21:09:45.252Z</time>
      </trkpt>
      <trkpt lat="46.11117" lon="3.01976">
        <ele>361.78884887695</ele>
        <time>2020-07-18T21:09:55.317Z</time>
      </trkpt>
      <trkpt lat="46.11112" lon="3.01991">
        <ele>361.87487792969</ele>
        <time>2020-07-18T21:10:05.384Z</time>
      </trkpt>
      <trkpt lat="46.11105" lon="3.02004">
        <ele>362.03564453125</ele>
        <time>2020-07-18T21:10:15.453Z</time>
      </trkpt>
      <trkpt lat="46.11092" lon="3.0202">
        <ele>361.57662963867</ele>
        <time>2020-07-18T21:10:25.524Z</time>
      </trkpt>
      <trkpt lat="46.11078" lon="3.02032">
        <ele>361.05395507812</ele>
        <time>2020-07-18T21:10:35.598Z</time>
      </trkpt>
      <trkpt lat="46.11067" lon="3.02038">
        <ele>360.97836303711</ele>
        <time>2020-07-18T21:10:45.674Z</time>
      </trkpt>
      <trkpt lat="46.1105" lon="3.02042">
        <ele>360.98736572266</ele>
        <time>2020-07-18T21:10:55.753Z</time>
      </trkpt>
      <trkpt lat="46.11009" lon="3.02044">
        <ele>361.0198059082</ele>
        <time>2020-07-18T21:11:05.838Z</time>
      </trkpt>
      <trkpt lat="46.10997" lon="3.02045">
        <ele>360.81106567383</ele>
        <time>2020-07-18T21:11:15.925Z</time>
      </trkpt>
      <trkpt lat="46.10986" lon="3.02051">
        <ele>360.74984741211</ele>
        <time>2020-07-18T21:11:26.014Z</time>
      </trkpt>
      <trkpt lat="46.10976" lon="3.0206">
        <ele>360.78381347656</ele>
        <time>2020-07-18T21:11:36.105Z</time>
      </trkpt>
      <trkpt lat="46.10914" lon="3.02154">
        <ele>365.42590332031</ele>
        <time>2020-07-18T21:11:46.210Z</time>
      </trkpt>
      <trkpt lat="46.10893" lon="3.0218">
        <ele>367.44464111328</ele>
        <time>2020-07-18T21:11:56.320Z</time>
      </trkpt>
      <trkpt lat="46.10861" lon="3.02212">
        <ele>368.53405761719</ele>
        <time>2020-07-18T21:12:06.436Z</time>
      </trkpt>
      <trkpt lat="46.10841" lon="3.02225">
        <ele>368.81973266602</ele>
        <time>2020-07-18T21:12:16.556Z</time>
      </trkpt>
      <trkpt lat="46.10792" lon="3.02247">
        <ele>369.79769897461</ele>
        <time>2020-07-18T21:12:26.684Z</time>
      </trkpt>
      <trkpt lat="46.10775" lon="3.02251">
        <ele>370.65197753906</ele>
        <time>2020-07-18T21:12:36.814Z</time>
      </trkpt>
      <trkpt lat="46.10754" lon="3.0225">
        <ele>371.10308837891</ele>
        <time>2020-07-18T21:12:46.948Z</time>
      </trkpt>
      <trkpt lat="46.10692" lon="3.0224">
        <ele>371.57131958008</ele>
        <time>2020-07-18T21:12:57.092Z</time>
      </trkpt>
      <trkpt lat="46.10669" lon="3.02239">
        <ele>371.95526123047</ele>
        <time>2020-07-18T21:13:07.239Z</time>
      </trkpt>
      <trkpt lat="46.10654" lon="3.02247">
        <ele>373.33984375</ele>
        <time>2020-07-18T21:13:17.389Z</time>
      </trkpt>
      <trkpt lat="46.10646" lon="3.02258">
        <ele>374.78439331055</ele>
        <time>2020-07-18T21:13:27.541Z</time>
      </trkpt>
      <trkpt lat="46.10641" lon="3.0227">
        <ele>375.19528198242</ele>
        <time>2020-07-18T21:13:37.694Z</time>
      </trkpt>
      <trkpt lat="46.10612" lon="3.02369">
        <ele>373.91461181641</ele>
        <time>2020-07-18T21:13:47.859Z</time>
      </trkpt>
      <trkpt lat="46.10607" lon="3.0239">
        <ele>372.94451904297</ele>
        <time>2020-07-18T21:13:58.027Z</time>
      </trkpt>
      <trkpt lat="46.10604" lon="3.02412">
        <ele>372.65896606445</ele>
        <time>2020-07-18T21:14:08.197Z</time>
      </trkpt>
      <trkpt lat="46.106" lon="3.02471">
        <ele>371.69171142578</ele>
        <time>2020-07-18T21:14:18.374Z</time>
      </trkpt>
      <trkpt lat="46.10593" lon="3.02521">
        <ele>369.71389770508</ele>
        <time>2020-07-18T21:14:28.557Z</time>
      </trkpt>
      <trkpt lat="46.10591" lon="3.02562">
        <ele>367.48519897461</ele>
        <time>2020-07-18T21:14:38.744Z</time>
      </trkpt>
      <trkpt lat="46.1061" lon="3.02615">
        <ele>367.6806640625</ele>
        <time>2020-07-18T21:14:48.938Z</time>
      </trkpt>
      <trkpt lat="46.10614" lon="3.02646">
        <ele>367.74234008789</ele>
        <time>2020-07-18T21:14:59.135Z</time>
      </trkpt>
      <trkpt lat="46.10609" lon="3.02677">
        <ele>364.8125</ele>
        <time>2020-07-18T21:15:09.336Z</time>
      </trkpt>
      <trkpt lat="46.10606" lon="3.02725">
        <ele>364.07739257812</ele>
        <time>2020-07-18T21:15:19.542Z</time>
      </trkpt>
      <trkpt lat="46.10613" lon="3.02774">
        <ele>363.646484375</ele>
        <time>2020-07-18T21:15:29.754Z</time>
      </trkpt>
      <trkpt lat="46.1064" lon="3.0292">
        <ele>359.71881103516</ele>
        <time>2020-07-18T21:15:39.983Z</time>
      </trkpt>
      <trkpt lat="46.10649" lon="3.02951">
        <ele>357.83065795898</ele>
        <time>2020-07-18T21:15:50.215Z</time>
      </trkpt>
      <trkpt lat="46.10688" lon="3.0307">
        <ele>351.59674072266</ele>
        <time>2020-07-18T21:16:00.462Z</time>
      </trkpt>
      <trkpt lat="46.10696" lon="3.031">
        <ele>350.89318847656</ele>
        <time>2020-07-18T21:16:10.713Z</time>
      </trkpt>
      <trkpt lat="46.10708" lon="3.03187">
        <ele>352.8740234375</ele>
        <time>2020-07-18T21:16:20.973Z</time>
      </trkpt>
      <trkpt lat="46.10729" lon="3.03251">
        <ele>353.01013183594</ele>
        <time>2020-07-18T21:16:31.241Z</time>
      </trkpt>
      <trkpt lat="46.10733" lon="3.03277">
        <ele>353.1091003418</ele>
        <time>2020-07-18T21:16:41.512Z</time>
      </trkpt>
      <trkpt lat="46.10733" lon="3.03303">
        <ele>352.18405151367</ele>
        <time>2020-07-18T21:16:51.786Z</time>
      </trkpt>
      <trkpt lat="46.10729" lon="3.0335">
        <ele>349.3518371582</ele>
        <time>2020-07-18T21:17:02.065Z</time>
      </trkpt>
      <trkpt lat="46.10732" lon="3.03385">
        <ele>349.11068725586</ele>
        <time>2020-07-18T21:17:12.348Z</time>
      </trkpt>
      <trkpt lat="46.10737" lon="3.03407">
        <ele>350.04653930664</ele>
        <time>2020-07-18T21:17:22.634Z</time>
      </trkpt>
      <trkpt lat="46.10754" lon="3.03457">
        <ele>351.83581542969</ele>
        <time>2020-07-18T21:17:32.926Z</time>
      </trkpt>
      <trkpt lat="46.10775" lon="3.03502">
        <ele>355.29846191406</ele>
        <time>2020-07-18T21:17:43.224Z</time>
      </trkpt>
      <trkpt lat="46.10788" lon="3.03539">
        <ele>356.43490600586</ele>
        <time>2020-07-18T21:17:53.527Z</time>
      </trkpt>
      <trkpt lat="46.10806" lon="3.03606">
        <ele>356.927734375</ele>
        <time>2020-07-18T21:18:03.838Z</time>
      </trkpt>
      <trkpt lat="46.10813" lon="3.03636">
        <ele>357.13314819336</ele>
        <time>2020-07-18T21:18:14.152Z</time>
      </trkpt>
      <trkpt lat="46.10819" lon="3.03687">
        <ele>355.96887207031</ele>
        <time>2020-07-18T21:18:24.472Z</time>
      </trkpt>
      <trkpt lat="46.10825" lon="3.03814">
        <ele>348.17770385742</ele>
        <time>2020-07-18T21:18:34.806Z</time>
      </trkpt>
      <trkpt lat="46.10827" lon="3.03834">
        <ele>347.59579467773</ele>
        <time>2020-07-18T21:18:45.143Z</time>
      </trkpt>
      <trkpt lat="46.10833" lon="3.03852">
        <ele>348.57302856445</ele>
        <time>2020-07-18T21:18:55.482Z</time>
      </trkpt>
      <trkpt lat="46.10845" lon="3.03859">
        <ele>351.40454101562</ele>
        <time>2020-07-18T21:19:05.823Z</time>
      </trkpt>
      <trkpt lat="46.10873" lon="3.03851">
        <ele>358.00344848633</ele>
        <time>2020-07-18T21:19:16.168Z</time>
      </trkpt>
      <trkpt lat="46.10894" lon="3.03849">
        <ele>363.20004272461</ele>
        <time>2020-07-18T21:19:26.517Z</time>
      </trkpt>
      <trkpt lat="46.10908" lon="3.03852">
        <ele>366.26089477539</ele>
        <time>2020-07-18T21:19:36.868Z</time>
      </trkpt>
      <trkpt lat="46.10918" lon="3.03864">
        <ele>368.4817199707</ele>
        <time>2020-07-18T21:19:47.221Z</time>
      </trkpt>
      <trkpt lat="46.10913" lon="3.0388">
        <ele>367.37176513672</ele>
        <time>2020-07-18T21:19:57.576Z</time>
      </trkpt>
      <trkpt lat="46.10901" lon="3.03889">
        <ele>364.68179321289</ele>
        <time>2020-07-18T21:20:07.933Z</time>
      </trkpt>
      <trkpt lat="46.1087" lon="3.0393">
        <ele>357.96371459961</ele>
        <time>2020-07-18T21:20:18.297Z</time>
      </trkpt>
      <trkpt lat="46.10846" lon="3.03952">
        <ele>357.56777954102</ele>
        <time>2020-07-18T21:20:28.665Z</time>
      </trkpt>
      <trkpt lat="46.10837" lon="3.03968">
        <ele>356.20861816406</ele>
        <time>2020-07-18T21:20:39.036Z</time>
      </trkpt>
      <trkpt lat="46.10833" lon="3.03987">
        <ele>355.66149902344</ele>
        <time>2020-07-18T21:20:49.409Z</time>
      </trkpt>
      <trkpt lat="46.10829" lon="3.04029">
        <ele>357.65707397461</ele>
        <time>2020-07-18T21:20:59.787Z</time>
      </trkpt>
      <trkpt lat="46.10821" lon="3.04044">
        <ele>358.01461791992</ele>
        <time>2020-07-18T21:21:10.167Z</time>
      </trkpt>
      <trkpt lat="46.10806" lon="3.04064">
        <ele>357.03918457031</ele>
        <time>2020-07-18T21:21:20.550Z</time>
      </trkpt>
      <trkpt lat="46.10777" lon="3.04124">
        <ele>360.81747436523</ele>
        <time>2020-07-18T21:21:30.941Z</time>
      </trkpt>
      <trkpt lat="46.10762" lon="3.04146">
        <ele>360.81686401367</ele>
        <time>2020-07-18T21:21:41.336Z</time>
      </trkpt>
      <trkpt lat="46.1075" lon="3.04159">
        <ele>359.69024658203</ele>
        <time>2020-07-18T21:21:51.733Z</time>
      </trkpt>
      <trkpt lat="46.10738" lon="3.0417">
        <ele>357.57379150391</ele>
        <time>2020-07-18T21:22:02.132Z</time>
      </trkpt>
      <trkpt lat="46.10697" lon="3.04192">
        <ele>352.69131469727</ele>
        <time>2020-07-18T21:22:12.538Z</time>
      </trkpt>
      <trkpt lat="46.10684" lon="3.04201">
        <ele>352.30499267578</ele>
        <time>2020-07-18T21:22:22.947Z</time>
      </trkpt>
      <trkpt lat="46.10668" lon="3.04222">
        <ele>353.53033447266</ele>
        <time>2020-07-18T21:22:33.359Z</time>
      </trkpt>
      <trkpt lat="46.10651" lon="3.04269">
        <ele>359.8424987793</ele>
        <time>2020-07-18T21:22:43.777Z</time>
      </trkpt>
      <trkpt lat="46.10642" lon="3.04285">
        <ele>360.57678222656</ele>
        <time>2020-07-18T21:22:54.197Z</time>
      </trkpt>
      <trkpt lat="46.10588" lon="3.04363">
        <ele>354.95327758789</ele>
        <time>2020-07-18T21:23:04.629Z</time>
      </trkpt>
      <trkpt lat="46.1057" lon="3.04398">
        <ele>358.31582641602</ele>
        <time>2020-07-18T21:23:15.066Z</time>
      </trkpt>
      <trkpt lat="46.1055" lon="3.04413">
        <ele>357.35678100586</ele>
        <time>2020-07-18T21:23:25.507Z</time>
      </trkpt>
      <trkpt lat="46.10537" lon="3.04426">
        <ele>354.94497680664</ele>
        <time>2020-07-18T21:23:35.950Z</time>
      </trkpt>
      <trkpt lat="46.10516" lon="3.0446">
        <ele>353.91287231445</ele>
        <time>2020-07-18T21:23:46.398Z</time>
      </trkpt>
      <trkpt lat="46.10486" lon="3.04477">
        <ele>348.34317016602</ele>
        <time>2020-07-18T21:23:56.852Z</time>
      </trkpt>
      <trkpt lat="46.10471" lon="3.04489">
        <ele>347.69915771484</ele>
        <time>2020-07-18T21:24:07.308Z</time>
      </trkpt>
      <trkpt lat="46.10458" lon="3.04505">
        <ele>346.57406616211</ele>
        <time>2020-07-18T21:24:17.767Z</time>
      </trkpt>
      <trkpt lat="46.10447" lon="3.04525">
        <ele>343.83465576172</ele>
        <time>2020-07-18T21:24:28.229Z</time>
      </trkpt>
      <trkpt lat="46.10454" lon="3.04559">
        <ele>346.88812255859</ele>
        <time>2020-07-18T21:24:38.695Z</time>
      </trkpt>
      <trkpt lat="46.10466" lon="3.04578">
        <ele>351.02264404297</ele>
        <time>2020-07-18T21:24:49.164Z</time>
      </trkpt>
      <trkpt lat="46.10476" lon="3.04599">
        <ele>354.80859375</ele>
        <time>2020-07-18T21:24:59.636Z</time>
      </trkpt>
      <trkpt lat="46.10474" lon="3.04625">
        <ele>354.4846496582</ele>
        <time>2020-07-18T21:25:10.110Z</time>
      </trkpt>
      <trkpt lat="46.10459" lon="3.04633">
        <ele>351.1803894043</ele>
        <time>2020-07-18T21:25:20.587Z</time>
      </trkpt>
      <trkpt lat="46.10435" lon="3.04618">
        <ele>345.99725341797</ele>
        <time>2020-07-18T21:25:31.068Z</time>
      </trkpt>
      <trkpt lat="46.1041" lon="3.04607">
        <ele>340.5549621582</ele>
        <time>2020-07-18T21:25:41.553Z</time>
      </trkpt>
      <trkpt lat="46.10383" lon="3.04605">
        <ele>337.47988891602</ele>
        <time>2020-07-18T21:25:52.043Z</time>
      </trkpt>
      <trkpt lat="46.10366" lon="3.0461">
        <ele>335.62377929688</ele>
        <time>2020-07-18T21:26:02.536Z</time>
      </trkpt>
      <trkpt lat="46.1035" lon="3.04624">
        <ele>335.62258911133</ele>
        <time>2020-07-18T21:26:13.032Z</time>
      </trkpt>
      <trkpt lat="46.10338" lon="3.04644">
        <ele>336.65014648438</ele>
        <time>2020-07-18T21:26:23.530Z</time>
      </trkpt>
      <trkpt lat="46.10327" lon="3.0468">
        <ele>340.23629760742</ele>
        <time>2020-07-18T21:26:34.033Z</time>
      </trkpt>
      <trkpt lat="46.10326" lon="3.04706">
        <ele>342.46322631836</ele>
        <time>2020-07-18T21:26:44.539Z</time>
      </trkpt>
      <trkpt lat="46.10323" lon="3.04732">
        <ele>344.47528076172</ele>
        <time>2020-07-18T21:26:55.048Z</time>
      </trkpt>
      <trkpt lat="46.10312" lon="3.04752">
        <ele>344.63125610352</ele>
        <time>2020-07-18T21:27:05.560Z</time>
      </trkpt>
      <trkpt lat="46.10244" lon="3.04816">
        <ele>335.99517822266</ele>
        <time>2020-07-18T21:27:16.085Z</time>
      </trkpt>
      <trkpt lat="46.1023" lon="3.04831">
        <ele>334.71859741211</ele>
        <time>2020-07-18T21:27:26.612Z</time>
      </trkpt>
      <trkpt lat="46.10218" lon="3.04849">
        <ele>334.40454101562</ele>
        <time>2020-07-18T21:27:37.142Z</time>
      </trkpt>
      <trkpt lat="46.10205" lon="3.04879">
        <ele>335.14120483398</ele>
        <time>2020-07-18T21:27:47.676Z</time>
      </trkpt>
      <trkpt lat="46.102" lon="3.04902">
        <ele>336.32348632812</ele>
        <time>2020-07-18T21:27:58.213Z</time>
      </trkpt>
      <trkpt lat="46.10197" lon="3.04927">
        <ele>337.00430297852</ele>
        <time>2020-07-18T21:28:08.753Z</time>
      </trkpt>
      <trkpt lat="46.10194" lon="3.04975">
        <ele>335.39898681641</ele>
        <time>2020-07-18T21:28:19.298Z</time>
      </trkpt>
      <trkpt lat="46.10193" lon="3.05067">
        <ele>333.19119262695</ele>
        <time>2020-07-18T21:28:29.853Z</time>
      </trkpt>
      <trkpt lat="46.10196" lon="3.05089">
        <ele>333.05920410156</ele>
        <time>2020-07-18T21:28:40.411Z</time>
      </trkpt>
      <trkpt lat="46.10201" lon="3.05111">
        <ele>333.42611694336</ele>
        <time>2020-07-18T21:28:50.971Z</time>
      </trkpt>
      <trkpt lat="46.10296" lon="3.05414">
        <ele>334.89535522461</ele>
        <time>2020-07-18T21:29:01.568Z</time>
      </trkpt>
      <trkpt lat="46.10305" lon="3.05444">
        <ele>334.72619628906</ele>
        <time>2020-07-18T21:29:12.169Z</time>
      </trkpt>
      <trkpt lat="46.10342" lon="3.05542">
        <ele>336.23941040039</ele>
        <time>2020-07-18T21:29:22.782Z</time>
      </trkpt>
      <trkpt lat="46.10416" lon="3.05785">
        <ele>335.55239868164</ele>
        <time>2020-07-18T21:29:33.425Z</time>
      </trkpt>
      <trkpt lat="46.10425" lon="3.05827">
        <ele>335.60037231445</ele>
        <time>2020-07-18T21:29:44.073Z</time>
      </trkpt>
      <trkpt lat="46.10437" lon="3.05902">
        <ele>336.94458007812</ele>
        <time>2020-07-18T21:29:54.729Z</time>
      </trkpt>
      <trkpt lat="46.10437" lon="3.05923">
        <ele>336.42144775391</ele>
        <time>2020-07-18T21:30:05.388Z</time>
      </trkpt>
      <trkpt lat="46.10434" lon="3.05945">
        <ele>336.25631713867</ele>
        <time>2020-07-18T21:30:16.049Z</time>
      </trkpt>
      <trkpt lat="46.10425" lon="3.05975">
        <ele>335.1008605957</ele>
        <time>2020-07-18T21:30:26.714Z</time>
      </trkpt>
      <trkpt lat="46.10407" lon="3.06009">
        <ele>332.98681640625</ele>
        <time>2020-07-18T21:30:37.384Z</time>
      </trkpt>
      <trkpt lat="46.104" lon="3.06029">
        <ele>331.97125244141</ele>
        <time>2020-07-18T21:30:48.056Z</time>
      </trkpt>
      <trkpt lat="46.10396" lon="3.06051">
        <ele>331.98565673828</ele>
        <time>2020-07-18T21:30:58.730Z</time>
      </trkpt>
      <trkpt lat="46.10395" lon="3.06072">
        <ele>332.5651550293</ele>
        <time>2020-07-18T21:31:09.407Z</time>
      </trkpt>
      <trkpt lat="46.10399" lon="3.06126">
        <ele>333.51397705078</ele>
        <time>2020-07-18T21:31:20.090Z</time>
      </trkpt>
      <trkpt lat="46.10433" lon="3.06309">
        <ele>331.37182617188</ele>
        <time>2020-07-18T21:31:30.794Z</time>
      </trkpt>
      <trkpt lat="46.10445" lon="3.0635">
        <ele>330.39608764648</ele>
        <time>2020-07-18T21:31:41.503Z</time>
      </trkpt>
      <trkpt lat="46.10465" lon="3.06396">
        <ele>330.91918945312</ele>
        <time>2020-07-18T21:31:52.218Z</time>
      </trkpt>
      <trkpt lat="46.10479" lon="3.06437">
        <ele>330.72274780273</ele>
        <time>2020-07-18T21:32:02.938Z</time>
      </trkpt>
      <trkpt lat="46.10495" lon="3.06529">
        <ele>328.21371459961</ele>
        <time>2020-07-18T21:32:13.669Z</time>
      </trkpt>
      <trkpt lat="46.10518" lon="3.06683">
        <ele>324.59399414062</ele>
        <time>2020-07-18T21:32:24.417Z</time>
      </trkpt>
      <trkpt lat="46.10523" lon="3.06707">
        <ele>323.26220703125</ele>
        <time>2020-07-18T21:32:35.168Z</time>
      </trkpt>
      <trkpt lat="46.1053" lon="3.0673">
        <ele>322.02880859375</ele>
        <time>2020-07-18T21:32:45.922Z</time>
      </trkpt>
      <trkpt lat="46.10541" lon="3.06752">
        <ele>321.02337646484</ele>
        <time>2020-07-18T21:32:56.679Z</time>
      </trkpt>
      <trkpt lat="46.10556" lon="3.06769">
        <ele>320.30111694336</ele>
        <time>2020-07-18T21:33:07.439Z</time>
      </trkpt>
      <trkpt lat="46.1064" lon="3.06853">
        <ele>313.70236206055</ele>
        <time>2020-07-18T21:33:18.215Z</time>
      </trkpt>
      <trkpt lat="46.1071" lon="3.06919">
        <ele>311.24682617188</ele>
        <time>2020-07-18T21:33:29.005Z</time>
      </trkpt>
      <trkpt lat="46.10727" lon="3.06937">
        <ele>310.87350463867</ele>
        <time>2020-07-18T21:33:39.798Z</time>
      </trkpt>
      <trkpt lat="46.10741" lon="3.06958">
        <ele>311.12084960938</ele>
        <time>2020-07-18T21:33:50.594Z</time>
      </trkpt>
      <trkpt lat="46.10761" lon="3.07003">
        <ele>311.32122802734</ele>
        <time>2020-07-18T21:34:01.396Z</time>
      </trkpt>
      <trkpt lat="46.10793" lon="3.07082">
        <ele>310.7216796875</ele>
        <time>2020-07-18T21:34:12.208Z</time>
      </trkpt>
      <trkpt lat="46.10823" lon="3.07157">
        <ele>310.38061523438</ele>
        <time>2020-07-18T21:34:23.030Z</time>
      </trkpt>
      <trkpt lat="46.10845" lon="3.07219">
        <ele>309.58456420898</ele>
        <time>2020-07-18T21:34:33.860Z</time>
      </trkpt>
      <trkpt lat="46.10883" lon="3.07355">
        <ele>309.12265014648</ele>
        <time>2020-07-18T21:34:44.706Z</time>
      </trkpt>
      <trkpt lat="46.10944" lon="3.07581">
        <ele>308.85079956055</ele>
        <time>2020-07-18T21:34:55.579Z</time>
      </trkpt>
      <trkpt lat="46.10961" lon="3.07631">
        <ele>309</ele>
        <time>2020-07-18T21:35:06.458Z</time>
      </trkpt>
      <trkpt lat="46.1098" lon="3.07666">
        <ele>308.96484375</ele>
        <time>2020-07-18T21:35:17.342Z</time>
      </trkpt>
      <trkpt lat="46.10991" lon="3.07681">
        <ele>308.83166503906</ele>
        <time>2020-07-18T21:35:28.229Z</time>
      </trkpt>
      <trkpt lat="46.11164" lon="3.07861">
        <ele>307.45782470703</ele>
        <time>2020-07-18T21:35:39.150Z</time>
      </trkpt>
      <trkpt lat="46.11187" lon="3.0789">
        <ele>308.0901184082</ele>
        <time>2020-07-18T21:35:50.076Z</time>
      </trkpt>
      <trkpt lat="46.11203" lon="3.07915">
        <ele>308.58444213867</ele>
        <time>2020-07-18T21:36:01.006Z</time>
      </trkpt>
      <trkpt lat="46.11272" lon="3.08055">
        <ele>309.99905395508</ele>
        <time>2020-07-18T21:36:11.954Z</time>
      </trkpt>
      <trkpt lat="46.11307" lon="3.08132">
        <ele>308.97680664062</ele>
        <time>2020-07-18T21:36:22.913Z</time>
      </trkpt>
      <trkpt lat="46.11367" lon="3.08255">
        <ele>309.08810424805</ele>
        <time>2020-07-18T21:36:33.889Z</time>
      </trkpt>
      <trkpt lat="46.11387" lon="3.08304">
        <ele>309.23327636719</ele>
        <time>2020-07-18T21:36:44.871Z</time>
      </trkpt>
      <trkpt lat="46.11438" lon="3.08438">
        <ele>308.4020690918</ele>
        <time>2020-07-18T21:36:55.870Z</time>
      </trkpt>
      <trkpt lat="46.11444" lon="3.08454">
        <ele>308.19689941406</ele>
        <time>2020-07-18T21:37:06.871Z</time>
      </trkpt>
      <trkpt lat="46.11446" lon="3.08471">
        <ele>308.09973144531</ele>
        <time>2020-07-18T21:37:17.874Z</time>
      </trkpt>
      <trkpt lat="46.11433" lon="3.0851">
        <ele>308.59805297852</ele>
        <time>2020-07-18T21:37:28.882Z</time>
      </trkpt>
      <trkpt lat="46.11431" lon="3.08521">
        <ele>309.06237792969</ele>
        <time>2020-07-18T21:37:39.891Z</time>
      </trkpt>
      <trkpt lat="46.11432" lon="3.08533">
        <ele>309.43313598633</ele>
        <time>2020-07-18T21:37:50.901Z</time>
      </trkpt>
      <trkpt lat="46.11437" lon="3.08543">
        <ele>309.64190673828</ele>
        <time>2020-07-18T21:38:01.913Z</time>
      </trkpt>
      <trkpt lat="46.11454" lon="3.08565">
        <ele>309.83627319336</ele>
        <time>2020-07-18T21:38:12.928Z</time>
      </trkpt>
      <trkpt lat="46.11462" lon="3.08571">
        <ele>309.75708007812</ele>
        <time>2020-07-18T21:38:23.945Z</time>
      </trkpt>
      <trkpt lat="46.11481" lon="3.08578">
        <ele>309.41744995117</ele>
        <time>2020-07-18T21:38:34.965Z</time>
      </trkpt>
      <trkpt lat="46.11494" lon="3.08588">
        <ele>309.61782836914</ele>
        <time>2020-07-18T21:38:45.987Z</time>
      </trkpt>
      <trkpt lat="46.11501" lon="3.08597">
        <ele>309.76306152344</ele>
        <time>2020-07-18T21:38:57.011Z</time>
      </trkpt>
      <trkpt lat="46.11505" lon="3.08607">
        <ele>309.82543945312</ele>
        <time>2020-07-18T21:39:08.036Z</time>
      </trkpt>
      <trkpt lat="46.11544" lon="3.0867">
        <ele>310.24838256836</ele>
        <time>2020-07-18T21:39:19.070Z</time>
      </trkpt>
      <trkpt lat="46.11566" lon="3.08711">
        <ele>309.93402099609</ele>
        <time>2020-07-18T21:39:30.110Z</time>
      </trkpt>
      <trkpt lat="46.11602" lon="3.08791">
        <ele>309.86566162109</ele>
        <time>2020-07-18T21:39:41.161Z</time>
      </trkpt>
      <trkpt lat="46.11606" lon="3.08806">
        <ele>310.01083374023</ele>
        <time>2020-07-18T21:39:52.214Z</time>
      </trkpt>
      <trkpt lat="46.11603" lon="3.08822">
        <ele>310.23400878906</ele>
        <time>2020-07-18T21:40:03.268Z</time>
      </trkpt>
      <trkpt lat="46.11571" lon="3.08889">
        <ele>311.30062866211</ele>
        <time>2020-07-18T21:40:14.331Z</time>
      </trkpt>
      <trkpt lat="46.11535" lon="3.08949">
        <ele>310.5910949707</ele>
        <time>2020-07-18T21:40:25.403Z</time>
      </trkpt>
      <trkpt lat="46.11518" lon="3.08973">
        <ele>309.19543457031</ele>
        <time>2020-07-18T21:40:36.479Z</time>
      </trkpt>
      <trkpt lat="46.11512" lon="3.08983">
        <ele>308.32919311523</ele>
        <time>2020-07-18T21:40:47.556Z</time>
      </trkpt>
      <trkpt lat="46.11498" lon="3.0899">
        <ele>307.17739868164</ele>
        <time>2020-07-18T21:40:58.636Z</time>
      </trkpt>
      <trkpt lat="46.11519" lon="3.08989">
        <ele>308.25119018555</ele>
        <time>2020-07-18T21:41:09.719Z</time>
      </trkpt>
      <trkpt lat="46.11507" lon="3.08989">
        <ele>307.68011474609</ele>
        <time>2020-07-18T21:41:20.804Z</time>
      </trkpt>
      <trkpt lat="46.11505" lon="3.08987">
        <ele>307.71969604492</ele>
        <time>2020-07-18T21:41:31.890Z</time>
      </trkpt>
      <trkpt lat="46.11507" lon="3.08988">
        <ele>307.78207397461</ele>
        <time>2020-07-18T21:41:42.976Z</time>
      </trkpt>
      <trkpt lat="46.11505" lon="3.08996">
        <ele>307.19177246094</ele>
        <time>2020-07-18T21:41:54.063Z</time>
      </trkpt>
      <trkpt lat="46.11448" lon="3.09096">
        <ele>305.75988769531</ele>
        <time>2020-07-18T21:42:05.164Z</time>
      </trkpt>
      <trkpt lat="46.11439" lon="3.09109">
        <ele>306.27581787109</ele>
        <time>2020-07-18T21:42:16.267Z</time>
      </trkpt>
      <trkpt lat="46.11427" lon="3.09115">
        <ele>306.72933959961</ele>
        <time>2020-07-18T21:42:27.373Z</time>
      </trkpt>
      <trkpt lat="46.11399" lon="3.09124">
        <ele>307.60757446289</ele>
        <time>2020-07-18T21:42:38.483Z</time>
      </trkpt>
      <trkpt lat="46.11365" lon="3.09138">
        <ele>308.06338500977</ele>
        <time>2020-07-18T21:42:49.599Z</time>
      </trkpt>
      <trkpt lat="46.11333" lon="3.09155">
        <ele>308.01211547852</ele>
        <time>2020-07-18T21:43:00.720Z</time>
      </trkpt>
      <trkpt lat="46.11247" lon="3.09222">
        <ele>307.83441162109</ele>
        <time>2020-07-18T21:43:11.857Z</time>
      </trkpt>
      <trkpt lat="46.11231" lon="3.09228">
        <ele>308.19195556641</ele>
        <time>2020-07-18T21:43:22.997Z</time>
      </trkpt>
      <trkpt lat="46.11186" lon="3.0923">
        <ele>309.12396240234</ele>
        <time>2020-07-18T21:43:34.144Z</time>
      </trkpt>
      <trkpt lat="46.1111" lon="3.09226">
        <ele>312.01690673828</ele>
        <time>2020-07-18T21:43:45.303Z</time>
      </trkpt>
      <trkpt lat="46.11017" lon="3.09216">
        <ele>316.10241699219</ele>
        <time>2020-07-18T21:43:56.477Z</time>
      </trkpt>
      <trkpt lat="46.10947" lon="3.09214">
        <ele>316.9977722168</ele>
        <time>2020-07-18T21:44:07.662Z</time>
      </trkpt>
      <trkpt lat="46.10926" lon="3.0921">
        <ele>317.38424682617</ele>
        <time>2020-07-18T21:44:18.850Z</time>
      </trkpt>
      <trkpt lat="46.1078" lon="3.09171">
        <ele>315.69595336914</ele>
        <time>2020-07-18T21:44:30.062Z</time>
      </trkpt>
      <trkpt lat="46.10622" lon="3.09123">
        <ele>316.16134643555</ele>
        <time>2020-07-18T21:44:41.300Z</time>
      </trkpt>
      <trkpt lat="46.10503" lon="3.0909">
        <ele>317.95938110352</ele>
        <time>2020-07-18T21:44:52.557Z</time>
      </trkpt>
      <trkpt lat="46.10388" lon="3.09053">
        <ele>322.79779052734</ele>
        <time>2020-07-18T21:45:03.833Z</time>
      </trkpt>
      <trkpt lat="46.10231" lon="3.09005">
        <ele>327.79238891602</ele>
        <time>2020-07-18T21:45:15.135Z</time>
      </trkpt>
      <trkpt lat="46.10198" lon="3.08997">
        <ele>328.49771118164</ele>
        <time>2020-07-18T21:45:26.442Z</time>
      </trkpt>
      <trkpt lat="46.10186" lon="3.08997">
        <ele>328.64169311523</ele>
        <time>2020-07-18T21:45:37.751Z</time>
      </trkpt>
      <trkpt lat="46.10175" lon="3.08998">
        <ele>328.76165771484</ele>
        <time>2020-07-18T21:45:49.062Z</time>
      </trkpt>
      <trkpt lat="46.10164" lon="3.09002">
        <ele>328.85165405273</ele>
        <time>2020-07-18T21:46:00.375Z</time>
      </trkpt>
      <trkpt lat="46.10111" lon="3.09032">
        <ele>329.24081420898</ele>
        <time>2020-07-18T21:46:11.697Z</time>
      </trkpt>
      <trkpt lat="46.10085" lon="3.09054">
        <ele>329.35119628906</ele>
        <time>2020-07-18T21:46:23.024Z</time>
      </trkpt>
      <trkpt lat="46.09985" lon="3.09163">
        <ele>332.1926574707</ele>
        <time>2020-07-18T21:46:34.371Z</time>
      </trkpt>
      <trkpt lat="46.09977" lon="3.09169">
        <ele>332.7145690918</ele>
        <time>2020-07-18T21:46:45.719Z</time>
      </trkpt>
      <trkpt lat="46.09961" lon="3.09178">
        <ele>334.03005981445</ele>
        <time>2020-07-18T21:46:57.070Z</time>
      </trkpt>
      <trkpt lat="46.09953" lon="3.09182">
        <ele>334.72592163086</ele>
        <time>2020-07-18T21:47:08.422Z</time>
      </trkpt>
      <trkpt lat="46.09932" lon="3.09185">
        <ele>336.19567871094</ele>
        <time>2020-07-18T21:47:19.778Z</time>
      </trkpt>
      <trkpt lat="46.09859" lon="3.09179">
        <ele>340.68362426758</ele>
        <time>2020-07-18T21:47:31.146Z</time>
      </trkpt>
      <trkpt lat="46.09826" lon="3.09171">
        <ele>342.45053100586</ele>
        <time>2020-07-18T21:47:42.519Z</time>
      </trkpt>
      <trkpt lat="46.09778" lon="3.09147">
        <ele>343.90252685547</ele>
        <time>2020-07-18T21:47:53.900Z</time>
      </trkpt>
      <trkpt lat="46.09605" lon="3.09049">
        <ele>354.73788452148</ele>
        <time>2020-07-18T21:48:05.311Z</time>
      </trkpt>
      <trkpt lat="46.09588" lon="3.09044">
        <ele>356.21194458008</ele>
        <time>2020-07-18T21:48:16.724Z</time>
      </trkpt>
      <trkpt lat="46.09572" lon="3.09044">
        <ele>358.61633300781</ele>
        <time>2020-07-18T21:48:28.140Z</time>
      </trkpt>
      <trkpt lat="46.09563" lon="3.09045">
        <ele>360.31884765625</ele>
        <time>2020-07-18T21:48:39.557Z</time>
      </trkpt>
      <trkpt lat="46.09499" lon="3.09068">
        <ele>366.04052734375</ele>
        <time>2020-07-18T21:48:50.985Z</time>
      </trkpt>
      <trkpt lat="46.09478" lon="3.09071">
        <ele>366.57086181641</ele>
        <time>2020-07-18T21:49:02.416Z</time>
      </trkpt>
      <trkpt lat="46.09449" lon="3.0907">
        <ele>367.75442504883</ele>
        <time>2020-07-18T21:49:13.852Z</time>
      </trkpt>
      <trkpt lat="46.09396" lon="3.09063">
        <ele>370.43597412109</ele>
        <time>2020-07-18T21:49:25.297Z</time>
      </trkpt>
      <trkpt lat="46.0938" lon="3.09064">
        <ele>370.87554931641</ele>
        <time>2020-07-18T21:49:36.744Z</time>
      </trkpt>
      <trkpt lat="46.09367" lon="3.09067">
        <ele>371.63381958008</ele>
        <time>2020-07-18T21:49:48.193Z</time>
      </trkpt>
      <trkpt lat="46.09356" lon="3.09074">
        <ele>372.72698974609</ele>
        <time>2020-07-18T21:49:59.644Z</time>
      </trkpt>
      <trkpt lat="46.09348" lon="3.0908">
        <ele>373.73483276367</ele>
        <time>2020-07-18T21:50:11.097Z</time>
      </trkpt>
      <trkpt lat="46.09326" lon="3.09108">
        <ele>379.44555664062</ele>
        <time>2020-07-18T21:50:22.554Z</time>
      </trkpt>
      <trkpt lat="46.09286" lon="3.09164">
        <ele>386.71160888672</ele>
        <time>2020-07-18T21:50:34.020Z</time>
      </trkpt>
      <trkpt lat="46.09275" lon="3.09181">
        <ele>388.51531982422</ele>
        <time>2020-07-18T21:50:45.489Z</time>
      </trkpt>
      <trkpt lat="46.09263" lon="3.09208">
        <ele>392.21429443359</ele>
        <time>2020-07-18T21:50:56.961Z</time>
      </trkpt>
      <trkpt lat="46.09259" lon="3.09225">
        <ele>393.5302734375</ele>
        <time>2020-07-18T21:51:08.435Z</time>
      </trkpt>
      <trkpt lat="46.09244" lon="3.09271">
        <ele>396.22671508789</ele>
        <time>2020-07-18T21:51:19.915Z</time>
      </trkpt>
      <trkpt lat="46.09218" lon="3.09363">
        <ele>405.12246704102</ele>
        <time>2020-07-18T21:51:31.406Z</time>
      </trkpt>
      <trkpt lat="46.09209" lon="3.09384">
        <ele>406.43984985352</ele>
        <time>2020-07-18T21:51:42.900Z</time>
      </trkpt>
      <trkpt lat="46.09197" lon="3.09402">
        <ele>406.95803833008</ele>
        <time>2020-07-18T21:51:54.397Z</time>
      </trkpt>
      <trkpt lat="46.09189" lon="3.09411">
        <ele>406.41812133789</ele>
        <time>2020-07-18T21:52:05.895Z</time>
      </trkpt>
      <trkpt lat="46.09181" lon="3.09417">
        <ele>405.66223144531</ele>
        <time>2020-07-18T21:52:17.395Z</time>
      </trkpt>
      <trkpt lat="46.09166" lon="3.09422">
        <ele>403.99212646484</ele>
        <time>2020-07-18T21:52:28.897Z</time>
      </trkpt>
      <trkpt lat="46.09148" lon="3.09423">
        <ele>401.40774536133</ele>
        <time>2020-07-18T21:52:40.402Z</time>
      </trkpt>
      <trkpt lat="46.09121" lon="3.09414">
        <ele>401.99548339844</ele>
        <time>2020-07-18T21:52:51.912Z</time>
      </trkpt>
      <trkpt lat="46.09106" lon="3.09405">
        <ele>402.59896850586</ele>
        <time>2020-07-18T21:53:03.424Z</time>
      </trkpt>
      <trkpt lat="46.09068" lon="3.09377">
        <ele>403.72198486328</ele>
        <time>2020-07-18T21:53:14.943Z</time>
      </trkpt>
      <trkpt lat="46.09055" lon="3.09372">
        <ele>404.04971313477</ele>
        <time>2020-07-18T21:53:26.464Z</time>
      </trkpt>
      <trkpt lat="46.09042" lon="3.0937">
        <ele>403.94891357422</ele>
        <time>2020-07-18T21:53:37.987Z</time>
      </trkpt>
      <trkpt lat="46.09011" lon="3.09376">
        <ele>404.33767700195</ele>
        <time>2020-07-18T21:53:49.515Z</time>
      </trkpt>
      <trkpt lat="46.08992" lon="3.09376">
        <ele>404.93548583984</ele>
        <time>2020-07-18T21:54:01.046Z</time>
      </trkpt>
      <trkpt lat="46.08931" lon="3.09357">
        <ele>404.54751586914</ele>
        <time>2020-07-18T21:54:12.587Z</time>
      </trkpt>
      <trkpt lat="46.08922" lon="3.09356">
        <ele>404.66030883789</ele>
        <time>2020-07-18T21:54:24.130Z</time>
      </trkpt>
      <trkpt lat="46.08913" lon="3.09357">
        <ele>404.97946166992</ele>
        <time>2020-07-18T21:54:35.674Z</time>
      </trkpt>
      <trkpt lat="46.08897" lon="3.09364">
        <ele>407.11880493164</ele>
        <time>2020-07-18T21:54:47.221Z</time>
      </trkpt>
      <trkpt lat="46.08883" lon="3.09373">
        <ele>409.04049682617</ele>
        <time>2020-07-18T21:54:58.770Z</time>
      </trkpt>
      <trkpt lat="46.08871" lon="3.0939">
        <ele>412.0927734375</ele>
        <time>2020-07-18T21:55:10.322Z</time>
      </trkpt>
      <trkpt lat="46.08863" lon="3.09418">
        <ele>414.90249633789</ele>
        <time>2020-07-18T21:55:21.877Z</time>
      </trkpt>
      <trkpt lat="46.08862" lon="3.09457">
        <ele>418.60360717773</ele>
        <time>2020-07-18T21:55:33.437Z</time>
      </trkpt>
      <trkpt lat="46.08857" lon="3.09475">
        <ele>420.15930175781</ele>
        <time>2020-07-18T21:55:44.999Z</time>
      </trkpt>
      <trkpt lat="46.08852" lon="3.09486">
        <ele>420.47485351562</ele>
        <time>2020-07-18T21:55:56.562Z</time>
      </trkpt>
      <trkpt lat="46.08845" lon="3.09495">
        <ele>420.50485229492</ele>
        <time>2020-07-18T21:56:08.127Z</time>
      </trkpt>
      <trkpt lat="46.08838" lon="3.09503">
        <ele>420.40646362305</ele>
        <time>2020-07-18T21:56:19.693Z</time>
      </trkpt>
      <trkpt lat="46.08804" lon="3.09531">
        <ele>420.33911132812</ele>
        <time>2020-07-18T21:56:31.265Z</time>
      </trkpt>
      <trkpt lat="46.08776" lon="3.09553">
        <ele>421.91806030273</ele>
        <time>2020-07-18T21:56:42.843Z</time>
      </trkpt>
      <trkpt lat="46.08755" lon="3.09562">
        <ele>422.79327392578</ele>
        <time>2020-07-18T21:56:54.424Z</time>
      </trkpt>
      <trkpt lat="46.08746" lon="3.09562">
        <ele>422.75607299805</ele>
        <time>2020-07-18T21:57:06.007Z</time>
      </trkpt>
      <trkpt lat="46.08707" lon="3.09557">
        <ele>424.91354370117</ele>
        <time>2020-07-18T21:57:17.596Z</time>
      </trkpt>
      <trkpt lat="46.08662" lon="3.09542">
        <ele>429.67401123047</ele>
        <time>2020-07-18T21:57:29.192Z</time>
      </trkpt>
      <trkpt lat="46.08646" lon="3.09532">
        <ele>430.57144165039</ele>
        <time>2020-07-18T21:57:40.791Z</time>
      </trkpt>
      <trkpt lat="46.08637" lon="3.09518">
        <ele>430.90002441406</ele>
        <time>2020-07-18T21:57:52.392Z</time>
      </trkpt>
      <trkpt lat="46.08632" lon="3.09507">
        <ele>431.02951049805</ele>
        <time>2020-07-18T21:58:03.995Z</time>
      </trkpt>
      <trkpt lat="46.08632" lon="3.09494">
        <ele>431.42697143555</ele>
        <time>2020-07-18T21:58:15.599Z</time>
      </trkpt>
      <trkpt lat="46.08633" lon="3.09482">
        <ele>431.20980834961</ele>
        <time>2020-07-18T21:58:27.204Z</time>
      </trkpt>
      <trkpt lat="46.08645" lon="3.09448">
        <ele>429.40176391602</ele>
        <time>2020-07-18T21:58:38.814Z</time>
      </trkpt>
      <trkpt lat="46.08649" lon="3.09422">
        <ele>428.82913208008</ele>
        <time>2020-07-18T21:58:50.427Z</time>
      </trkpt>
      <trkpt lat="46.08648" lon="3.09409">
        <ele>428.74752807617</ele>
        <time>2020-07-18T21:59:02.041Z</time>
      </trkpt>
      <trkpt lat="46.08643" lon="3.09391">
        <ele>429.17819213867</ele>
        <time>2020-07-18T21:59:13.657Z</time>
      </trkpt>
      <trkpt lat="46.08639" lon="3.0938">
        <ele>429.82608032227</ele>
        <time>2020-07-18T21:59:25.274Z</time>
      </trkpt>
      <trkpt lat="46.08617" lon="3.09339">
        <ele>433.31707763672</ele>
        <time>2020-07-18T21:59:36.897Z</time>
      </trkpt>
      <trkpt lat="46.08572" lon="3.09262">
        <ele>436.74588012695</ele>
        <time>2020-07-18T21:59:48.532Z</time>
      </trkpt>
      <trkpt lat="46.08538" lon="3.09222">
        <ele>438.16931152344</ele>
        <time>2020-07-18T22:00:00.173Z</time>
      </trkpt>
      <trkpt lat="46.0853" lon="3.09216">
        <ele>438.63961791992</ele>
        <time>2020-07-18T22:00:11.816Z</time>
      </trkpt>
      <trkpt lat="46.08518" lon="3.0921">
        <ele>439.74703979492</ele>
        <time>2020-07-18T22:00:23.461Z</time>
      </trkpt>
      <trkpt lat="46.08509" lon="3.09208">
        <ele>440.78366088867</ele>
        <time>2020-07-18T22:00:35.107Z</time>
      </trkpt>
      <trkpt lat="46.08499" lon="3.0921">
        <ele>442.65249633789</ele>
        <time>2020-07-18T22:00:46.755Z</time>
      </trkpt>
      <trkpt lat="46.08463" lon="3.09242">
        <ele>450.75848388672</ele>
        <time>2020-07-18T22:00:58.410Z</time>
      </trkpt>
      <trkpt lat="46.08452" lon="3.09246">
        <ele>451.46755981445</ele>
        <time>2020-07-18T22:01:10.067Z</time>
      </trkpt>
      <trkpt lat="46.08432" lon="3.09247">
        <ele>451.7626953125</ele>
        <time>2020-07-18T22:01:21.727Z</time>
      </trkpt>
      <trkpt lat="46.08398" lon="3.09228">
        <ele>449.66665649414</ele>
        <time>2020-07-18T22:01:33.393Z</time>
      </trkpt>
      <trkpt lat="46.08386" lon="3.09222">
        <ele>449.47854614258</ele>
        <time>2020-07-18T22:01:45.061Z</time>
      </trkpt>
      <trkpt lat="46.08368" lon="3.09219">
        <ele>450.06646728516</ele>
        <time>2020-07-18T22:01:56.732Z</time>
      </trkpt>
      <trkpt lat="46.08356" lon="3.09219">
        <ele>450.88833618164</ele>
        <time>2020-07-18T22:02:08.405Z</time>
      </trkpt>
      <trkpt lat="46.08325" lon="3.09226">
        <ele>453.99612426758</ele>
        <time>2020-07-18T22:02:20.083Z</time>
      </trkpt>
      <trkpt lat="46.08304" lon="3.09231">
        <ele>456.67108154297</ele>
        <time>2020-07-18T22:02:31.764Z</time>
      </trkpt>
      <trkpt lat="46.08295" lon="3.09236">
        <ele>458.65795898438</ele>
        <time>2020-07-18T22:02:43.447Z</time>
      </trkpt>
      <trkpt lat="46.08273" lon="3.09239">
        <ele>460.97055053711</ele>
        <time>2020-07-18T22:02:55.133Z</time>
      </trkpt>
      <trkpt lat="46.08259" lon="3.09246">
        <ele>462.21835327148</ele>
        <time>2020-07-18T22:03:06.821Z</time>
      </trkpt>
      <trkpt lat="46.08251" lon="3.09254">
        <ele>463.17819213867</ele>
        <time>2020-07-18T22:03:18.511Z</time>
      </trkpt>
      <trkpt lat="46.08244" lon="3.09264">
        <ele>464.39215087891</ele>
        <time>2020-07-18T22:03:30.203Z</time>
      </trkpt>
      <trkpt lat="46.08235" lon="3.09282">
        <ele>466.20355224609</ele>
        <time>2020-07-18T22:03:41.897Z</time>
      </trkpt>
      <trkpt lat="46.08229" lon="3.09307">
        <ele>467.8088684082</ele>
        <time>2020-07-18T22:03:53.594Z</time>
      </trkpt>
      <trkpt lat="46.08216" lon="3.0939">
        <ele>472.23205566406</ele>
        <time>2020-07-18T22:04:05.300Z</time>
      </trkpt>
      <trkpt lat="46.08209" lon="3.09415">
        <ele>473.1926574707</ele>
        <time>2020-07-18T22:04:17.009Z</time>
      </trkpt>
      <trkpt lat="46.08195" lon="3.09485">
        <ele>477.26513671875</ele>
        <time>2020-07-18T22:04:28.727Z</time>
      </trkpt>
      <trkpt lat="46.08189" lon="3.09507">
        <ele>479.0012512207</ele>
        <time>2020-07-18T22:04:40.447Z</time>
      </trkpt>
      <trkpt lat="46.08178" lon="3.09525">
        <ele>479.05773925781</ele>
        <time>2020-07-18T22:04:52.170Z</time>
      </trkpt>
      <trkpt lat="46.08163" lon="3.09536">
        <ele>478.39218139648</ele>
        <time>2020-07-18T22:05:03.895Z</time>
      </trkpt>
      <trkpt lat="46.08155" lon="3.09539">
        <ele>478.11502075195</ele>
        <time>2020-07-18T22:05:15.622Z</time>
      </trkpt>
      <trkpt lat="46.08142" lon="3.09538">
        <ele>477.38656616211</ele>
        <time>2020-07-18T22:05:27.351Z</time>
      </trkpt>
      <trkpt lat="46.08117" lon="3.09532">
        <ele>477.19338989258</ele>
        <time>2020-07-18T22:05:39.084Z</time>
      </trkpt>
      <trkpt lat="46.08068" lon="3.09517">
        <ele>476.49392700195</ele>
        <time>2020-07-18T22:05:50.825Z</time>
      </trkpt>
      <trkpt lat="46.08048" lon="3.09515">
        <ele>475.95944213867</ele>
        <time>2020-07-18T22:06:02.569Z</time>
      </trkpt>
      <trkpt lat="46.08035" lon="3.09518">
        <ele>475.52032470703</ele>
        <time>2020-07-18T22:06:14.315Z</time>
      </trkpt>
      <trkpt lat="46.08023" lon="3.09524">
        <ele>475.5910949707</ele>
        <time>2020-07-18T22:06:26.063Z</time>
      </trkpt>
      <trkpt lat="46.08016" lon="3.09531">
        <ele>476.12380981445</ele>
        <time>2020-07-18T22:06:37.813Z</time>
      </trkpt>
      <trkpt lat="46.08008" lon="3.09545">
        <ele>477.58526611328</ele>
        <time>2020-07-18T22:06:49.565Z</time>
      </trkpt>
      <trkpt lat="46.08005" lon="3.09557">
        <ele>478.4407043457</ele>
        <time>2020-07-18T22:07:01.318Z</time>
      </trkpt>
      <trkpt lat="46.08004" lon="3.09575">
        <ele>480.31600952148</ele>
        <time>2020-07-18T22:07:13.073Z</time>
      </trkpt>
      <trkpt lat="46.08005" lon="3.09587">
        <ele>481.80255126953</ele>
        <time>2020-07-18T22:07:24.829Z</time>
      </trkpt>
      <trkpt lat="46.08008" lon="3.09599">
        <ele>483.0325012207</ele>
        <time>2020-07-18T22:07:36.587Z</time>
      </trkpt>
      <trkpt lat="46.08016" lon="3.09615">
        <ele>484.49505615234</ele>
        <time>2020-07-18T22:07:48.347Z</time>
      </trkpt>
      <trkpt lat="46.08024" lon="3.09627">
        <ele>485.86883544922</ele>
        <time>2020-07-18T22:08:00.109Z</time>
      </trkpt>
      <trkpt lat="46.08065" lon="3.09675">
        <ele>491.86404418945</ele>
        <time>2020-07-18T22:08:11.879Z</time>
      </trkpt>
      <trkpt lat="46.08086" lon="3.09707">
        <ele>493.88818359375</ele>
        <time>2020-07-18T22:08:23.654Z</time>
      </trkpt>
      <trkpt lat="46.08101" lon="3.09742">
        <ele>493.46826171875</ele>
        <time>2020-07-18T22:08:35.434Z</time>
      </trkpt>
      <trkpt lat="46.08114" lon="3.09778">
        <ele>493.7236328125</ele>
        <time>2020-07-18T22:08:47.218Z</time>
      </trkpt>
      <trkpt lat="46.0812" lon="3.09789">
        <ele>494.43389892578</ele>
        <time>2020-07-18T22:08:59.004Z</time>
      </trkpt>
      <trkpt lat="46.08137" lon="3.09808">
        <ele>496.77111816406</ele>
        <time>2020-07-18T22:09:10.793Z</time>
      </trkpt>
      <trkpt lat="46.08164" lon="3.09826">
        <ele>497.67617797852</ele>
        <time>2020-07-18T22:09:22.587Z</time>
      </trkpt>
      <trkpt lat="46.08175" lon="3.09836">
        <ele>497.56939697266</ele>
        <time>2020-07-18T22:09:34.383Z</time>
      </trkpt>
      <trkpt lat="46.08183" lon="3.0985">
        <ele>497.71633911133</ele>
        <time>2020-07-18T22:09:46.181Z</time>
      </trkpt>
      <trkpt lat="46.08189" lon="3.09867">
        <ele>498.390625</ele>
        <time>2020-07-18T22:09:57.981Z</time>
      </trkpt>
      <trkpt lat="46.08205" lon="3.09925">
        <ele>500.42724609375</ele>
        <time>2020-07-18T22:10:09.788Z</time>
      </trkpt>
      <trkpt lat="46.08205" lon="3.0995">
        <ele>501.0319519043</ele>
        <time>2020-07-18T22:10:21.598Z</time>
      </trkpt>
      <trkpt lat="46.08201" lon="3.09961">
        <ele>501.2239074707</ele>
        <time>2020-07-18T22:10:33.410Z</time>
      </trkpt>
      <trkpt lat="46.08194" lon="3.09976">
        <ele>501.3918762207</ele>
        <time>2020-07-18T22:10:45.224Z</time>
      </trkpt>
      <trkpt lat="46.08187" lon="3.09983">
        <ele>501.8684387207</ele>
        <time>2020-07-18T22:10:57.039Z</time>
      </trkpt>
      <trkpt lat="46.08156" lon="3.10006">
        <ele>503.60214233398</ele>
        <time>2020-07-18T22:11:08.859Z</time>
      </trkpt>
      <trkpt lat="46.08146" lon="3.10016">
        <ele>504.22235107422</ele>
        <time>2020-07-18T22:11:20.681Z</time>
      </trkpt>
      <trkpt lat="46.08139" lon="3.10032">
        <ele>504.6208190918</ele>
        <time>2020-07-18T22:11:32.505Z</time>
      </trkpt>
      <trkpt lat="46.08135" lon="3.10044">
        <ele>504.8127746582</ele>
        <time>2020-07-18T22:11:44.331Z</time>
      </trkpt>
      <trkpt lat="46.08134" lon="3.10057">
        <ele>505.40307617188</ele>
        <time>2020-07-18T22:11:56.158Z</time>
      </trkpt>
      <trkpt lat="46.08136" lon="3.10089">
        <ele>507.57604980469</ele>
        <time>2020-07-18T22:12:07.989Z</time>
      </trkpt>
      <trkpt lat="46.08144" lon="3.10132">
        <ele>510.8708190918</ele>
        <time>2020-07-18T22:12:19.825Z</time>
      </trkpt>
      <trkpt lat="46.08155" lon="3.10175">
        <ele>513.04248046875</ele>
        <time>2020-07-18T22:12:31.666Z</time>
      </trkpt>
      <trkpt lat="46.08159" lon="3.10206">
        <ele>514.96661376953</ele>
        <time>2020-07-18T22:12:43.511Z</time>
      </trkpt>
      <trkpt lat="46.08158" lon="3.10225">
        <ele>515.84484863281</ele>
        <time>2020-07-18T22:12:55.358Z</time>
      </trkpt>
      <trkpt lat="46.08151" lon="3.10268">
        <ele>517.19262695312</ele>
        <time>2020-07-18T22:13:07.210Z</time>
      </trkpt>
      <trkpt lat="46.08141" lon="3.1031">
        <ele>518.54351806641</ele>
        <time>2020-07-18T22:13:19.067Z</time>
      </trkpt>
      <trkpt lat="46.08135" lon="3.10327">
        <ele>518.62750244141</ele>
        <time>2020-07-18T22:13:30.926Z</time>
      </trkpt>
      <trkpt lat="46.08129" lon="3.10338">
        <ele>519.26177978516</ele>
        <time>2020-07-18T22:13:42.786Z</time>
      </trkpt>
      <trkpt lat="46.08122" lon="3.10346">
        <ele>520</ele>
        <time>2020-07-18T22:13:54.648Z</time>
      </trkpt>
      <trkpt lat="46.08113" lon="3.10351">
        <ele>520</ele>
        <time>2020-07-18T22:14:06.511Z</time>
      </trkpt>
      <trkpt lat="46.08099" lon="3.10352">
        <ele>520</ele>
        <time>2020-07-18T22:14:18.377Z</time>
      </trkpt>
      <trkpt lat="46.08054" lon="3.10334">
        <ele>518.9912109375</ele>
        <time>2020-07-18T22:14:30.250Z</time>
      </trkpt>
      <trkpt lat="46.08039" lon="3.10336">
        <ele>519.59320068359</ele>
        <time>2020-07-18T22:14:42.125Z</time>
      </trkpt>
      <trkpt lat="46.0802" lon="3.10348">
        <ele>521.11163330078</ele>
        <time>2020-07-18T22:14:54.004Z</time>
      </trkpt>
      <trkpt lat="46.07985" lon="3.10388">
        <ele>524.71380615234</ele>
        <time>2020-07-18T22:15:05.890Z</time>
      </trkpt>
      <trkpt lat="46.0797" lon="3.10399">
        <ele>526.69763183594</ele>
        <time>2020-07-18T22:15:17.778Z</time>
      </trkpt>
      <trkpt lat="46.0796" lon="3.104">
        <ele>528.01263427734</ele>
        <time>2020-07-18T22:15:29.668Z</time>
      </trkpt>
      <trkpt lat="46.07945" lon="3.10394">
        <ele>529.45239257812</ele>
        <time>2020-07-18T22:15:41.561Z</time>
      </trkpt>
      <trkpt lat="46.07933" lon="3.10382">
        <ele>529.98266601562</ele>
        <time>2020-07-18T22:15:53.456Z</time>
      </trkpt>
      <trkpt lat="46.07926" lon="3.1037">
        <ele>529.94909667969</ele>
        <time>2020-07-18T22:16:05.353Z</time>
      </trkpt>
      <trkpt lat="46.07893" lon="3.10285">
        <ele>526.33062744141</ele>
        <time>2020-07-18T22:16:17.261Z</time>
      </trkpt>
      <trkpt lat="46.07877" lon="3.10253">
        <ele>525.67681884766</ele>
        <time>2020-07-18T22:16:29.173Z</time>
      </trkpt>
      <trkpt lat="46.07865" lon="3.10237">
        <ele>525.41522216797</ele>
        <time>2020-07-18T22:16:41.088Z</time>
      </trkpt>
      <trkpt lat="46.07856" lon="3.1023">
        <ele>525.78234863281</ele>
        <time>2020-07-18T22:16:53.004Z</time>
      </trkpt>
      <trkpt lat="46.07847" lon="3.10224">
        <ele>526.53106689453</ele>
        <time>2020-07-18T22:17:04.922Z</time>
      </trkpt>
      <trkpt lat="46.07832" lon="3.10219">
        <ele>528.45074462891</ele>
        <time>2020-07-18T22:17:16.842Z</time>
      </trkpt>
      <trkpt lat="46.07822" lon="3.10221">
        <ele>530.28643798828</ele>
        <time>2020-07-18T22:17:28.764Z</time>
      </trkpt>
      <trkpt lat="46.07811" lon="3.10224">
        <ele>532.56365966797</ele>
        <time>2020-07-18T22:17:40.688Z</time>
      </trkpt>
      <trkpt lat="46.07798" lon="3.10235">
        <ele>533.98803710938</ele>
        <time>2020-07-18T22:17:52.614Z</time>
      </trkpt>
      <trkpt lat="46.0779" lon="3.10244">
        <ele>535.10217285156</ele>
        <time>2020-07-18T22:18:04.542Z</time>
      </trkpt>
      <trkpt lat="46.07767" lon="3.10282">
        <ele>539.30297851562</ele>
        <time>2020-07-18T22:18:16.475Z</time>
      </trkpt>
      <trkpt lat="46.07759" lon="3.10291">
        <ele>539.94604492188</ele>
        <time>2020-07-18T22:18:28.410Z</time>
      </trkpt>
      <trkpt lat="46.07745" lon="3.10301">
        <ele>540.62158203125</ele>
        <time>2020-07-18T22:18:40.347Z</time>
      </trkpt>
      <trkpt lat="46.07735" lon="3.10305">
        <ele>540.85070800781</ele>
        <time>2020-07-18T22:18:52.286Z</time>
      </trkpt>
      <trkpt lat="46.077" lon="3.10313">
        <ele>540.18383789062</ele>
        <time>2020-07-18T22:19:04.231Z</time>
      </trkpt>
      <trkpt lat="46.07687" lon="3.1032">
        <ele>540.93896484375</ele>
        <time>2020-07-18T22:19:16.178Z</time>
      </trkpt>
      <trkpt lat="46.07644" lon="3.10359">
        <ele>546.06402587891</ele>
        <time>2020-07-18T22:19:28.133Z</time>
      </trkpt>
      <trkpt lat="46.07634" lon="3.10363">
        <ele>546.20220947266</ele>
        <time>2020-07-18T22:19:40.090Z</time>
      </trkpt>
      <trkpt lat="46.07586" lon="3.10366">
        <ele>544.19732666016</ele>
        <time>2020-07-18T22:19:52.054Z</time>
      </trkpt>
      <trkpt lat="46.07572" lon="3.1037">
        <ele>544.19659423828</ele>
        <time>2020-07-18T22:20:04.021Z</time>
      </trkpt>
      <trkpt lat="46.07553" lon="3.10379">
        <ele>544.58410644531</ele>
        <time>2020-07-18T22:20:15.991Z</time>
      </trkpt>
      <trkpt lat="46.07544" lon="3.10387">
        <ele>545.13122558594</ele>
        <time>2020-07-18T22:20:27.963Z</time>
      </trkpt>
      <trkpt lat="46.07532" lon="3.10408">
        <ele>546.87847900391</ele>
        <time>2020-07-18T22:20:39.938Z</time>
      </trkpt>
      <trkpt lat="46.07526" lon="3.10436">
        <ele>548.85339355469</ele>
        <time>2020-07-18T22:20:51.916Z</time>
      </trkpt>
      <trkpt lat="46.0753" lon="3.10491">
        <ele>554.20166015625</ele>
        <time>2020-07-18T22:21:03.900Z</time>
      </trkpt>
      <trkpt lat="46.07547" lon="3.10559">
        <ele>559.27038574219</ele>
        <time>2020-07-18T22:21:15.892Z</time>
      </trkpt>
      <trkpt lat="46.07552" lon="3.10593">
        <ele>560.93322753906</ele>
        <time>2020-07-18T22:21:27.888Z</time>
      </trkpt>
      <trkpt lat="46.07551" lon="3.10608">
        <ele>560.88696289062</ele>
        <time>2020-07-18T22:21:39.886Z</time>
      </trkpt>
      <trkpt lat="46.07538" lon="3.10664">
        <ele>559.85339355469</ele>
        <time>2020-07-18T22:21:51.890Z</time>
      </trkpt>
      <trkpt lat="46.07528" lon="3.10691">
        <ele>561.12579345703</ele>
        <time>2020-07-18T22:22:03.898Z</time>
      </trkpt>
      <trkpt lat="46.07515" lon="3.10715">
        <ele>561.71606445312</ele>
        <time>2020-07-18T22:22:15.909Z</time>
      </trkpt>
      <trkpt lat="46.07498" lon="3.10736">
        <ele>563.21118164062</ele>
        <time>2020-07-18T22:22:27.924Z</time>
      </trkpt>
      <trkpt lat="46.07483" lon="3.10747">
        <ele>563.95141601562</ele>
        <time>2020-07-18T22:22:39.941Z</time>
      </trkpt>
      <trkpt lat="46.07472" lon="3.10752">
        <ele>564.63659667969</ele>
        <time>2020-07-18T22:22:51.960Z</time>
      </trkpt>
      <trkpt lat="46.07452" lon="3.10759">
        <ele>564.98645019531</ele>
        <time>2020-07-18T22:23:03.983Z</time>
      </trkpt>
      <trkpt lat="46.07436" lon="3.10761">
        <ele>565.02087402344</ele>
        <time>2020-07-18T22:23:16.008Z</time>
      </trkpt>
      <trkpt lat="46.07387" lon="3.10754">
        <ele>564.78515625</ele>
        <time>2020-07-18T22:23:28.041Z</time>
      </trkpt>
      <trkpt lat="46.0736" lon="3.10753">
        <ele>564.11083984375</ele>
        <time>2020-07-18T22:23:40.078Z</time>
      </trkpt>
      <trkpt lat="46.07327" lon="3.10757">
        <ele>563.39099121094</ele>
        <time>2020-07-18T22:23:52.121Z</time>
      </trkpt>
      <trkpt lat="46.07235" lon="3.10776">
        <ele>563.67407226562</ele>
        <time>2020-07-18T22:24:04.178Z</time>
      </trkpt>
      <trkpt lat="46.07223" lon="3.1078">
        <ele>564.11315917969</ele>
        <time>2020-07-18T22:24:16.237Z</time>
      </trkpt>
      <trkpt lat="46.07191" lon="3.10793">
        <ele>565.26501464844</ele>
        <time>2020-07-18T22:24:28.302Z</time>
      </trkpt>
      <trkpt lat="46.0716" lon="3.1081">
        <ele>565.99249267578</ele>
        <time>2020-07-18T22:24:40.372Z</time>
      </trkpt>
      <trkpt lat="46.07104" lon="3.10851">
        <ele>568.35144042969</ele>
        <time>2020-07-18T22:24:52.452Z</time>
      </trkpt>
      <trkpt lat="46.07094" lon="3.10856">
        <ele>568.94537353516</ele>
        <time>2020-07-18T22:25:04.534Z</time>
      </trkpt>
      <trkpt lat="46.07013" lon="3.10882">
        <ele>571.2412109375</ele>
        <time>2020-07-18T22:25:16.629Z</time>
      </trkpt>
      <trkpt lat="46.06992" lon="3.10893">
        <ele>570.42053222656</ele>
        <time>2020-07-18T22:25:28.728Z</time>
      </trkpt>
      <trkpt lat="46.06972" lon="3.10897">
        <ele>569.95007324219</ele>
        <time>2020-07-18T22:25:40.830Z</time>
      </trkpt>
      <trkpt lat="46.06976" lon="3.10903">
        <ele>569.66455078125</ele>
        <time>2020-07-18T22:25:52.933Z</time>
      </trkpt>
      <trkpt lat="46.07005" lon="3.10889">
        <ele>570.70129394531</ele>
        <time>2020-07-18T22:26:05.041Z</time>
      </trkpt>
      <trkpt lat="46.07024" lon="3.10882">
        <ele>570.89660644531</ele>
        <time>2020-07-18T22:26:17.152Z</time>
      </trkpt>
      <trkpt lat="46.07023" lon="3.10878">
        <ele>571.07659912109</ele>
        <time>2020-07-18T22:26:29.263Z</time>
      </trkpt>
      <trkpt lat="46.06996" lon="3.10892">
        <ele>570.52850341797</ele>
        <time>2020-07-18T22:26:41.379Z</time>
      </trkpt>
      <trkpt lat="46.06992" lon="3.10895">
        <ele>570.27655029297</ele>
        <time>2020-07-18T22:26:53.496Z</time>
      </trkpt>
      <trkpt lat="46.06995" lon="3.10897">
        <ele>570.16857910156</ele>
        <time>2020-07-18T22:27:05.613Z</time>
      </trkpt>
      <trkpt lat="46.07001" lon="3.10893">
        <ele>570.41333007812</ele>
        <time>2020-07-18T22:27:17.731Z</time>
      </trkpt>
      <trkpt lat="46.07027" lon="3.10884">
        <ele>570.70581054688</ele>
        <time>2020-07-18T22:27:29.854Z</time>
      </trkpt>
      <trkpt lat="46.07069" lon="3.10873">
        <ele>569.71301269531</ele>
        <time>2020-07-18T22:27:41.983Z</time>
      </trkpt>
      <trkpt lat="46.07075" lon="3.10873">
        <ele>569.55340576172</ele>
        <time>2020-07-18T22:27:54.113Z</time>
      </trkpt>
      <trkpt lat="46.07075" lon="3.10869">
        <ele>569.70098876953</ele>
        <time>2020-07-18T22:28:06.244Z</time>
      </trkpt>
      <trkpt lat="46.07071" lon="3.10871">
        <ele>569.72979736328</ele>
        <time>2020-07-18T22:28:18.376Z</time>
      </trkpt>
      <trkpt lat="46.07042" lon="3.10876">
        <ele>570.45385742188</ele>
        <time>2020-07-18T22:28:30.512Z</time>
      </trkpt>
      <trkpt lat="46.07013" lon="3.10886">
        <ele>570.97485351562</ele>
        <time>2020-07-18T22:28:42.653Z</time>
      </trkpt>
      <trkpt lat="46.06991" lon="3.10896">
        <ele>570.25494384766</ele>
        <time>2020-07-18T22:28:54.798Z</time>
      </trkpt>
      <trkpt lat="46.06977" lon="3.10897">
        <ele>570.13256835938</ele>
        <time>2020-07-18T22:29:06.945Z</time>
      </trkpt>
      <trkpt lat="46.06977" lon="3.10894">
        <ele>570.39892578125</ele>
        <time>2020-07-18T22:29:19.092Z</time>
      </trkpt>
      <trkpt lat="46.06977" lon="3.10896">
        <ele>570.25494384766</ele>
        <time>2020-07-18T22:29:31.240Z</time>
      </trkpt>
      <trkpt lat="46.06976" lon="3.10895">
        <ele>570.25482177734</ele>
        <time>2020-07-18T22:29:43.388Z</time>
      </trkpt>
      <trkpt lat="46.06974" lon="3.10899">
        <ele>569.91888427734</ele>
        <time>2020-07-18T22:29:55.536Z</time>
      </trkpt>
      <trkpt lat="46.06975" lon="3.10903">
        <ele>569.65252685547</ele>
        <time>2020-07-18T22:30:07.685Z</time>
      </trkpt>
      <trkpt lat="46.06989" lon="3.10899">
        <ele>569.98864746094</ele>
        <time>2020-07-18T22:30:19.836Z</time>
      </trkpt>
      <trkpt lat="46.07015" lon="3.10886">
        <ele>570.92443847656</ele>
        <time>2020-07-18T22:30:31.991Z</time>
      </trkpt>
      <trkpt lat="46.07061" lon="3.10873">
        <ele>569.88214111328</ele>
        <time>2020-07-18T22:30:44.154Z</time>
      </trkpt>
      <trkpt lat="46.07087" lon="3.10863">
        <ele>569.33526611328</ele>
        <time>2020-07-18T22:30:56.321Z</time>
      </trkpt>
      <trkpt lat="46.07106" lon="3.10853">
        <ele>568.23748779297</ele>
        <time>2020-07-18T22:31:08.491Z</time>
      </trkpt>
      <trkpt lat="46.0717" lon="3.10809">
        <ele>565.77288818359</ele>
        <time>2020-07-18T22:31:20.673Z</time>
      </trkpt>
      <trkpt lat="46.07187" lon="3.10799">
        <ele>565.41619873047</ele>
        <time>2020-07-18T22:31:32.858Z</time>
      </trkpt>
      <trkpt lat="46.07199" lon="3.10794">
        <ele>564.97705078125</ele>
        <time>2020-07-18T22:31:45.045Z</time>
      </trkpt>
      <trkpt lat="46.07329" lon="3.10759">
        <ele>563.45935058594</ele>
        <time>2020-07-18T22:31:57.253Z</time>
      </trkpt>
      <trkpt lat="46.07328" lon="3.10756">
        <ele>563.38494873047</ele>
        <time>2020-07-18T22:32:09.461Z</time>
      </trkpt>
      <trkpt lat="46.07322" lon="3.10759">
        <ele>563.27819824219</ele>
        <time>2020-07-18T22:32:21.670Z</time>
      </trkpt>
      <trkpt lat="46.07275" lon="3.10767">
        <ele>563.24060058594</ele>
        <time>2020-07-18T22:32:33.887Z</time>
      </trkpt>
      <trkpt lat="46.07215" lon="3.10781">
        <ele>564.40112304688</ele>
        <time>2020-07-18T22:32:46.114Z</time>
      </trkpt>
      <trkpt lat="46.07188" lon="3.10792">
        <ele>565.38739013672</ele>
        <time>2020-07-18T22:32:58.345Z</time>
      </trkpt>
      <trkpt lat="46.07172" lon="3.10801">
        <ele>565.79809570312</ele>
        <time>2020-07-18T22:33:10.579Z</time>
      </trkpt>
      <trkpt lat="46.07111" lon="3.10845">
        <ele>567.91351318359</ele>
        <time>2020-07-18T22:33:22.824Z</time>
      </trkpt>
      <trkpt lat="46.07093" lon="3.10856">
        <ele>569.01135253906</ele>
        <time>2020-07-18T22:33:35.072Z</time>
      </trkpt>
      <trkpt lat="46.07069" lon="3.10865">
        <ele>570.01892089844</ele>
        <time>2020-07-18T22:33:47.324Z</time>
      </trkpt>
      <trkpt lat="46.07035" lon="3.10874">
        <ele>570.75982666016</ele>
        <time>2020-07-18T22:33:59.581Z</time>
      </trkpt>
      <trkpt lat="46.07009" lon="3.10885">
        <ele>571.01086425781</ele>
        <time>2020-07-18T22:34:11.843Z</time>
      </trkpt>
      <trkpt lat="46.06949" lon="3.10919">
        <ele>567.95043945312</ele>
        <time>2020-07-18T22:34:24.115Z</time>
      </trkpt>
      <trkpt lat="46.06949" lon="3.10916">
        <ele>568.05297851562</ele>
        <time>2020-07-18T22:34:36.387Z</time>
      </trkpt>
      <trkpt lat="46.06928" lon="3.10926">
        <ele>567.45123291016</ele>
        <time>2020-07-18T22:34:48.663Z</time>
      </trkpt>
      <trkpt lat="46.06855" lon="3.10968">
        <ele>565.98010253906</ele>
        <time>2020-07-18T22:35:00.951Z</time>
      </trkpt>
      <trkpt lat="46.06799" lon="3.11024">
        <ele>565.21240234375</ele>
        <time>2020-07-18T22:35:13.250Z</time>
      </trkpt>
      <trkpt lat="46.06747" lon="3.11072">
        <ele>566.52569580078</ele>
        <time>2020-07-18T22:35:25.559Z</time>
      </trkpt>
      <trkpt lat="46.06688" lon="3.11111">
        <ele>569.37182617188</ele>
        <time>2020-07-18T22:35:37.879Z</time>
      </trkpt>
      <trkpt lat="46.06594" lon="3.11166">
        <ele>572.71014404297</ele>
        <time>2020-07-18T22:35:50.215Z</time>
      </trkpt>
      <trkpt lat="46.06412" lon="3.11309">
        <ele>569.85717773438</ele>
        <time>2020-07-18T22:36:02.584Z</time>
      </trkpt>
      <trkpt lat="46.06242" lon="3.11431">
        <ele>572.97381591797</ele>
        <time>2020-07-18T22:36:14.984Z</time>
      </trkpt>
      <trkpt lat="46.06242" lon="3.11431">
        <ele>572.97430419922</ele>
        <time>2020-07-18T22:36:27.384Z</time>
      </trkpt>
      <trkpt lat="46.06213" lon="3.11492">
        <ele>572.58032226562</ele>
        <time>2020-07-18T22:36:39.792Z</time>
      </trkpt>
      <trkpt lat="46.06134" lon="3.11706">
        <ele>569.71374511719</ele>
        <time>2020-07-18T22:36:52.227Z</time>
      </trkpt>
      <trkpt lat="46.06134" lon="3.11706">
        <ele>569.7138671875</ele>
        <time>2020-07-18T22:37:04.662Z</time>
      </trkpt>
      <trkpt lat="46.06088" lon="3.11763">
        <ele>566.81909179688</ele>
        <time>2020-07-18T22:37:17.106Z</time>
      </trkpt>
      <trkpt lat="46.06064" lon="3.11779">
        <ele>565.82598876953</ele>
        <time>2020-07-18T22:37:29.555Z</time>
      </trkpt>
      <trkpt lat="46.05757" lon="3.11873">
        <ele>564.91162109375</ele>
        <time>2020-07-18T22:37:42.054Z</time>
      </trkpt>
      <trkpt lat="46.05427" lon="3.11873">
        <ele>554.52294921875</ele>
        <time>2020-07-18T22:37:54.606Z</time>
      </trkpt>
      <trkpt lat="46.0539" lon="3.11873">
        <ele>552.80187988281</ele>
        <time>2020-07-18T22:38:07.164Z</time>
      </trkpt>
      <trkpt lat="46.0526" lon="3.11872">
        <ele>545.24163818359</ele>
        <time>2020-07-18T22:38:19.743Z</time>
      </trkpt>
      <trkpt lat="46.05083" lon="3.11884">
        <ele>538.10498046875</ele>
        <time>2020-07-18T22:38:32.350Z</time>
      </trkpt>
      <trkpt lat="46.05059" lon="3.11886">
        <ele>537.45776367188</ele>
        <time>2020-07-18T22:38:44.961Z</time>
      </trkpt>
      <trkpt lat="46.05045" lon="3.11888">
        <ele>536.87847900391</ele>
        <time>2020-07-18T22:38:57.574Z</time>
      </trkpt>
      <trkpt lat="46.04908" lon="3.11907">
        <ele>530.46032714844</ele>
        <time>2020-07-18T22:39:10.209Z</time>
      </trkpt>
      <trkpt lat="46.04908" lon="3.11907">
        <ele>530.4599609375</ele>
        <time>2020-07-18T22:39:22.844Z</time>
      </trkpt>
      <trkpt lat="46.04811" lon="3.11955">
        <ele>527.01989746094</ele>
        <time>2020-07-18T22:39:35.495Z</time>
      </trkpt>
      <trkpt lat="46.04732" lon="3.12002">
        <ele>522.30987548828</ele>
        <time>2020-07-18T22:39:48.160Z</time>
      </trkpt>
      <trkpt lat="46.0458" lon="3.12141">
        <ele>517.64300537109</ele>
        <time>2020-07-18T22:40:00.854Z</time>
      </trkpt>
      <trkpt lat="46.04379" lon="3.12398">
        <ele>504.18460083008</ele>
        <time>2020-07-18T22:40:13.591Z</time>
      </trkpt>
      <trkpt lat="46.04379" lon="3.12398">
        <ele>504.18450927734</ele>
        <time>2020-07-18T22:40:26.328Z</time>
      </trkpt>
      <trkpt lat="46.04309" lon="3.12505">
        <ele>502.00155639648</ele>
        <time>2020-07-18T22:40:39.081Z</time>
      </trkpt>
      <trkpt lat="46.04209" lon="3.12703">
        <ele>497</ele>
        <time>2020-07-18T22:40:51.862Z</time>
      </trkpt>
      <trkpt lat="46.04158" lon="3.1284">
        <ele>495.86236572266</ele>
        <time>2020-07-18T22:41:04.660Z</time>
      </trkpt>
      <trkpt lat="46.04121" lon="3.12888">
        <ele>495.46664428711</ele>
        <time>2020-07-18T22:41:17.466Z</time>
      </trkpt>
      <trkpt lat="46.04094" lon="3.12952">
        <ele>495.57592773438</ele>
        <time>2020-07-18T22:41:30.280Z</time>
      </trkpt>
      <trkpt lat="46.04091" lon="3.12969">
        <ele>495.72811889648</ele>
        <time>2020-07-18T22:41:43.096Z</time>
      </trkpt>
      <trkpt lat="46.04092" lon="3.1302">
        <ele>495.97021484375</ele>
        <time>2020-07-18T22:41:55.918Z</time>
      </trkpt>
      <trkpt lat="46.04111" lon="3.13092">
        <ele>493.80743408203</ele>
        <time>2020-07-18T22:42:08.748Z</time>
      </trkpt>
      <trkpt lat="46.04147" lon="3.13256">
        <ele>494</ele>
        <time>2020-07-18T22:42:21.598Z</time>
      </trkpt>
      <trkpt lat="46.0418" lon="3.13342">
        <ele>494.52465820312</ele>
        <time>2020-07-18T22:42:34.459Z</time>
      </trkpt>
      <trkpt lat="46.0418" lon="3.13369">
        <ele>493.64556884766</ele>
        <time>2020-07-18T22:42:47.323Z</time>
      </trkpt>
      <trkpt lat="46.0416" lon="3.1342">
        <ele>493.45407104492</ele>
        <time>2020-07-18T22:43:00.193Z</time>
      </trkpt>
      <trkpt lat="46.04144" lon="3.13458">
        <ele>493.51800537109</ele>
        <time>2020-07-18T22:43:13.068Z</time>
      </trkpt>
      <trkpt lat="46.04121" lon="3.1351">
        <ele>494.01651000977</ele>
        <time>2020-07-18T22:43:25.950Z</time>
      </trkpt>
      <trkpt lat="46.041" lon="3.13554">
        <ele>496.04901123047</ele>
        <time>2020-07-18T22:43:38.838Z</time>
      </trkpt>
      <trkpt lat="46.04091" lon="3.13571">
        <ele>496.56390380859</ele>
        <time>2020-07-18T22:43:51.728Z</time>
      </trkpt>
      <trkpt lat="46.04073" lon="3.13613">
        <ele>497.6669921875</ele>
        <time>2020-07-18T22:44:04.624Z</time>
      </trkpt>
      <trkpt lat="46.04064" lon="3.13613">
        <ele>497.87274169922</ele>
        <time>2020-07-18T22:44:17.521Z</time>
      </trkpt>
      <trkpt lat="46.04058" lon="3.13618">
        <ele>498.01370239258</ele>
        <time>2020-07-18T22:44:30.419Z</time>
      </trkpt>
      <trkpt lat="46.04021" lon="3.13649">
        <ele>498.22885131836</ele>
        <time>2020-07-18T22:44:43.324Z</time>
      </trkpt>
      <trkpt lat="46.03884" lon="3.13756">
        <ele>493.74908447266</ele>
        <time>2020-07-18T22:44:56.254Z</time>
      </trkpt>
      <trkpt lat="46.03705" lon="3.13812">
        <ele>491.61654663086</ele>
        <time>2020-07-18T22:45:09.213Z</time>
      </trkpt>
      <trkpt lat="46.03631" lon="3.13801">
        <ele>491.07699584961</ele>
        <time>2020-07-18T22:45:22.184Z</time>
      </trkpt>
      <trkpt lat="46.03585" lon="3.13805">
        <ele>489.88885498047</ele>
        <time>2020-07-18T22:45:35.163Z</time>
      </trkpt>
      <trkpt lat="46.03442" lon="3.13897">
        <ele>487.05944824219</ele>
        <time>2020-07-18T22:45:48.167Z</time>
      </trkpt>
      <trkpt lat="46.034" lon="3.13913">
        <ele>485.93984985352</ele>
        <time>2020-07-18T22:46:01.178Z</time>
      </trkpt>
      <trkpt lat="46.034" lon="3.13913">
        <ele>485.93954467773</ele>
        <time>2020-07-18T22:46:14.189Z</time>
      </trkpt>
      <trkpt lat="46.03311" lon="3.1393">
        <ele>481.20620727539</ele>
        <time>2020-07-18T22:46:27.214Z</time>
      </trkpt>
      <trkpt lat="46.03077" lon="3.13984">
        <ele>473.01519775391</ele>
        <time>2020-07-18T22:46:40.277Z</time>
      </trkpt>
      <trkpt lat="46.03037" lon="3.1399">
        <ele>472.28179931641</ele>
        <time>2020-07-18T22:46:53.347Z</time>
      </trkpt>
      <trkpt lat="46.02993" lon="3.13987">
        <ele>472.65509033203</ele>
        <time>2020-07-18T22:47:06.424Z</time>
      </trkpt>
      <trkpt lat="46.0285" lon="3.1395">
        <ele>472.6164855957</ele>
        <time>2020-07-18T22:47:19.524Z</time>
      </trkpt>
      <trkpt lat="46.02736" lon="3.13944">
        <ele>472.54437255859</ele>
        <time>2020-07-18T22:47:32.642Z</time>
      </trkpt>
      <trkpt lat="46.02736" lon="3.13944">
        <ele>472.54458618164</ele>
        <time>2020-07-18T22:47:45.760Z</time>
      </trkpt>
      <trkpt lat="46.02664" lon="3.13951">
        <ele>476.09555053711</ele>
        <time>2020-07-18T22:47:58.890Z</time>
      </trkpt>
      <trkpt lat="46.02649" lon="3.13953">
        <ele>476.87231445312</ele>
        <time>2020-07-18T22:48:12.022Z</time>
      </trkpt>
      <trkpt lat="46.02547" lon="3.13974">
        <ele>479.07769775391</ele>
        <time>2020-07-18T22:48:25.170Z</time>
      </trkpt>
      <trkpt lat="46.02504" lon="3.13969">
        <ele>479.48779296875</ele>
        <time>2020-07-18T22:48:38.325Z</time>
      </trkpt>
      <trkpt lat="46.02416" lon="3.13917">
        <ele>484.13317871094</ele>
        <time>2020-07-18T22:48:51.496Z</time>
      </trkpt>
      <trkpt lat="46.02375" lon="3.13847">
        <ele>487.39916992188</ele>
        <time>2020-07-18T22:49:04.677Z</time>
      </trkpt>
      <trkpt lat="46.0233" lon="3.13824">
        <ele>491.5705871582</ele>
        <time>2020-07-18T22:49:17.866Z</time>
      </trkpt>
      <trkpt lat="46.02304" lon="3.13832">
        <ele>495.68975830078</ele>
        <time>2020-07-18T22:49:31.059Z</time>
      </trkpt>
      <trkpt lat="46.02265" lon="3.13885">
        <ele>499.10977172852</ele>
        <time>2020-07-18T22:49:44.260Z</time>
      </trkpt>
      <trkpt lat="46.02232" lon="3.13902">
        <ele>501.31097412109</ele>
        <time>2020-07-18T22:49:57.467Z</time>
      </trkpt>
      <trkpt lat="46.0216" lon="3.139">
        <ele>502.2585144043</ele>
        <time>2020-07-18T22:50:10.685Z</time>
      </trkpt>
      <trkpt lat="46.02006" lon="3.13954">
        <ele>499.12246704102</ele>
        <time>2020-07-18T22:50:23.929Z</time>
      </trkpt>
      <trkpt lat="46.02006" lon="3.13952">
        <ele>499.0217590332</ele>
        <time>2020-07-18T22:50:37.173Z</time>
      </trkpt>
      <trkpt lat="46.01966" lon="3.13968">
        <ele>497.35165405273</ele>
        <time>2020-07-18T22:50:50.424Z</time>
      </trkpt>
      <trkpt lat="46.01921" lon="3.13982">
        <ele>497.31567382812</ele>
        <time>2020-07-18T22:51:03.682Z</time>
      </trkpt>
      <trkpt lat="46.01905" lon="3.13985">
        <ele>497.23168945312</ele>
        <time>2020-07-18T22:51:16.943Z</time>
      </trkpt>
      <trkpt lat="46.01878" lon="3.13984">
        <ele>497.54470825195</ele>
        <time>2020-07-18T22:51:30.208Z</time>
      </trkpt>
      <trkpt lat="46.01838" lon="3.1398">
        <ele>498.56033325195</ele>
        <time>2020-07-18T22:51:43.479Z</time>
      </trkpt>
      <trkpt lat="46.018" lon="3.13976">
        <ele>498.64758300781</ele>
        <time>2020-07-18T22:51:56.756Z</time>
      </trkpt>
      <trkpt lat="46.01705" lon="3.13977">
        <ele>495.84436035156</ele>
        <time>2020-07-18T22:52:10.049Z</time>
      </trkpt>
      <trkpt lat="46.01657" lon="3.13975">
        <ele>494.36450195312</ele>
        <time>2020-07-18T22:52:23.349Z</time>
      </trkpt>
      <trkpt lat="46.01649" lon="3.13974">
        <ele>494.08853149414</ele>
        <time>2020-07-18T22:52:36.651Z</time>
      </trkpt>
      <trkpt lat="46.0163" lon="3.13964">
        <ele>493.51147460938</ele>
        <time>2020-07-18T22:52:49.956Z</time>
      </trkpt>
      <trkpt lat="46.01621" lon="3.13956">
        <ele>493.16354370117</ele>
        <time>2020-07-18T22:53:03.262Z</time>
      </trkpt>
      <trkpt lat="46.01603" lon="3.13936">
        <ele>492.13171386719</ele>
        <time>2020-07-18T22:53:16.572Z</time>
      </trkpt>
      <trkpt lat="46.01581" lon="3.13906">
        <ele>491.17153930664</ele>
        <time>2020-07-18T22:53:29.887Z</time>
      </trkpt>
      <trkpt lat="46.01561" lon="3.13873">
        <ele>490.30767822266</ele>
        <time>2020-07-18T22:53:43.207Z</time>
      </trkpt>
      <trkpt lat="46.01544" lon="3.13835">
        <ele>489.79818725586</ele>
        <time>2020-07-18T22:53:56.532Z</time>
      </trkpt>
      <trkpt lat="46.01529" lon="3.13792">
        <ele>489.26239013672</ele>
        <time>2020-07-18T22:54:09.862Z</time>
      </trkpt>
      <trkpt lat="46.01511" lon="3.13742">
        <ele>487.86441040039</ele>
        <time>2020-07-18T22:54:23.199Z</time>
      </trkpt>
      <trkpt lat="46.01497" lon="3.13715">
        <ele>486.60461425781</ele>
        <time>2020-07-18T22:54:36.539Z</time>
      </trkpt>
      <trkpt lat="46.01484" lon="3.13697">
        <ele>486.02871704102</ele>
        <time>2020-07-18T22:54:49.882Z</time>
      </trkpt>
      <trkpt lat="46.01462" lon="3.13673">
        <ele>485.01577758789</ele>
        <time>2020-07-18T22:55:03.230Z</time>
      </trkpt>
      <trkpt lat="46.01428" lon="3.13647">
        <ele>483.43203735352</ele>
        <time>2020-07-18T22:55:16.584Z</time>
      </trkpt>
      <trkpt lat="46.0135" lon="3.13591">
        <ele>477.74710083008</ele>
        <time>2020-07-18T22:55:29.952Z</time>
      </trkpt>
      <trkpt lat="46.01203" lon="3.13486">
        <ele>466.55307006836</ele>
        <time>2020-07-18T22:55:43.346Z</time>
      </trkpt>
      <trkpt lat="46.01154" lon="3.13447">
        <ele>464.00161743164</ele>
        <time>2020-07-18T22:55:56.749Z</time>
      </trkpt>
      <trkpt lat="46.01123" lon="3.13414">
        <ele>462.68228149414</ele>
        <time>2020-07-18T22:56:10.158Z</time>
      </trkpt>
      <trkpt lat="46.01068" lon="3.13347">
        <ele>460.99844360352</ele>
        <time>2020-07-18T22:56:23.579Z</time>
      </trkpt>
      <trkpt lat="46.01041" lon="3.13319">
        <ele>458.66436767578</ele>
        <time>2020-07-18T22:56:37.005Z</time>
      </trkpt>
      <trkpt lat="46.01017" lon="3.13303">
        <ele>456.57632446289</ele>
        <time>2020-07-18T22:56:50.435Z</time>
      </trkpt>
      <trkpt lat="46.00998" lon="3.13295">
        <ele>455.58050537109</ele>
        <time>2020-07-18T22:57:03.868Z</time>
      </trkpt>
      <trkpt lat="46.00982" lon="3.13292">
        <ele>455.1005859375</ele>
        <time>2020-07-18T22:57:17.304Z</time>
      </trkpt>
      <trkpt lat="46.00851" lon="3.13274">
        <ele>444.18878173828</ele>
        <time>2020-07-18T22:57:30.761Z</time>
      </trkpt>
      <trkpt lat="46.00764" lon="3.13264">
        <ele>438.02969360352</ele>
        <time>2020-07-18T22:57:44.232Z</time>
      </trkpt>
      <trkpt lat="46.00706" lon="3.1326">
        <ele>434.81771850586</ele>
        <time>2020-07-18T22:57:57.712Z</time>
      </trkpt>
      <trkpt lat="46.00688" lon="3.13266">
        <ele>433.90155029297</ele>
        <time>2020-07-18T22:58:11.195Z</time>
      </trkpt>
      <trkpt lat="46.00674" lon="3.1328">
        <ele>433.39764404297</ele>
        <time>2020-07-18T22:58:24.681Z</time>
      </trkpt>
      <trkpt lat="46.00625" lon="3.13376">
        <ele>431.80786132812</ele>
        <time>2020-07-18T22:58:38.180Z</time>
      </trkpt>
      <trkpt lat="46.0061" lon="3.13405">
        <ele>430.74002075195</ele>
        <time>2020-07-18T22:58:51.683Z</time>
      </trkpt>
      <trkpt lat="46.006" lon="3.13418">
        <ele>430.10412597656</ele>
        <time>2020-07-18T22:59:05.189Z</time>
      </trkpt>
      <trkpt lat="46.00582" lon="3.13434">
        <ele>429.12939453125</ele>
        <time>2020-07-18T22:59:18.698Z</time>
      </trkpt>
      <trkpt lat="46.00571" lon="3.13439">
        <ele>428.60150146484</ele>
        <time>2020-07-18T22:59:32.209Z</time>
      </trkpt>
      <trkpt lat="46.0052" lon="3.13459">
        <ele>426.234375</ele>
        <time>2020-07-18T22:59:45.728Z</time>
      </trkpt>
      <trkpt lat="46.00498" lon="3.1347">
        <ele>425.07202148438</ele>
        <time>2020-07-18T22:59:59.251Z</time>
      </trkpt>
      <trkpt lat="46.00479" lon="3.13489">
        <ele>423.70425415039</ele>
        <time>2020-07-18T23:00:12.778Z</time>
      </trkpt>
      <trkpt lat="46.00466" lon="3.13504">
        <ele>422.69003295898</ele>
        <time>2020-07-18T23:00:26.307Z</time>
      </trkpt>
      <trkpt lat="46.00435" lon="3.13538">
        <ele>419.93545532227</ele>
        <time>2020-07-18T23:00:39.843Z</time>
      </trkpt>
      <trkpt lat="46.00413" lon="3.13555">
        <ele>417.92956542969</ele>
        <time>2020-07-18T23:00:53.383Z</time>
      </trkpt>
      <trkpt lat="46.00384" lon="3.13578">
        <ele>415.29382324219</ele>
        <time>2020-07-18T23:01:06.928Z</time>
      </trkpt>
      <trkpt lat="46.00359" lon="3.13603">
        <ele>413.99609375</ele>
        <time>2020-07-18T23:01:20.478Z</time>
      </trkpt>
      <trkpt lat="46.00296" lon="3.13671">
        <ele>411.47906494141</ele>
        <time>2020-07-18T23:01:34.040Z</time>
      </trkpt>
      <trkpt lat="46.00284" lon="3.13687">
        <ele>410.71118164062</ele>
        <time>2020-07-18T23:01:47.605Z</time>
      </trkpt>
      <trkpt lat="46.00279" lon="3.13702">
        <ele>410.29125976562</ele>
        <time>2020-07-18T23:02:01.172Z</time>
      </trkpt>
      <trkpt lat="46.00278" lon="3.13725">
        <ele>409.96731567383</ele>
        <time>2020-07-18T23:02:14.741Z</time>
      </trkpt>
      <trkpt lat="46.00284" lon="3.13844">
        <ele>408.5339050293</ele>
        <time>2020-07-18T23:02:28.324Z</time>
      </trkpt>
      <trkpt lat="46.00286" lon="3.13887">
        <ele>407.10614013672</ele>
        <time>2020-07-18T23:02:41.912Z</time>
      </trkpt>
      <trkpt lat="46.00285" lon="3.13947">
        <ele>406.15682983398</ele>
        <time>2020-07-18T23:02:55.506Z</time>
      </trkpt>
      <trkpt lat="46.00277" lon="3.14053">
        <ele>405.99969482422</ele>
        <time>2020-07-18T23:03:09.112Z</time>
      </trkpt>
      <trkpt lat="46.00279" lon="3.14096">
        <ele>406.96463012695</ele>
        <time>2020-07-18T23:03:22.723Z</time>
      </trkpt>
      <trkpt lat="46.00281" lon="3.14129">
        <ele>407.43255615234</ele>
        <time>2020-07-18T23:03:36.338Z</time>
      </trkpt>
      <trkpt lat="46.0028" lon="3.14215">
        <ele>406.84323120117</ele>
        <time>2020-07-18T23:03:49.962Z</time>
      </trkpt>
      <trkpt lat="46.00268" lon="3.14243">
        <ele>405.78741455078</ele>
        <time>2020-07-18T23:04:03.590Z</time>
      </trkpt>
      <trkpt lat="46.00255" lon="3.1428">
        <ele>404.33221435547</ele>
        <time>2020-07-18T23:04:17.222Z</time>
      </trkpt>
      <trkpt lat="46.00248" lon="3.14301">
        <ele>403.40835571289</ele>
        <time>2020-07-18T23:04:30.857Z</time>
      </trkpt>
      <trkpt lat="46.0023" lon="3.14345">
        <ele>401.28399658203</ele>
        <time>2020-07-18T23:04:44.498Z</time>
      </trkpt>
      <trkpt lat="46.00222" lon="3.14373">
        <ele>399.20489501953</ele>
        <time>2020-07-18T23:04:58.142Z</time>
      </trkpt>
      <trkpt lat="46.00215" lon="3.14409">
        <ele>396.55334472656</ele>
        <time>2020-07-18T23:05:11.790Z</time>
      </trkpt>
      <trkpt lat="46.00213" lon="3.14435">
        <ele>395.42251586914</ele>
        <time>2020-07-18T23:05:25.441Z</time>
      </trkpt>
      <trkpt lat="46.00211" lon="3.14512">
        <ele>392.6337890625</ele>
        <time>2020-07-18T23:05:39.101Z</time>
      </trkpt>
      <trkpt lat="46.00211" lon="3.14528">
        <ele>392.44183349609</ele>
        <time>2020-07-18T23:05:52.763Z</time>
      </trkpt>
      <trkpt lat="46.00205" lon="3.14552">
        <ele>391.57797241211</ele>
        <time>2020-07-18T23:06:06.427Z</time>
      </trkpt>
      <trkpt lat="46.00188" lon="3.14598">
        <ele>389.9794921875</ele>
        <time>2020-07-18T23:06:20.097Z</time>
      </trkpt>
      <trkpt lat="46.00137" lon="3.1467">
        <ele>387.59420776367</ele>
        <time>2020-07-18T23:06:33.779Z</time>
      </trkpt>
      <trkpt lat="46.00123" lon="3.14693">
        <ele>388.40710449219</ele>
        <time>2020-07-18T23:06:47.464Z</time>
      </trkpt>
      <trkpt lat="46.00114" lon="3.14704">
        <ele>388.89904785156</ele>
        <time>2020-07-18T23:07:01.151Z</time>
      </trkpt>
      <trkpt lat="46.00098" lon="3.14715">
        <ele>389.05499267578</ele>
        <time>2020-07-18T23:07:14.841Z</time>
      </trkpt>
      <trkpt lat="46.00081" lon="3.14725">
        <ele>387.28402709961</ele>
        <time>2020-07-18T23:07:28.534Z</time>
      </trkpt>
      <trkpt lat="46.0008" lon="3.14726">
        <ele>387.1760559082</ele>
        <time>2020-07-18T23:07:42.227Z</time>
      </trkpt>
      <trkpt lat="46.00045" lon="3.14747">
        <ele>383.38928222656</ele>
        <time>2020-07-18T23:07:55.926Z</time>
      </trkpt>
      <trkpt lat="46.00029" lon="3.14755">
        <ele>381.75756835938</ele>
        <time>2020-07-18T23:08:09.628Z</time>
      </trkpt>
      <trkpt lat="46.00001" lon="3.1475">
        <ele>378.67407226562</ele>
        <time>2020-07-18T23:08:23.334Z</time>
      </trkpt>
      <trkpt lat="45.99968" lon="3.14748">
        <ele>375.25552368164</ele>
        <time>2020-07-18T23:08:37.046Z</time>
      </trkpt>
      <trkpt lat="45.99911" lon="3.14745">
        <ele>369.85354614258</ele>
        <time>2020-07-18T23:08:50.767Z</time>
      </trkpt>
      <trkpt lat="45.99876" lon="3.14747">
        <ele>366.91598510742</ele>
        <time>2020-07-18T23:09:04.493Z</time>
      </trkpt>
      <trkpt lat="45.998" lon="3.1477">
        <ele>362.99914550781</ele>
        <time>2020-07-18T23:09:18.232Z</time>
      </trkpt>
      <trkpt lat="45.99783" lon="3.14774">
        <ele>360.95947265625</ele>
        <time>2020-07-18T23:09:31.974Z</time>
      </trkpt>
      <trkpt lat="45.99775" lon="3.14777">
        <ele>359.99963378906</ele>
        <time>2020-07-18T23:09:45.717Z</time>
      </trkpt>
      <trkpt lat="45.99728" lon="3.14776">
        <ele>354.65328979492</ele>
        <time>2020-07-18T23:09:59.467Z</time>
      </trkpt>
      <trkpt lat="45.99697" lon="3.14775">
        <ele>353.66906738281</ele>
        <time>2020-07-18T23:10:13.222Z</time>
      </trkpt>
      <trkpt lat="45.99669" lon="3.1478">
        <ele>353.11715698242</ele>
        <time>2020-07-18T23:10:26.982Z</time>
      </trkpt>
      <trkpt lat="45.99578" lon="3.14803">
        <ele>349.45178222656</ele>
        <time>2020-07-18T23:10:40.757Z</time>
      </trkpt>
      <trkpt lat="45.99531" lon="3.14824">
        <ele>348.43075561523</ele>
        <time>2020-07-18T23:10:54.539Z</time>
      </trkpt>
      <trkpt lat="45.99508" lon="3.14827">
        <ele>348.19079589844</ele>
        <time>2020-07-18T23:11:08.325Z</time>
      </trkpt>
      <trkpt lat="45.9945" lon="3.1483">
        <ele>347.91998291016</ele>
        <time>2020-07-18T23:11:22.120Z</time>
      </trkpt>
      <trkpt lat="45.99416" lon="3.14836">
        <ele>349.02380371094</ele>
        <time>2020-07-18T23:11:35.921Z</time>
      </trkpt>
      <trkpt lat="45.99361" lon="3.14854">
        <ele>350.36721801758</ele>
        <time>2020-07-18T23:11:49.731Z</time>
      </trkpt>
      <trkpt lat="45.99309" lon="3.14863">
        <ele>350.99108886719</ele>
        <time>2020-07-18T23:12:03.549Z</time>
      </trkpt>
      <trkpt lat="45.99265" lon="3.14866">
        <ele>350.48098754883</ele>
        <time>2020-07-18T23:12:17.374Z</time>
      </trkpt>
      <trkpt lat="45.99225" lon="3.14869">
        <ele>350.59539794922</ele>
        <time>2020-07-18T23:12:31.206Z</time>
      </trkpt>
      <trkpt lat="45.99201" lon="3.14872">
        <ele>350.09466552734</ele>
        <time>2020-07-18T23:12:45.042Z</time>
      </trkpt>
      <trkpt lat="45.99172" lon="3.14879">
        <ele>349.67282104492</ele>
        <time>2020-07-18T23:12:58.882Z</time>
      </trkpt>
      <trkpt lat="45.99141" lon="3.14898">
        <ele>350.58465576172</ele>
        <time>2020-07-18T23:13:12.728Z</time>
      </trkpt>
      <trkpt lat="45.99031" lon="3.14985">
        <ele>349.34689331055</ele>
        <time>2020-07-18T23:13:26.594Z</time>
      </trkpt>
      <trkpt lat="45.98828" lon="3.15141">
        <ele>341.02853393555</ele>
        <time>2020-07-18T23:13:40.497Z</time>
      </trkpt>
      <trkpt lat="45.98796" lon="3.15166">
        <ele>339.42282104492</ele>
        <time>2020-07-18T23:13:54.406Z</time>
      </trkpt>
      <trkpt lat="45.98777" lon="3.15183">
        <ele>339.24285888672</ele>
        <time>2020-07-18T23:14:08.318Z</time>
      </trkpt>
      <trkpt lat="45.9876" lon="3.15201">
        <ele>339.01489257812</ele>
        <time>2020-07-18T23:14:22.234Z</time>
      </trkpt>
      <trkpt lat="45.98744" lon="3.15222">
        <ele>338.39944458008</ele>
        <time>2020-07-18T23:14:36.153Z</time>
      </trkpt>
      <trkpt lat="45.98727" lon="3.1525">
        <ele>337.3916015625</ele>
        <time>2020-07-18T23:14:50.076Z</time>
      </trkpt>
      <trkpt lat="45.98675" lon="3.15339">
        <ele>340.64971923828</ele>
        <time>2020-07-18T23:15:04.012Z</time>
      </trkpt>
      <trkpt lat="45.98644" lon="3.15386">
        <ele>341.84649658203</ele>
        <time>2020-07-18T23:15:17.955Z</time>
      </trkpt>
      <trkpt lat="45.98626" lon="3.15411">
        <ele>342.14065551758</ele>
        <time>2020-07-18T23:15:31.902Z</time>
      </trkpt>
      <trkpt lat="45.98542" lon="3.15522">
        <ele>340.98837280273</ele>
        <time>2020-07-18T23:15:45.868Z</time>
      </trkpt>
      <trkpt lat="45.98535" lon="3.15536">
        <ele>340.65243530273</ele>
        <time>2020-07-18T23:15:59.836Z</time>
      </trkpt>
      <trkpt lat="45.98522" lon="3.15573">
        <ele>339.98928833008</ele>
        <time>2020-07-18T23:16:13.808Z</time>
      </trkpt>
      <trkpt lat="45.985" lon="3.1565">
        <ele>340.05764770508</ele>
        <time>2020-07-18T23:16:27.789Z</time>
      </trkpt>
      <trkpt lat="45.98492" lon="3.1567">
        <ele>339.76968383789</ele>
        <time>2020-07-18T23:16:41.773Z</time>
      </trkpt>
      <trkpt lat="45.98455" lon="3.15751">
        <ele>338.11953735352</ele>
        <time>2020-07-18T23:16:55.768Z</time>
      </trkpt>
      <trkpt lat="45.98355" lon="3.15962">
        <ele>335.38687133789</ele>
        <time>2020-07-18T23:17:09.791Z</time>
      </trkpt>
      <trkpt lat="45.9834" lon="3.15998">
        <ele>336.07077026367</ele>
        <time>2020-07-18T23:17:23.819Z</time>
      </trkpt>
      <trkpt lat="45.98303" lon="3.16076">
        <ele>339.77688598633</ele>
        <time>2020-07-18T23:17:37.858Z</time>
      </trkpt>
      <trkpt lat="45.98253" lon="3.16182">
        <ele>340.36065673828</ele>
        <time>2020-07-18T23:17:51.911Z</time>
      </trkpt>
      <trkpt lat="45.98225" lon="3.16242">
        <ele>338.58279418945</ele>
        <time>2020-07-18T23:18:05.972Z</time>
      </trkpt>
      <trkpt lat="45.98199" lon="3.16287">
        <ele>338.39224243164</ele>
        <time>2020-07-18T23:18:20.039Z</time>
      </trkpt>
      <trkpt lat="45.98161" lon="3.16332">
        <ele>336.58413696289</ele>
        <time>2020-07-18T23:18:34.114Z</time>
      </trkpt>
      <trkpt lat="45.98137" lon="3.16359">
        <ele>335.59545898438</ele>
        <time>2020-07-18T23:18:48.194Z</time>
      </trkpt>
      <trkpt lat="45.98122" lon="3.16387">
        <ele>336.57928466797</ele>
        <time>2020-07-18T23:19:02.278Z</time>
      </trkpt>
      <trkpt lat="45.98117" lon="3.16406">
        <ele>337.33929443359</ele>
        <time>2020-07-18T23:19:16.364Z</time>
      </trkpt>
      <trkpt lat="45.98099" lon="3.1649">
        <ele>338.00531005859</ele>
        <time>2020-07-18T23:19:30.460Z</time>
      </trkpt>
      <trkpt lat="45.98082" lon="3.16564">
        <ele>341.38995361328</ele>
        <time>2020-07-18T23:19:44.565Z</time>
      </trkpt>
      <trkpt lat="45.98073" lon="3.16592">
        <ele>343.16564941406</ele>
        <time>2020-07-18T23:19:58.673Z</time>
      </trkpt>
      <trkpt lat="45.98063" lon="3.1661">
        <ele>343.82183837891</ele>
        <time>2020-07-18T23:20:12.784Z</time>
      </trkpt>
      <trkpt lat="45.98045" lon="3.16626">
        <ele>345.56576538086</ele>
        <time>2020-07-18T23:20:26.898Z</time>
      </trkpt>
      <trkpt lat="45.98034" lon="3.16629">
        <ele>346.88555908203</ele>
        <time>2020-07-18T23:20:41.014Z</time>
      </trkpt>
      <trkpt lat="45.98019" lon="3.16629">
        <ele>348.68524169922</ele>
        <time>2020-07-18T23:20:55.132Z</time>
      </trkpt>
      <trkpt lat="45.97999" lon="3.16625">
        <ele>351.16003417969</ele>
        <time>2020-07-18T23:21:09.254Z</time>
      </trkpt>
      <trkpt lat="45.97953" lon="3.16618">
        <ele>355.5846862793</ele>
        <time>2020-07-18T23:21:23.383Z</time>
      </trkpt>
      <trkpt lat="45.97938" lon="3.1662">
        <ele>356.50854492188</ele>
        <time>2020-07-18T23:21:37.514Z</time>
      </trkpt>
      <trkpt lat="45.97873" lon="3.16635">
        <ele>358.33929443359</ele>
        <time>2020-07-18T23:21:51.656Z</time>
      </trkpt>
      <trkpt lat="45.97824" lon="3.16649">
        <ele>357.96398925781</ele>
        <time>2020-07-18T23:22:05.806Z</time>
      </trkpt>
      <trkpt lat="45.97797" lon="3.1666">
        <ele>357.69952392578</ele>
        <time>2020-07-18T23:22:19.961Z</time>
      </trkpt>
      <trkpt lat="45.97793" lon="3.16664">
        <ele>357.6623840332</ele>
        <time>2020-07-18T23:22:34.116Z</time>
      </trkpt>
      <trkpt lat="45.97786" lon="3.16679">
        <ele>358.77975463867</ele>
        <time>2020-07-18T23:22:48.273Z</time>
      </trkpt>
      <trkpt lat="45.97783" lon="3.16676">
        <ele>358.56820678711</ele>
        <time>2020-07-18T23:23:02.431Z</time>
      </trkpt>
      <trkpt lat="45.97783" lon="3.16676">
        <ele>358.56619262695</ele>
        <time>2020-07-18T23:23:16.589Z</time>
      </trkpt>
      <trkpt lat="45.97778" lon="3.16686">
        <ele>358.94940185547</ele>
        <time>2020-07-18T23:23:30.748Z</time>
      </trkpt>
      <trkpt lat="45.97753" lon="3.1672">
        <ele>359.67153930664</ele>
        <time>2020-07-18T23:23:44.913Z</time>
      </trkpt>
      <trkpt lat="45.9772" lon="3.16729">
        <ele>359.28472900391</ele>
        <time>2020-07-18T23:23:59.083Z</time>
      </trkpt>
      <trkpt lat="45.97696" lon="3.16731">
        <ele>359.63238525391</ele>
        <time>2020-07-18T23:24:13.257Z</time>
      </trkpt>
      <trkpt lat="45.97688" lon="3.16732">
        <ele>359.56262207031</ele>
        <time>2020-07-18T23:24:27.432Z</time>
      </trkpt>
      <trkpt lat="45.97661" lon="3.16741">
        <ele>359.24081420898</ele>
        <time>2020-07-18T23:24:41.612Z</time>
      </trkpt>
      <trkpt lat="45.97649" lon="3.16751">
        <ele>359.08624267578</ele>
        <time>2020-07-18T23:24:55.794Z</time>
      </trkpt>
      <trkpt lat="45.97639" lon="3.1677">
        <ele>358.76306152344</ele>
        <time>2020-07-18T23:25:09.979Z</time>
      </trkpt>
      <trkpt lat="45.97587" lon="3.16773">
        <ele>353.8200378418</ele>
        <time>2020-07-18T23:25:24.172Z</time>
      </trkpt>
      <trkpt lat="45.97572" lon="3.16747">
        <ele>352.04949951172</ele>
        <time>2020-07-18T23:25:38.369Z</time>
      </trkpt>
      <trkpt lat="45.97567" lon="3.16725">
        <ele>350.99395751953</ele>
        <time>2020-07-18T23:25:52.568Z</time>
      </trkpt>
      <trkpt lat="45.97557" lon="3.16727">
        <ele>350.06314086914</ele>
        <time>2020-07-18T23:26:06.769Z</time>
      </trkpt>
      <trkpt lat="45.97549" lon="3.16749">
        <ele>349.03335571289</ele>
        <time>2020-07-18T23:26:20.973Z</time>
      </trkpt>
      <trkpt lat="45.97519" lon="3.16737">
        <ele>343.52334594727</ele>
        <time>2020-07-18T23:26:35.182Z</time>
      </trkpt>
      <trkpt lat="45.97435" lon="3.16752">
        <ele>335.09844970703</ele>
        <time>2020-07-18T23:26:49.404Z</time>
      </trkpt>
      <trkpt lat="45.97374" lon="3.16782">
        <ele>333.49502563477</ele>
        <time>2020-07-18T23:27:03.636Z</time>
      </trkpt>
      <trkpt lat="45.97374" lon="3.16782">
        <ele>333.49502563477</ele>
        <time>2020-07-18T23:27:17.868Z</time>
      </trkpt>
      <trkpt lat="45.97284" lon="3.16803">
        <ele>333.29040527344</ele>
        <time>2020-07-18T23:27:32.115Z</time>
      </trkpt>
      <trkpt lat="45.97222" lon="3.16863">
        <ele>331.77416992188</ele>
        <time>2020-07-18T23:27:46.374Z</time>
      </trkpt>
      <trkpt lat="45.97131" lon="3.16923">
        <ele>331.06497192383</ele>
        <time>2020-07-18T23:28:00.649Z</time>
      </trkpt>
      <trkpt lat="45.97052" lon="3.17014">
        <ele>332.19763183594</ele>
        <time>2020-07-18T23:28:14.940Z</time>
      </trkpt>
      <trkpt lat="45.96961" lon="3.17053">
        <ele>334.66003417969</ele>
        <time>2020-07-18T23:28:29.246Z</time>
      </trkpt>
      <trkpt lat="45.9687" lon="3.1706">
        <ele>335.54119873047</ele>
        <time>2020-07-18T23:28:43.567Z</time>
      </trkpt>
      <trkpt lat="45.96785" lon="3.17029">
        <ele>334.66098022461</ele>
        <time>2020-07-18T23:28:57.902Z</time>
      </trkpt>
      <trkpt lat="45.9674" lon="3.17027">
        <ele>336.18325805664</ele>
        <time>2020-07-18T23:29:12.244Z</time>
      </trkpt>
      <trkpt lat="45.96581" lon="3.17079">
        <ele>338.90869140625</ele>
        <time>2020-07-18T23:29:26.612Z</time>
      </trkpt>
      <trkpt lat="45.96469" lon="3.17111">
        <ele>337.54067993164</ele>
        <time>2020-07-18T23:29:40.999Z</time>
      </trkpt>
      <trkpt lat="45.96345" lon="3.1718">
        <ele>337.95361328125</ele>
        <time>2020-07-18T23:29:55.407Z</time>
      </trkpt>
      <trkpt lat="45.96321" lon="3.17182">
        <ele>337.90213012695</ele>
        <time>2020-07-18T23:30:09.819Z</time>
      </trkpt>
      <trkpt lat="45.96285" lon="3.17213">
        <ele>338.84448242188</ele>
        <time>2020-07-18T23:30:24.237Z</time>
      </trkpt>
      <trkpt lat="45.96246" lon="3.17237">
        <ele>338.96746826172</ele>
        <time>2020-07-18T23:30:38.662Z</time>
      </trkpt>
      <trkpt lat="45.96164" lon="3.17284">
        <ele>339.0009765625</ele>
        <time>2020-07-18T23:30:53.101Z</time>
      </trkpt>
      <trkpt lat="45.96141" lon="3.17296">
        <ele>339.41299438477</ele>
        <time>2020-07-18T23:31:07.544Z</time>
      </trkpt>
      <trkpt lat="45.96141" lon="3.17296">
        <ele>339.41290283203</ele>
        <time>2020-07-18T23:31:21.987Z</time>
      </trkpt>
      <trkpt lat="45.96031" lon="3.17365">
        <ele>339.25012207031</ele>
        <time>2020-07-18T23:31:36.450Z</time>
      </trkpt>
      <trkpt lat="45.95943" lon="3.17407">
        <ele>339</ele>
        <time>2020-07-18T23:31:50.927Z</time>
      </trkpt>
      <trkpt lat="45.95927" lon="3.17414">
        <ele>339</ele>
        <time>2020-07-18T23:32:05.407Z</time>
      </trkpt>
      <trkpt lat="45.95917" lon="3.17415">
        <ele>339</ele>
        <time>2020-07-18T23:32:19.889Z</time>
      </trkpt>
      <trkpt lat="45.95898" lon="3.17405">
        <ele>339</ele>
        <time>2020-07-18T23:32:34.374Z</time>
      </trkpt>
      <trkpt lat="45.95895" lon="3.17414">
        <ele>339</ele>
        <time>2020-07-18T23:32:48.860Z</time>
      </trkpt>
      <trkpt lat="45.95889" lon="3.17446">
        <ele>339.45571899414</ele>
        <time>2020-07-18T23:33:03.350Z</time>
      </trkpt>
      <trkpt lat="45.95743" lon="3.17517">
        <ele>339.13027954102</ele>
        <time>2020-07-18T23:33:17.864Z</time>
      </trkpt>
      <trkpt lat="45.95728" lon="3.1751">
        <ele>339</ele>
        <time>2020-07-18T23:33:32.381Z</time>
      </trkpt>
      <trkpt lat="45.957" lon="3.17518">
        <ele>339.3681640625</ele>
        <time>2020-07-18T23:33:46.902Z</time>
      </trkpt>
      <trkpt lat="45.95608" lon="3.17581">
        <ele>338.97094726562</ele>
        <time>2020-07-18T23:34:01.440Z</time>
      </trkpt>
      <trkpt lat="45.95559" lon="3.176">
        <ele>337.07989501953</ele>
        <time>2020-07-18T23:34:15.986Z</time>
      </trkpt>
      <trkpt lat="45.95559" lon="3.176">
        <ele>337.07998657227</ele>
        <time>2020-07-18T23:34:30.532Z</time>
      </trkpt>
      <trkpt lat="45.9552" lon="3.17613">
        <ele>336.31820678711</ele>
        <time>2020-07-18T23:34:45.084Z</time>
      </trkpt>
      <trkpt lat="45.95324" lon="3.17735">
        <ele>332.02673339844</ele>
        <time>2020-07-18T23:34:59.670Z</time>
      </trkpt>
      <trkpt lat="45.95236" lon="3.17766">
        <ele>330.94845581055</ele>
        <time>2020-07-18T23:35:14.271Z</time>
      </trkpt>
      <trkpt lat="45.95188" lon="3.1779">
        <ele>331.43020629883</ele>
        <time>2020-07-18T23:35:28.880Z</time>
      </trkpt>
      <trkpt lat="45.95179" lon="3.178">
        <ele>331.53652954102</ele>
        <time>2020-07-18T23:35:43.491Z</time>
      </trkpt>
      <trkpt lat="45.95084" lon="3.17902">
        <ele>331.32104492188</ele>
        <time>2020-07-18T23:35:58.121Z</time>
      </trkpt>
      <trkpt lat="45.95084" lon="3.17902">
        <ele>331.32116699219</ele>
        <time>2020-07-18T23:36:12.751Z</time>
      </trkpt>
      <trkpt lat="45.95036" lon="3.17954">
        <ele>329.33337402344</ele>
        <time>2020-07-18T23:36:27.391Z</time>
      </trkpt>
      <trkpt lat="45.95019" lon="3.17973">
        <ele>328.07168579102</ele>
        <time>2020-07-18T23:36:42.034Z</time>
      </trkpt>
      <trkpt lat="45.95019" lon="3.17973">
        <ele>328.07186889648</ele>
        <time>2020-07-18T23:36:56.677Z</time>
      </trkpt>
      <trkpt lat="45.94872" lon="3.18137">
        <ele>323.35614013672</ele>
        <time>2020-07-18T23:37:11.350Z</time>
      </trkpt>
      <trkpt lat="45.94745" lon="3.18307">
        <ele>320.56558227539</ele>
        <time>2020-07-18T23:37:26.051Z</time>
      </trkpt>
      <trkpt lat="45.94701" lon="3.18347">
        <ele>319.66873168945</ele>
        <time>2020-07-18T23:37:40.760Z</time>
      </trkpt>
      <trkpt lat="45.94677" lon="3.1836">
        <ele>319.06384277344</ele>
        <time>2020-07-18T23:37:55.473Z</time>
      </trkpt>
      <trkpt lat="45.94653" lon="3.18374">
        <ele>318.85366821289</ele>
        <time>2020-07-18T23:38:10.190Z</time>
      </trkpt>
      <trkpt lat="45.94653" lon="3.18374">
        <ele>318.85357666016</ele>
        <time>2020-07-18T23:38:24.907Z</time>
      </trkpt>
      <trkpt lat="45.94611" lon="3.18409">
        <ele>318.28860473633</ele>
        <time>2020-07-18T23:38:39.632Z</time>
      </trkpt>
      <trkpt lat="45.94516" lon="3.18543">
        <ele>317.88543701172</ele>
        <time>2020-07-18T23:38:54.378Z</time>
      </trkpt>
      <trkpt lat="45.9443" lon="3.18634">
        <ele>319.93075561523</ele>
        <time>2020-07-18T23:39:09.141Z</time>
      </trkpt>
      <trkpt lat="45.94388" lon="3.18717">
        <ele>322.50259399414</ele>
        <time>2020-07-18T23:39:23.916Z</time>
      </trkpt>
      <trkpt lat="45.94371" lon="3.18781">
        <ele>322.30316162109</ele>
        <time>2020-07-18T23:39:38.698Z</time>
      </trkpt>
      <trkpt lat="45.9431" lon="3.18991">
        <ele>319.19360351562</ele>
        <time>2020-07-18T23:39:53.506Z</time>
      </trkpt>
      <trkpt lat="45.94251" lon="3.18954">
        <ele>323.77020263672</ele>
        <time>2020-07-18T23:40:08.324Z</time>
      </trkpt>
      <trkpt lat="45.94243" lon="3.18949">
        <ele>324.29251098633</ele>
        <time>2020-07-18T23:40:23.144Z</time>
      </trkpt>
      <trkpt lat="45.94232" lon="3.18942">
        <ele>325.00030517578</ele>
        <time>2020-07-18T23:40:37.965Z</time>
      </trkpt>
      <trkpt lat="45.94223" lon="3.18928">
        <ele>326.02310180664</ele>
        <time>2020-07-18T23:40:52.789Z</time>
      </trkpt>
      <trkpt lat="45.94219" lon="3.18952">
        <ele>324.62445068359</ele>
        <time>2020-07-18T23:41:07.615Z</time>
      </trkpt>
      <trkpt lat="45.94215" lon="3.18975">
        <ele>323.31155395508</ele>
        <time>2020-07-18T23:41:22.444Z</time>
      </trkpt>
      <trkpt lat="45.94161" lon="3.19025">
        <ele>322.19662475586</ele>
        <time>2020-07-18T23:41:37.283Z</time>
      </trkpt>
      <trkpt lat="45.94135" lon="3.19045">
        <ele>322.13787841797</ele>
        <time>2020-07-18T23:41:52.127Z</time>
      </trkpt>
      <trkpt lat="45.94124" lon="3.19038">
        <ele>322.16363525391</ele>
        <time>2020-07-18T23:42:06.973Z</time>
      </trkpt>
      <trkpt lat="45.94124" lon="3.19049">
        <ele>321.90618896484</ele>
        <time>2020-07-18T23:42:21.820Z</time>
      </trkpt>
      <trkpt lat="45.94096" lon="3.19187">
        <ele>320.96139526367</ele>
        <time>2020-07-18T23:42:36.683Z</time>
      </trkpt>
      <trkpt lat="45.94083" lon="3.19222">
        <ele>320.8583984375</ele>
        <time>2020-07-18T23:42:51.551Z</time>
      </trkpt>
      <trkpt lat="45.94018" lon="3.19333">
        <ele>321.52593994141</ele>
        <time>2020-07-18T23:43:06.435Z</time>
      </trkpt>
      <trkpt lat="45.94002" lon="3.19362">
        <ele>321.95007324219</ele>
        <time>2020-07-18T23:43:21.323Z</time>
      </trkpt>
      <trkpt lat="45.9399" lon="3.19459">
        <ele>324.34628295898</ele>
        <time>2020-07-18T23:43:36.222Z</time>
      </trkpt>
      <trkpt lat="45.93994" lon="3.1957">
        <ele>323.16299438477</ele>
        <time>2020-07-18T23:43:51.133Z</time>
      </trkpt>
      <trkpt lat="45.9399" lon="3.19602">
        <ele>322.24783325195</ele>
        <time>2020-07-18T23:44:06.048Z</time>
      </trkpt>
      <trkpt lat="45.9399" lon="3.19602">
        <ele>322.24813842773</ele>
        <time>2020-07-18T23:44:20.963Z</time>
      </trkpt>
      <trkpt lat="45.93974" lon="3.19728">
        <ele>320.40859985352</ele>
        <time>2020-07-18T23:44:35.892Z</time>
      </trkpt>
      <trkpt lat="45.93896" lon="3.20135">
        <ele>316.05212402344</ele>
        <time>2020-07-18T23:44:50.868Z</time>
      </trkpt>
      <trkpt lat="45.93868" lon="3.20199">
        <ele>316.32150268555</ele>
        <time>2020-07-18T23:45:05.853Z</time>
      </trkpt>
      <trkpt lat="45.93802" lon="3.20307">
        <ele>316.90719604492</ele>
        <time>2020-07-18T23:45:20.854Z</time>
      </trkpt>
      <trkpt lat="45.93802" lon="3.20307">
        <ele>316.90719604492</ele>
        <time>2020-07-18T23:45:35.855Z</time>
      </trkpt>
      <trkpt lat="45.93759" lon="3.20388">
        <ele>316.15286254883</ele>
        <time>2020-07-18T23:45:50.867Z</time>
      </trkpt>
      <trkpt lat="45.93728" lon="3.20486">
        <ele>315.60778808594</ele>
        <time>2020-07-18T23:46:05.891Z</time>
      </trkpt>
      <trkpt lat="45.93719" lon="3.20565">
        <ele>315.76696777344</ele>
        <time>2020-07-18T23:46:20.924Z</time>
      </trkpt>
      <trkpt lat="45.93725" lon="3.20644">
        <ele>315.41165161133</ele>
        <time>2020-07-18T23:46:35.966Z</time>
      </trkpt>
      <trkpt lat="45.93838" lon="3.21284">
        <ele>315.65887451172</ele>
        <time>2020-07-18T23:46:51.082Z</time>
      </trkpt>
      <trkpt lat="45.93841" lon="3.21378">
        <ele>314.03503417969</ele>
        <time>2020-07-18T23:47:06.208Z</time>
      </trkpt>
      <trkpt lat="45.93819" lon="3.21456">
        <ele>313</ele>
        <time>2020-07-18T23:47:21.344Z</time>
      </trkpt>
      <trkpt lat="45.93784" lon="3.21624">
        <ele>312.7197265625</ele>
        <time>2020-07-18T23:47:36.499Z</time>
      </trkpt>
      <trkpt lat="45.93785" lon="3.21677">
        <ele>312.73251342773</ele>
        <time>2020-07-18T23:47:51.660Z</time>
      </trkpt>
      <trkpt lat="45.93795" lon="3.21714">
        <ele>313.27066040039</ele>
        <time>2020-07-18T23:48:06.826Z</time>
      </trkpt>
      <trkpt lat="45.93804" lon="3.21729">
        <ele>313.56674194336</ele>
        <time>2020-07-18T23:48:21.994Z</time>
      </trkpt>
      <trkpt lat="45.93878" lon="3.21825">
        <ele>316.46575927734</ele>
        <time>2020-07-18T23:48:37.178Z</time>
      </trkpt>
      <trkpt lat="45.93689" lon="3.21899">
        <ele>321.02255249023</ele>
        <time>2020-07-18T23:48:52.393Z</time>
      </trkpt>
      <trkpt lat="45.93672" lon="3.21899">
        <ele>321.21563720703</ele>
        <time>2020-07-18T23:49:07.611Z</time>
      </trkpt>
      <trkpt lat="45.9365" lon="3.21902">
        <ele>321.58892822266</ele>
        <time>2020-07-18T23:49:22.833Z</time>
      </trkpt>
      <trkpt lat="45.93627" lon="3.21924">
        <ele>322.30187988281</ele>
        <time>2020-07-18T23:49:38.059Z</time>
      </trkpt>
      <trkpt lat="45.93601" lon="3.21949">
        <ele>321.55535888672</ele>
        <time>2020-07-18T23:49:53.290Z</time>
      </trkpt>
      <trkpt lat="45.93599" lon="3.21957">
        <ele>321.51702880859</ele>
        <time>2020-07-18T23:50:08.522Z</time>
      </trkpt>
      <trkpt lat="45.93616" lon="3.21992">
        <ele>322.0959777832</ele>
        <time>2020-07-18T23:50:23.759Z</time>
      </trkpt>
      <trkpt lat="45.93586" lon="3.22034">
        <ele>321.01501464844</ele>
        <time>2020-07-18T23:50:39.002Z</time>
      </trkpt>
      <trkpt lat="45.93567" lon="3.22057">
        <ele>320.78039550781</ele>
        <time>2020-07-18T23:50:54.249Z</time>
      </trkpt>
      <trkpt lat="45.93442" lon="3.22199">
        <ele>316.83996582031</ele>
        <time>2020-07-18T23:51:09.522Z</time>
      </trkpt>
      <trkpt lat="45.93414" lon="3.2224">
        <ele>315.8359375</ele>
        <time>2020-07-18T23:51:24.801Z</time>
      </trkpt>
      <trkpt lat="45.93309" lon="3.22348">
        <ele>315.03448486328</ele>
        <time>2020-07-18T23:51:40.101Z</time>
      </trkpt>
      <trkpt lat="45.93277" lon="3.2238">
        <ele>313.52426147461</ele>
        <time>2020-07-18T23:51:55.407Z</time>
      </trkpt>
      <trkpt lat="45.93234" lon="3.22477">
        <ele>311.92272949219</ele>
        <time>2020-07-18T23:52:10.726Z</time>
      </trkpt>
      <trkpt lat="45.93201" lon="3.22526">
        <ele>312.39651489258</ele>
        <time>2020-07-18T23:52:26.053Z</time>
      </trkpt>
      <trkpt lat="45.93164" lon="3.22565">
        <ele>312.74749755859</ele>
        <time>2020-07-18T23:52:41.387Z</time>
      </trkpt>
      <trkpt lat="45.93132" lon="3.22584">
        <ele>311.86175537109</ele>
        <time>2020-07-18T23:52:56.727Z</time>
      </trkpt>
      <trkpt lat="45.93109" lon="3.22609">
        <ele>311.56140136719</ele>
        <time>2020-07-18T23:53:12.071Z</time>
      </trkpt>
      <trkpt lat="45.93056" lon="3.22735">
        <ele>313.29159545898</ele>
        <time>2020-07-18T23:53:27.432Z</time>
      </trkpt>
      <trkpt lat="45.92971" lon="3.22891">
        <ele>310.50561523438</ele>
        <time>2020-07-18T23:53:42.815Z</time>
      </trkpt>
      <trkpt lat="45.92941" lon="3.22965">
        <ele>309.77227783203</ele>
        <time>2020-07-18T23:53:58.207Z</time>
      </trkpt>
      <trkpt lat="45.92857" lon="3.23176">
        <ele>310.85879516602</ele>
        <time>2020-07-18T23:54:13.626Z</time>
      </trkpt>
      <trkpt lat="45.92812" lon="3.23256">
        <ele>310.03430175781</ele>
        <time>2020-07-18T23:54:29.057Z</time>
      </trkpt>
      <trkpt lat="45.92514" lon="3.23568">
        <ele>308.99743652344</ele>
        <time>2020-07-18T23:54:44.547Z</time>
      </trkpt>
      <trkpt lat="45.92359" lon="3.2373">
        <ele>311.23468017578</ele>
        <time>2020-07-18T23:55:00.068Z</time>
      </trkpt>
      <trkpt lat="45.92359" lon="3.2373">
        <ele>311.23455810547</ele>
        <time>2020-07-18T23:55:15.589Z</time>
      </trkpt>
      <trkpt lat="45.92276" lon="3.23809">
        <ele>308.57498168945</ele>
        <time>2020-07-18T23:55:31.126Z</time>
      </trkpt>
      <trkpt lat="45.92246" lon="3.23851">
        <ele>307.73947143555</ele>
        <time>2020-07-18T23:55:46.669Z</time>
      </trkpt>
      <trkpt lat="45.92149" lon="3.24109">
        <ele>310.66360473633</ele>
        <time>2020-07-18T23:56:02.245Z</time>
      </trkpt>
      <trkpt lat="45.92064" lon="3.24298">
        <ele>310.60214233398</ele>
        <time>2020-07-18T23:56:17.846Z</time>
      </trkpt>
      <trkpt lat="45.92052" lon="3.24371">
        <ele>311.36380004883</ele>
        <time>2020-07-18T23:56:33.456Z</time>
      </trkpt>
      <trkpt lat="45.92014" lon="3.24557">
        <ele>312.53421020508</ele>
        <time>2020-07-18T23:56:49.087Z</time>
      </trkpt>
      <trkpt lat="45.91967" lon="3.24588">
        <ele>312.73489379883</ele>
        <time>2020-07-18T23:57:04.727Z</time>
      </trkpt>
      <trkpt lat="45.9194" lon="3.24622">
        <ele>312.09509277344</ele>
        <time>2020-07-18T23:57:20.372Z</time>
      </trkpt>
      <trkpt lat="45.9193" lon="3.24634">
        <ele>311.88943481445</ele>
        <time>2020-07-18T23:57:36.019Z</time>
      </trkpt>
      <trkpt lat="45.91849" lon="3.24753">
        <ele>312.49346923828</ele>
        <time>2020-07-18T23:57:51.685Z</time>
      </trkpt>
      <trkpt lat="45.91825" lon="3.24807">
        <ele>313.02975463867</ele>
        <time>2020-07-18T23:58:07.358Z</time>
      </trkpt>
      <trkpt lat="45.91808" lon="3.24838">
        <ele>313.73754882812</ele>
        <time>2020-07-18T23:58:23.036Z</time>
      </trkpt>
      <trkpt lat="45.91784" lon="3.24937">
        <ele>313.62738037109</ele>
        <time>2020-07-18T23:58:38.725Z</time>
      </trkpt>
      <trkpt lat="45.91784" lon="3.24937">
        <ele>313.62689208984</ele>
        <time>2020-07-18T23:58:54.414Z</time>
      </trkpt>
      <trkpt lat="45.91744" lon="3.25001">
        <ele>310.63177490234</ele>
        <time>2020-07-18T23:59:10.113Z</time>
      </trkpt>
      <trkpt lat="45.91673" lon="3.24984">
        <ele>308.45837402344</ele>
        <time>2020-07-18T23:59:25.823Z</time>
      </trkpt>
      <trkpt lat="45.91607" lon="3.24901">
        <ele>308.93515014648</ele>
        <time>2020-07-18T23:59:41.547Z</time>
      </trkpt>
      <trkpt lat="45.91596" lon="3.24873">
        <ele>309.2822265625</ele>
        <time>2020-07-18T23:59:57.275Z</time>
      </trkpt>
      <trkpt lat="45.91579" lon="3.24769">
        <ele>310.63430786133</ele>
        <time>2020-07-19T00:00:13.015Z</time>
      </trkpt>
      <trkpt lat="45.91569" lon="3.24743">
        <ele>311.1305847168</ele>
        <time>2020-07-19T00:00:28.758Z</time>
      </trkpt>
      <trkpt lat="45.91547" lon="3.24721">
        <ele>311.36956787109</ele>
        <time>2020-07-19T00:00:44.506Z</time>
      </trkpt>
      <trkpt lat="45.91532" lon="3.24721">
        <ele>311.18923950195</ele>
        <time>2020-07-19T00:01:00.256Z</time>
      </trkpt>
      <trkpt lat="45.9135" lon="3.24858">
        <ele>313.12710571289</ele>
        <time>2020-07-19T00:01:16.039Z</time>
      </trkpt>
      <trkpt lat="45.9132" lon="3.24875">
        <ele>313.6555480957</ele>
        <time>2020-07-19T00:01:31.827Z</time>
      </trkpt>
      <trkpt lat="45.91184" lon="3.24916">
        <ele>315.94064331055</ele>
        <time>2020-07-19T00:01:47.637Z</time>
      </trkpt>
      <trkpt lat="45.90846" lon="3.24984">
        <ele>323.18258666992</ele>
        <time>2020-07-19T00:02:03.502Z</time>
      </trkpt>
      <trkpt lat="45.9072" lon="3.25044">
        <ele>322.91180419922</ele>
        <time>2020-07-19T00:02:19.388Z</time>
      </trkpt>
      <trkpt lat="45.90632" lon="3.2512">
        <ele>321.70138549805</ele>
        <time>2020-07-19T00:02:35.291Z</time>
      </trkpt>
      <trkpt lat="45.9058" lon="3.25163">
        <ele>320.89678955078</ele>
        <time>2020-07-19T00:02:51.203Z</time>
      </trkpt>
      <trkpt lat="45.90481" lon="3.25209">
        <ele>319</ele>
        <time>2020-07-19T00:03:07.132Z</time>
      </trkpt>
      <trkpt lat="45.90307" lon="3.25266">
        <ele>313.04312133789</ele>
        <time>2020-07-19T00:03:23.089Z</time>
      </trkpt>
      <trkpt lat="45.90307" lon="3.25266">
        <ele>313.04290771484</ele>
        <time>2020-07-19T00:03:39.046Z</time>
      </trkpt>
      <trkpt lat="45.89788" lon="3.25543">
        <ele>312.59426879883</ele>
        <time>2020-07-19T00:03:55.092Z</time>
      </trkpt>
      <trkpt lat="45.89584" lon="3.25637">
        <ele>312.49676513672</ele>
        <time>2020-07-19T00:04:11.172Z</time>
      </trkpt>
      <trkpt lat="45.89512" lon="3.2569">
        <ele>312.87246704102</ele>
        <time>2020-07-19T00:04:27.265Z</time>
      </trkpt>
      <trkpt lat="45.89337" lon="3.25854">
        <ele>310</ele>
        <time>2020-07-19T00:04:43.392Z</time>
      </trkpt>
      <trkpt lat="45.89271" lon="3.25894">
        <ele>309.57809448242</ele>
        <time>2020-07-19T00:04:59.530Z</time>
      </trkpt>
      <trkpt lat="45.8927" lon="3.25885">
        <ele>309.56521606445</ele>
        <time>2020-07-19T00:05:15.669Z</time>
      </trkpt>
      <trkpt lat="45.89254" lon="3.25882">
        <ele>309.19378662109</ele>
        <time>2020-07-19T00:05:31.811Z</time>
      </trkpt>
      <trkpt lat="45.89234" lon="3.2589">
        <ele>307.94476318359</ele>
        <time>2020-07-19T00:05:47.956Z</time>
      </trkpt>
      <trkpt lat="45.8921" lon="3.25891">
        <ele>306.77337646484</ele>
        <time>2020-07-19T00:06:04.105Z</time>
      </trkpt>
      <trkpt lat="45.89172" lon="3.25909">
        <ele>305.00857543945</ele>
        <time>2020-07-19T00:06:20.260Z</time>
      </trkpt>
      <trkpt lat="45.89157" lon="3.25915">
        <ele>304.57092285156</ele>
        <time>2020-07-19T00:06:36.418Z</time>
      </trkpt>
      <trkpt lat="45.89124" lon="3.25929">
        <ele>304.73754882812</ele>
        <time>2020-07-19T00:06:52.581Z</time>
      </trkpt>
      <trkpt lat="45.89048" lon="3.25935">
        <ele>307.9631652832</ele>
        <time>2020-07-19T00:07:08.757Z</time>
      </trkpt>
      <trkpt lat="45.88976" lon="3.25961">
        <ele>307.76852416992</ele>
        <time>2020-07-19T00:07:24.944Z</time>
      </trkpt>
      <trkpt lat="45.88971" lon="3.25976">
        <ele>308.07675170898</ele>
        <time>2020-07-19T00:07:41.133Z</time>
      </trkpt>
      <trkpt lat="45.88981" lon="3.2607">
        <ele>308.4052734375</ele>
        <time>2020-07-19T00:07:57.333Z</time>
      </trkpt>
      <trkpt lat="45.88898" lon="3.26082">
        <ele>304.56829833984</ele>
        <time>2020-07-19T00:08:13.546Z</time>
      </trkpt>
      <trkpt lat="45.88848" lon="3.26076">
        <ele>303.22549438477</ele>
        <time>2020-07-19T00:08:29.767Z</time>
      </trkpt>
      <trkpt lat="45.88826" lon="3.26073">
        <ele>302.74923706055</ele>
        <time>2020-07-19T00:08:45.992Z</time>
      </trkpt>
      <trkpt lat="45.8878" lon="3.26068">
        <ele>303.92837524414</ele>
        <time>2020-07-19T00:09:02.224Z</time>
      </trkpt>
      <trkpt lat="45.88768" lon="3.26065">
        <ele>304.93856811523</ele>
        <time>2020-07-19T00:09:18.458Z</time>
      </trkpt>
      <trkpt lat="45.88768" lon="3.26065">
        <ele>304.9377746582</ele>
        <time>2020-07-19T00:09:34.692Z</time>
      </trkpt>
      <trkpt lat="45.88716" lon="3.26069">
        <ele>309.8821105957</ele>
        <time>2020-07-19T00:09:50.934Z</time>
      </trkpt>
      <trkpt lat="45.88657" lon="3.26088">
        <ele>310.38714599609</ele>
        <time>2020-07-19T00:10:07.186Z</time>
      </trkpt>
      <trkpt lat="45.88474" lon="3.26208">
        <ele>307.34494018555</ele>
        <time>2020-07-19T00:10:23.470Z</time>
      </trkpt>
      <trkpt lat="45.8844" lon="3.26231">
        <ele>308.39797973633</ele>
        <time>2020-07-19T00:10:39.760Z</time>
      </trkpt>
      <trkpt lat="45.8822" lon="3.26374">
        <ele>309.0368347168</ele>
        <time>2020-07-19T00:10:56.089Z</time>
      </trkpt>
      <trkpt lat="45.87996" lon="3.26523">
        <ele>313.11654663086</ele>
        <time>2020-07-19T00:11:12.458Z</time>
      </trkpt>
      <trkpt lat="45.87957" lon="3.26549">
        <ele>314.06732177734</ele>
        <time>2020-07-19T00:11:28.833Z</time>
      </trkpt>
      <trkpt lat="45.87634" lon="3.26776">
        <ele>316.08917236328</ele>
        <time>2020-07-19T00:11:45.266Z</time>
      </trkpt>
      <trkpt lat="45.87624" lon="3.26791">
        <ele>316.14074707031</ele>
        <time>2020-07-19T00:12:01.701Z</time>
      </trkpt>
      <trkpt lat="45.87611" lon="3.26815">
        <ele>316.28234863281</ele>
        <time>2020-07-19T00:12:18.140Z</time>
      </trkpt>
      <trkpt lat="45.87607" lon="3.26826">
        <ele>316.37246704102</ele>
        <time>2020-07-19T00:12:34.580Z</time>
      </trkpt>
      <trkpt lat="45.87603" lon="3.26866">
        <ele>316.79724121094</ele>
        <time>2020-07-19T00:12:51.025Z</time>
      </trkpt>
      <trkpt lat="45.87593" lon="3.26941">
        <ele>317.30883789062</ele>
        <time>2020-07-19T00:13:07.478Z</time>
      </trkpt>
      <trkpt lat="45.87563" lon="3.27221">
        <ele>319.82260131836</ele>
        <time>2020-07-19T00:13:23.963Z</time>
      </trkpt>
      <trkpt lat="45.87544" lon="3.27368">
        <ele>320.85342407227</ele>
        <time>2020-07-19T00:13:40.465Z</time>
      </trkpt>
      <trkpt lat="45.87486" lon="3.2757">
        <ele>321.79815673828</ele>
        <time>2020-07-19T00:13:56.991Z</time>
      </trkpt>
      <trkpt lat="45.87481" lon="3.27657">
        <ele>320.18319702148</ele>
        <time>2020-07-19T00:14:13.527Z</time>
      </trkpt>
      <trkpt lat="45.87477" lon="3.27849">
        <ele>319.93063354492</ele>
        <time>2020-07-19T00:14:30.084Z</time>
      </trkpt>
      <trkpt lat="45.87467" lon="3.27909">
        <ele>319.39901733398</ele>
        <time>2020-07-19T00:14:46.648Z</time>
      </trkpt>
      <trkpt lat="45.87451" lon="3.27954">
        <ele>318.97796630859</ele>
        <time>2020-07-19T00:15:03.218Z</time>
      </trkpt>
      <trkpt lat="45.87398" lon="3.28081">
        <ele>319.25665283203</ele>
        <time>2020-07-19T00:15:19.804Z</time>
      </trkpt>
      <trkpt lat="45.87346" lon="3.28209">
        <ele>319.82385253906</ele>
        <time>2020-07-19T00:15:36.407Z</time>
      </trkpt>
      <trkpt lat="45.87286" lon="3.28386">
        <ele>320.27514648438</ele>
        <time>2020-07-19T00:15:53.032Z</time>
      </trkpt>
      <trkpt lat="45.87286" lon="3.28386">
        <ele>320.27523803711</ele>
        <time>2020-07-19T00:16:09.657Z</time>
      </trkpt>
      <trkpt lat="45.87239" lon="3.2852">
        <ele>320</ele>
        <time>2020-07-19T00:16:26.299Z</time>
      </trkpt>
      <trkpt lat="45.87194" lon="3.28654">
        <ele>321.69412231445</ele>
        <time>2020-07-19T00:16:42.957Z</time>
      </trkpt>
      <trkpt lat="45.8703" lon="3.28902">
        <ele>324.62496948242</ele>
        <time>2020-07-19T00:16:59.653Z</time>
      </trkpt>
      <trkpt lat="45.8703" lon="3.28902">
        <ele>324.62475585938</ele>
        <time>2020-07-19T00:17:16.349Z</time>
      </trkpt>
      <trkpt lat="45.86956" lon="3.29041">
        <ele>320.54425048828</ele>
        <time>2020-07-19T00:17:33.065Z</time>
      </trkpt>
      <trkpt lat="45.86848" lon="3.29371">
        <ele>317.41412353516</ele>
        <time>2020-07-19T00:17:49.822Z</time>
      </trkpt>
      <trkpt lat="45.86778" lon="3.2952">
        <ele>315.49816894531</ele>
        <time>2020-07-19T00:18:06.599Z</time>
      </trkpt>
      <trkpt lat="45.8668" lon="3.2973">
        <ele>314.49108886719</ele>
        <time>2020-07-19T00:18:23.404Z</time>
      </trkpt>
      <trkpt lat="45.86666" lon="3.29777">
        <ele>314.15176391602</ele>
        <time>2020-07-19T00:18:40.215Z</time>
      </trkpt>
      <trkpt lat="45.86666" lon="3.29777">
        <ele>314.15185546875</ele>
        <time>2020-07-19T00:18:57.026Z</time>
      </trkpt>
      <trkpt lat="45.86642" lon="3.29852">
        <ele>314</ele>
        <time>2020-07-19T00:19:13.846Z</time>
      </trkpt>
      <trkpt lat="45.8642" lon="3.29619">
        <ele>314</ele>
        <time>2020-07-19T00:19:30.710Z</time>
      </trkpt>
      <trkpt lat="45.86352" lon="3.29552">
        <ele>314.9794921875</ele>
        <time>2020-07-19T00:19:47.587Z</time>
      </trkpt>
      <trkpt lat="45.8642" lon="3.29619">
        <ele>314</ele>
        <time>2020-07-19T00:20:04.477Z</time>
      </trkpt>
      <trkpt lat="45.86462" lon="3.29664">
        <ele>314</ele>
        <time>2020-07-19T00:20:21.376Z</time>
      </trkpt>
    </trkseg>
  </trk>
</gpx>